<?xml version="1.0" encoding="UTF-8" standalone="no" ?>
<gpx xmlns="http://www.topografix.com/GPX/1/1" xmlns:xsi="http://www.w3.org/2001/XMLSchema-instance" xsi:schemaLocation="http://www.topografix.com/GPX/1/1 http://www.topografix.com/GPX/1/1/gpx.xsd" version="1.1" creator="VisuGPX - https://www.visugpx.com">
  <metadata>
    <name>PFO - Randonnée Chasselay </name>
    <desc><![CDATA[Randonnée vtt organisée par les Classes en 5 - 6 Septembre 2015
Parcours 32 km]]></desc>
  </metadata>
  <trk>
    <name><![CDATA[06-SEP-15 12:15:16]]></name>
    <trkseg>
      <trkpt lat="45.87476" lon="4.77025">
        <ele>237.1</ele>
        <time>2015-09-06T06:51:51Z</time>
      </trkpt>
      <trkpt lat="45.87476" lon="4.77022">
        <ele>231.33</ele>
        <time>2015-09-06T06:52:12Z</time>
      </trkpt>
      <trkpt lat="45.87477" lon="4.77022">
        <ele>231.81</ele>
        <time>2015-09-06T06:52:27Z</time>
      </trkpt>
      <trkpt lat="45.87476" lon="4.77023">
        <ele>236.62</ele>
        <time>2015-09-06T06:53:03Z</time>
      </trkpt>
      <trkpt lat="45.87477" lon="4.77022">
        <ele>232.3</ele>
        <time>2015-09-06T06:53:34Z</time>
      </trkpt>
      <trkpt lat="45.87477" lon="4.77022">
        <ele>230.37</ele>
        <time>2015-09-06T06:54:03Z</time>
      </trkpt>
      <trkpt lat="45.87477" lon="4.77022">
        <ele>230.85</ele>
        <time>2015-09-06T06:54:37Z</time>
      </trkpt>
      <trkpt lat="45.87478" lon="4.77021">
        <ele>230.85</ele>
        <time>2015-09-06T06:55:00Z</time>
      </trkpt>
      <trkpt lat="45.87477" lon="4.77021">
        <ele>231.33</ele>
        <time>2015-09-06T06:55:27Z</time>
      </trkpt>
      <trkpt lat="45.87477" lon="4.77021">
        <ele>231.81</ele>
        <time>2015-09-06T06:55:59Z</time>
      </trkpt>
      <trkpt lat="45.87477" lon="4.77022">
        <ele>232.78</ele>
        <time>2015-09-06T06:56:25Z</time>
      </trkpt>
      <trkpt lat="45.87476" lon="4.77022">
        <ele>232.3</ele>
        <time>2015-09-06T06:56:45Z</time>
      </trkpt>
      <trkpt lat="45.87476" lon="4.77021">
        <ele>231.33</ele>
        <time>2015-09-06T06:57:06Z</time>
      </trkpt>
      <trkpt lat="45.87476" lon="4.77021">
        <ele>231.33</ele>
        <time>2015-09-06T06:57:24Z</time>
      </trkpt>
      <trkpt lat="45.87476" lon="4.77022">
        <ele>231.81</ele>
        <time>2015-09-06T06:57:50Z</time>
      </trkpt>
      <trkpt lat="45.87476" lon="4.77022">
        <ele>230.85</ele>
        <time>2015-09-06T06:58:15Z</time>
      </trkpt>
      <trkpt lat="45.87477" lon="4.77021">
        <ele>231.33</ele>
        <time>2015-09-06T06:58:35Z</time>
      </trkpt>
      <trkpt lat="45.87482" lon="4.77024">
        <ele>232.78</ele>
        <time>2015-09-06T06:58:56Z</time>
      </trkpt>
      <trkpt lat="45.87499" lon="4.77021">
        <ele>233.26</ele>
        <time>2015-09-06T06:59:11Z</time>
      </trkpt>
      <trkpt lat="45.87502" lon="4.77017">
        <ele>233.26</ele>
        <time>2015-09-06T06:59:15Z</time>
      </trkpt>
      <trkpt lat="45.87504" lon="4.76998">
        <ele>232.3</ele>
        <time>2015-09-06T06:59:34Z</time>
      </trkpt>
      <trkpt lat="45.87504" lon="4.76998">
        <ele>231.33</ele>
        <time>2015-09-06T07:00:01Z</time>
      </trkpt>
      <trkpt lat="45.87504" lon="4.76998">
        <ele>230.85</ele>
        <time>2015-09-06T07:00:26Z</time>
      </trkpt>
      <trkpt lat="45.87503" lon="4.76997">
        <ele>229.89</ele>
        <time>2015-09-06T07:00:50Z</time>
      </trkpt>
      <trkpt lat="45.87504" lon="4.76997">
        <ele>230.37</ele>
        <time>2015-09-06T07:01:12Z</time>
      </trkpt>
      <trkpt lat="45.87504" lon="4.76997">
        <ele>230.37</ele>
        <time>2015-09-06T07:01:38Z</time>
      </trkpt>
      <trkpt lat="45.87504" lon="4.76997">
        <ele>230.37</ele>
        <time>2015-09-06T07:02:00Z</time>
      </trkpt>
      <trkpt lat="45.87504" lon="4.76997">
        <ele>230.85</ele>
        <time>2015-09-06T07:02:21Z</time>
      </trkpt>
      <trkpt lat="45.87504" lon="4.76996">
        <ele>231.33</ele>
        <time>2015-09-06T07:02:48Z</time>
      </trkpt>
      <trkpt lat="45.87504" lon="4.76995">
        <ele>231.33</ele>
        <time>2015-09-06T07:03:16Z</time>
      </trkpt>
      <trkpt lat="45.87504" lon="4.76995">
        <ele>231.33</ele>
        <time>2015-09-06T07:03:51Z</time>
      </trkpt>
      <trkpt lat="45.87504" lon="4.76996">
        <ele>231.33</ele>
        <time>2015-09-06T07:04:20Z</time>
      </trkpt>
      <trkpt lat="45.87504" lon="4.76996">
        <ele>231.33</ele>
        <time>2015-09-06T07:04:45Z</time>
      </trkpt>
      <trkpt lat="45.87503" lon="4.76995">
        <ele>231.81</ele>
        <time>2015-09-06T07:05:13Z</time>
      </trkpt>
      <trkpt lat="45.87504" lon="4.76995">
        <ele>231.33</ele>
        <time>2015-09-06T07:05:37Z</time>
      </trkpt>
      <trkpt lat="45.87504" lon="4.76995">
        <ele>230.85</ele>
        <time>2015-09-06T07:06:06Z</time>
      </trkpt>
      <trkpt lat="45.87504" lon="4.76996">
        <ele>230.85</ele>
        <time>2015-09-06T07:06:34Z</time>
      </trkpt>
      <trkpt lat="45.87504" lon="4.76995">
        <ele>230.85</ele>
        <time>2015-09-06T07:06:54Z</time>
      </trkpt>
      <trkpt lat="45.87504" lon="4.76995">
        <ele>229.89</ele>
        <time>2015-09-06T07:07:25Z</time>
      </trkpt>
      <trkpt lat="45.87503" lon="4.76994">
        <ele>229.89</ele>
        <time>2015-09-06T07:07:52Z</time>
      </trkpt>
      <trkpt lat="45.87503" lon="4.76994">
        <ele>230.37</ele>
        <time>2015-09-06T07:08:22Z</time>
      </trkpt>
      <trkpt lat="45.87503" lon="4.76994">
        <ele>230.37</ele>
        <time>2015-09-06T07:08:50Z</time>
      </trkpt>
      <trkpt lat="45.87503" lon="4.76993">
        <ele>229.89</ele>
        <time>2015-09-06T07:08:51Z</time>
      </trkpt>
      <trkpt lat="45.87511" lon="4.76974">
        <ele>229.41</ele>
        <time>2015-09-06T07:09:01Z</time>
      </trkpt>
      <trkpt lat="45.87513" lon="4.76963">
        <ele>228.93</ele>
        <time>2015-09-06T07:09:04Z</time>
      </trkpt>
      <trkpt lat="45.87514" lon="4.76896">
        <ele>227.49</ele>
        <time>2015-09-06T07:09:18Z</time>
      </trkpt>
      <trkpt lat="45.87513" lon="4.76878">
        <ele>227.49</ele>
        <time>2015-09-06T07:09:22Z</time>
      </trkpt>
      <trkpt lat="45.87526" lon="4.76871">
        <ele>227.01</ele>
        <time>2015-09-06T07:09:27Z</time>
      </trkpt>
      <trkpt lat="45.87565" lon="4.76855">
        <ele>228.45</ele>
        <time>2015-09-06T07:09:41Z</time>
      </trkpt>
      <trkpt lat="45.87601" lon="4.76844">
        <ele>229.41</ele>
        <time>2015-09-06T07:09:52Z</time>
      </trkpt>
      <trkpt lat="45.87647" lon="4.7683">
        <ele>227.01</ele>
        <time>2015-09-06T07:10:05Z</time>
      </trkpt>
      <trkpt lat="45.87687" lon="4.76822">
        <ele>227.01</ele>
        <time>2015-09-06T07:10:17Z</time>
      </trkpt>
      <trkpt lat="45.87743" lon="4.76815">
        <ele>228.45</ele>
        <time>2015-09-06T07:10:31Z</time>
      </trkpt>
      <trkpt lat="45.87775" lon="4.76806">
        <ele>227.49</ele>
        <time>2015-09-06T07:10:39Z</time>
      </trkpt>
      <trkpt lat="45.87849" lon="4.76799">
        <ele>225.57</ele>
        <time>2015-09-06T07:10:50Z</time>
      </trkpt>
      <trkpt lat="45.87944" lon="4.76787">
        <ele>221.24</ele>
        <time>2015-09-06T07:11:06Z</time>
      </trkpt>
      <trkpt lat="45.88005" lon="4.76776">
        <ele>219.32</ele>
        <time>2015-09-06T07:11:19Z</time>
      </trkpt>
      <trkpt lat="45.8801" lon="4.76775">
        <ele>218.84</ele>
        <time>2015-09-06T07:11:20Z</time>
      </trkpt>
      <trkpt lat="45.88016" lon="4.76774">
        <ele>218.84</ele>
        <time>2015-09-06T07:11:21Z</time>
      </trkpt>
      <trkpt lat="45.88107" lon="4.76755">
        <ele>214.51</ele>
        <time>2015-09-06T07:11:37Z</time>
      </trkpt>
      <trkpt lat="45.88111" lon="4.76751">
        <ele>214.03</ele>
        <time>2015-09-06T07:11:38Z</time>
      </trkpt>
      <trkpt lat="45.88113" lon="4.76746">
        <ele>213.55</ele>
        <time>2015-09-06T07:11:39Z</time>
      </trkpt>
      <trkpt lat="45.88115" lon="4.76739">
        <ele>213.07</ele>
        <time>2015-09-06T07:11:40Z</time>
      </trkpt>
      <trkpt lat="45.88118" lon="4.76732">
        <ele>212.59</ele>
        <time>2015-09-06T07:11:41Z</time>
      </trkpt>
      <trkpt lat="45.88121" lon="4.76725">
        <ele>212.59</ele>
        <time>2015-09-06T07:11:42Z</time>
      </trkpt>
      <trkpt lat="45.88124" lon="4.76718">
        <ele>212.11</ele>
        <time>2015-09-06T07:11:43Z</time>
      </trkpt>
      <trkpt lat="45.88128" lon="4.76711">
        <ele>212.11</ele>
        <time>2015-09-06T07:11:44Z</time>
      </trkpt>
      <trkpt lat="45.88131" lon="4.76705">
        <ele>212.11</ele>
        <time>2015-09-06T07:11:45Z</time>
      </trkpt>
      <trkpt lat="45.8816" lon="4.76633">
        <ele>213.07</ele>
        <time>2015-09-06T07:11:57Z</time>
      </trkpt>
      <trkpt lat="45.88188" lon="4.76573">
        <ele>213.07</ele>
        <time>2015-09-06T07:12:10Z</time>
      </trkpt>
      <trkpt lat="45.88193" lon="4.76574">
        <ele>213.07</ele>
        <time>2015-09-06T07:12:11Z</time>
      </trkpt>
      <trkpt lat="45.88269" lon="4.76606">
        <ele>213.07</ele>
        <time>2015-09-06T07:12:27Z</time>
      </trkpt>
      <trkpt lat="45.8836" lon="4.76626">
        <ele>213.07</ele>
        <time>2015-09-06T07:12:46Z</time>
      </trkpt>
      <trkpt lat="45.88365" lon="4.76627">
        <ele>213.07</ele>
        <time>2015-09-06T07:12:47Z</time>
      </trkpt>
      <trkpt lat="45.8845" lon="4.76671">
        <ele>211.63</ele>
        <time>2015-09-06T07:13:04Z</time>
      </trkpt>
      <trkpt lat="45.88479" lon="4.76687">
        <ele>210.19</ele>
        <time>2015-09-06T07:13:10Z</time>
      </trkpt>
      <trkpt lat="45.88551" lon="4.7672">
        <ele>207.3</ele>
        <time>2015-09-06T07:13:22Z</time>
      </trkpt>
      <trkpt lat="45.88565" lon="4.76724">
        <ele>207.3</ele>
        <time>2015-09-06T07:13:24Z</time>
      </trkpt>
      <trkpt lat="45.88572" lon="4.76726">
        <ele>207.3</ele>
        <time>2015-09-06T07:13:25Z</time>
      </trkpt>
      <trkpt lat="45.88579" lon="4.76729">
        <ele>207.3</ele>
        <time>2015-09-06T07:13:26Z</time>
      </trkpt>
      <trkpt lat="45.88608" lon="4.76734">
        <ele>205.86</ele>
        <time>2015-09-06T07:13:30Z</time>
      </trkpt>
      <trkpt lat="45.88677" lon="4.76749">
        <ele>204.42</ele>
        <time>2015-09-06T07:13:40Z</time>
      </trkpt>
      <trkpt lat="45.88762" lon="4.76763">
        <ele>202.98</ele>
        <time>2015-09-06T07:13:54Z</time>
      </trkpt>
      <trkpt lat="45.88872" lon="4.76777">
        <ele>202.01</ele>
        <time>2015-09-06T07:14:15Z</time>
      </trkpt>
      <trkpt lat="45.88947" lon="4.76783">
        <ele>201.53</ele>
        <time>2015-09-06T07:14:30Z</time>
      </trkpt>
      <trkpt lat="45.8904" lon="4.76787">
        <ele>201.05</ele>
        <time>2015-09-06T07:14:48Z</time>
      </trkpt>
      <trkpt lat="45.89131" lon="4.76792">
        <ele>201.53</ele>
        <time>2015-09-06T07:15:06Z</time>
      </trkpt>
      <trkpt lat="45.89214" lon="4.76806">
        <ele>200.57</ele>
        <time>2015-09-06T07:15:22Z</time>
      </trkpt>
      <trkpt lat="45.89301" lon="4.76822">
        <ele>200.09</ele>
        <time>2015-09-06T07:15:39Z</time>
      </trkpt>
      <trkpt lat="45.89355" lon="4.76828">
        <ele>199.61</ele>
        <time>2015-09-06T07:15:50Z</time>
      </trkpt>
      <trkpt lat="45.8936" lon="4.76827">
        <ele>200.09</ele>
        <time>2015-09-06T07:15:51Z</time>
      </trkpt>
      <trkpt lat="45.89365" lon="4.76825">
        <ele>200.09</ele>
        <time>2015-09-06T07:15:52Z</time>
      </trkpt>
      <trkpt lat="45.89369" lon="4.76824">
        <ele>200.09</ele>
        <time>2015-09-06T07:15:53Z</time>
      </trkpt>
      <trkpt lat="45.89373" lon="4.76821">
        <ele>200.57</ele>
        <time>2015-09-06T07:15:54Z</time>
      </trkpt>
      <trkpt lat="45.89377" lon="4.76819">
        <ele>200.57</ele>
        <time>2015-09-06T07:15:55Z</time>
      </trkpt>
      <trkpt lat="45.8938" lon="4.76815">
        <ele>201.05</ele>
        <time>2015-09-06T07:15:56Z</time>
      </trkpt>
      <trkpt lat="45.89383" lon="4.76812">
        <ele>201.05</ele>
        <time>2015-09-06T07:15:57Z</time>
      </trkpt>
      <trkpt lat="45.89398" lon="4.76796">
        <ele>200.57</ele>
        <time>2015-09-06T07:16:04Z</time>
      </trkpt>
      <trkpt lat="45.89398" lon="4.76792">
        <ele>200.09</ele>
        <time>2015-09-06T07:16:05Z</time>
      </trkpt>
      <trkpt lat="45.89397" lon="4.76787">
        <ele>200.09</ele>
        <time>2015-09-06T07:16:06Z</time>
      </trkpt>
      <trkpt lat="45.89361" lon="4.76713">
        <ele>196.73</ele>
        <time>2015-09-06T07:16:18Z</time>
      </trkpt>
      <trkpt lat="45.89359" lon="4.76704">
        <ele>196.25</ele>
        <time>2015-09-06T07:16:19Z</time>
      </trkpt>
      <trkpt lat="45.89359" lon="4.76695">
        <ele>196.25</ele>
        <time>2015-09-06T07:16:20Z</time>
      </trkpt>
      <trkpt lat="45.89359" lon="4.76686">
        <ele>195.77</ele>
        <time>2015-09-06T07:16:21Z</time>
      </trkpt>
      <trkpt lat="45.8936" lon="4.76678">
        <ele>195.77</ele>
        <time>2015-09-06T07:16:22Z</time>
      </trkpt>
      <trkpt lat="45.89366" lon="4.76577">
        <ele>195.77</ele>
        <time>2015-09-06T07:16:36Z</time>
      </trkpt>
      <trkpt lat="45.89364" lon="4.76533">
        <ele>194.8</ele>
        <time>2015-09-06T07:16:42Z</time>
      </trkpt>
      <trkpt lat="45.89362" lon="4.76526">
        <ele>194.8</ele>
        <time>2015-09-06T07:16:43Z</time>
      </trkpt>
      <trkpt lat="45.89358" lon="4.76521">
        <ele>194.8</ele>
        <time>2015-09-06T07:16:44Z</time>
      </trkpt>
      <trkpt lat="45.89354" lon="4.76518">
        <ele>195.28</ele>
        <time>2015-09-06T07:16:45Z</time>
      </trkpt>
      <trkpt lat="45.8935" lon="4.76515">
        <ele>195.28</ele>
        <time>2015-09-06T07:16:46Z</time>
      </trkpt>
      <trkpt lat="45.89323" lon="4.76503">
        <ele>194.8</ele>
        <time>2015-09-06T07:16:52Z</time>
      </trkpt>
      <trkpt lat="45.89253" lon="4.7648">
        <ele>195.77</ele>
        <time>2015-09-06T07:17:07Z</time>
      </trkpt>
      <trkpt lat="45.89249" lon="4.76477">
        <ele>195.77</ele>
        <time>2015-09-06T07:17:08Z</time>
      </trkpt>
      <trkpt lat="45.89245" lon="4.76473">
        <ele>195.77</ele>
        <time>2015-09-06T07:17:09Z</time>
      </trkpt>
      <trkpt lat="45.89241" lon="4.76469">
        <ele>195.77</ele>
        <time>2015-09-06T07:17:10Z</time>
      </trkpt>
      <trkpt lat="45.89237" lon="4.76465">
        <ele>195.77</ele>
        <time>2015-09-06T07:17:11Z</time>
      </trkpt>
      <trkpt lat="45.89196" lon="4.76395">
        <ele>195.28</ele>
        <time>2015-09-06T07:17:25Z</time>
      </trkpt>
      <trkpt lat="45.89192" lon="4.76385">
        <ele>195.28</ele>
        <time>2015-09-06T07:17:27Z</time>
      </trkpt>
      <trkpt lat="45.89192" lon="4.7638">
        <ele>195.77</ele>
        <time>2015-09-06T07:17:28Z</time>
      </trkpt>
      <trkpt lat="45.89194" lon="4.76376">
        <ele>195.28</ele>
        <time>2015-09-06T07:17:29Z</time>
      </trkpt>
      <trkpt lat="45.89197" lon="4.76374">
        <ele>195.28</ele>
        <time>2015-09-06T07:17:30Z</time>
      </trkpt>
      <trkpt lat="45.89201" lon="4.76372">
        <ele>195.28</ele>
        <time>2015-09-06T07:17:31Z</time>
      </trkpt>
      <trkpt lat="45.89267" lon="4.76343">
        <ele>195.77</ele>
        <time>2015-09-06T07:17:45Z</time>
      </trkpt>
      <trkpt lat="45.89339" lon="4.76335">
        <ele>195.28</ele>
        <time>2015-09-06T07:17:59Z</time>
      </trkpt>
      <trkpt lat="45.89403" lon="4.76302">
        <ele>195.77</ele>
        <time>2015-09-06T07:18:14Z</time>
      </trkpt>
      <trkpt lat="45.89407" lon="4.763">
        <ele>195.77</ele>
        <time>2015-09-06T07:18:15Z</time>
      </trkpt>
      <trkpt lat="45.89412" lon="4.76298">
        <ele>195.77</ele>
        <time>2015-09-06T07:18:16Z</time>
      </trkpt>
      <trkpt lat="45.89416" lon="4.76297">
        <ele>195.28</ele>
        <time>2015-09-06T07:18:17Z</time>
      </trkpt>
      <trkpt lat="45.89421" lon="4.76296">
        <ele>195.28</ele>
        <time>2015-09-06T07:18:18Z</time>
      </trkpt>
      <trkpt lat="45.89426" lon="4.76296">
        <ele>195.28</ele>
        <time>2015-09-06T07:18:19Z</time>
      </trkpt>
      <trkpt lat="45.8943" lon="4.76297">
        <ele>195.28</ele>
        <time>2015-09-06T07:18:20Z</time>
      </trkpt>
      <trkpt lat="45.89439" lon="4.763">
        <ele>195.28</ele>
        <time>2015-09-06T07:18:22Z</time>
      </trkpt>
      <trkpt lat="45.89444" lon="4.76302">
        <ele>195.28</ele>
        <time>2015-09-06T07:18:23Z</time>
      </trkpt>
      <trkpt lat="45.89447" lon="4.76306">
        <ele>195.77</ele>
        <time>2015-09-06T07:18:24Z</time>
      </trkpt>
      <trkpt lat="45.89481" lon="4.76334">
        <ele>195.77</ele>
        <time>2015-09-06T07:18:33Z</time>
      </trkpt>
      <trkpt lat="45.89485" lon="4.76335">
        <ele>196.25</ele>
        <time>2015-09-06T07:18:34Z</time>
      </trkpt>
      <trkpt lat="45.89498" lon="4.76338">
        <ele>196.25</ele>
        <time>2015-09-06T07:18:37Z</time>
      </trkpt>
      <trkpt lat="45.89503" lon="4.76338">
        <ele>196.25</ele>
        <time>2015-09-06T07:18:38Z</time>
      </trkpt>
      <trkpt lat="45.89507" lon="4.76338">
        <ele>195.77</ele>
        <time>2015-09-06T07:18:39Z</time>
      </trkpt>
      <trkpt lat="45.89522" lon="4.7634">
        <ele>196.25</ele>
        <time>2015-09-06T07:18:42Z</time>
      </trkpt>
      <trkpt lat="45.89533" lon="4.76343">
        <ele>196.25</ele>
        <time>2015-09-06T07:18:44Z</time>
      </trkpt>
      <trkpt lat="45.8959" lon="4.76362">
        <ele>196.73</ele>
        <time>2015-09-06T07:18:54Z</time>
      </trkpt>
      <trkpt lat="45.89628" lon="4.76374">
        <ele>197.21</ele>
        <time>2015-09-06T07:19:02Z</time>
      </trkpt>
      <trkpt lat="45.89642" lon="4.76377">
        <ele>196.73</ele>
        <time>2015-09-06T07:19:05Z</time>
      </trkpt>
      <trkpt lat="45.89647" lon="4.76375">
        <ele>196.73</ele>
        <time>2015-09-06T07:19:06Z</time>
      </trkpt>
      <trkpt lat="45.8965" lon="4.7637">
        <ele>196.73</ele>
        <time>2015-09-06T07:19:07Z</time>
      </trkpt>
      <trkpt lat="45.89652" lon="4.76365">
        <ele>197.21</ele>
        <time>2015-09-06T07:19:08Z</time>
      </trkpt>
      <trkpt lat="45.89654" lon="4.76359">
        <ele>197.21</ele>
        <time>2015-09-06T07:19:09Z</time>
      </trkpt>
      <trkpt lat="45.89685" lon="4.76266">
        <ele>196.73</ele>
        <time>2015-09-06T07:19:24Z</time>
      </trkpt>
      <trkpt lat="45.89719" lon="4.76163">
        <ele>197.69</ele>
        <time>2015-09-06T07:19:40Z</time>
      </trkpt>
      <trkpt lat="45.89751" lon="4.7608">
        <ele>197.21</ele>
        <time>2015-09-06T07:19:53Z</time>
      </trkpt>
      <trkpt lat="45.89792" lon="4.75968">
        <ele>195.28</ele>
        <time>2015-09-06T07:20:12Z</time>
      </trkpt>
      <trkpt lat="45.89796" lon="4.75955">
        <ele>195.28</ele>
        <time>2015-09-06T07:20:14Z</time>
      </trkpt>
      <trkpt lat="45.89814" lon="4.75892">
        <ele>194.32</ele>
        <time>2015-09-06T07:20:24Z</time>
      </trkpt>
      <trkpt lat="45.89868" lon="4.75809">
        <ele>193.84</ele>
        <time>2015-09-06T07:20:39Z</time>
      </trkpt>
      <trkpt lat="45.89945" lon="4.75763">
        <ele>192.88</ele>
        <time>2015-09-06T07:20:54Z</time>
      </trkpt>
      <trkpt lat="45.90012" lon="4.75735">
        <ele>193.36</ele>
        <time>2015-09-06T07:21:07Z</time>
      </trkpt>
      <trkpt lat="45.90022" lon="4.75736">
        <ele>193.36</ele>
        <time>2015-09-06T07:21:09Z</time>
      </trkpt>
      <trkpt lat="45.90027" lon="4.75737">
        <ele>193.36</ele>
        <time>2015-09-06T07:21:10Z</time>
      </trkpt>
      <trkpt lat="45.90048" lon="4.75746">
        <ele>193.36</ele>
        <time>2015-09-06T07:21:14Z</time>
      </trkpt>
      <trkpt lat="45.90131" lon="4.75791">
        <ele>191.92</ele>
        <time>2015-09-06T07:21:30Z</time>
      </trkpt>
      <trkpt lat="45.90153" lon="4.75801">
        <ele>192.4</ele>
        <time>2015-09-06T07:21:34Z</time>
      </trkpt>
      <trkpt lat="45.90158" lon="4.75802">
        <ele>192.4</ele>
        <time>2015-09-06T07:21:35Z</time>
      </trkpt>
      <trkpt lat="45.90257" lon="4.75826">
        <ele>190.96</ele>
        <time>2015-09-06T07:21:52Z</time>
      </trkpt>
      <trkpt lat="45.90298" lon="4.75833">
        <ele>190.96</ele>
        <time>2015-09-06T07:21:59Z</time>
      </trkpt>
      <trkpt lat="45.90304" lon="4.75836">
        <ele>190.96</ele>
        <time>2015-09-06T07:22:00Z</time>
      </trkpt>
      <trkpt lat="45.90309" lon="4.7584">
        <ele>190.96</ele>
        <time>2015-09-06T07:22:01Z</time>
      </trkpt>
      <trkpt lat="45.90314" lon="4.75846">
        <ele>190.96</ele>
        <time>2015-09-06T07:22:02Z</time>
      </trkpt>
      <trkpt lat="45.90318" lon="4.75853">
        <ele>190.48</ele>
        <time>2015-09-06T07:22:03Z</time>
      </trkpt>
      <trkpt lat="45.90322" lon="4.7586">
        <ele>190.48</ele>
        <time>2015-09-06T07:22:04Z</time>
      </trkpt>
      <trkpt lat="45.9036" lon="4.75937">
        <ele>190</ele>
        <time>2015-09-06T07:22:14Z</time>
      </trkpt>
      <trkpt lat="45.90366" lon="4.75942">
        <ele>190</ele>
        <time>2015-09-06T07:22:15Z</time>
      </trkpt>
      <trkpt lat="45.90372" lon="4.75944">
        <ele>190</ele>
        <time>2015-09-06T07:22:16Z</time>
      </trkpt>
      <trkpt lat="45.90379" lon="4.75945">
        <ele>190</ele>
        <time>2015-09-06T07:22:17Z</time>
      </trkpt>
      <trkpt lat="45.90386" lon="4.75944">
        <ele>190</ele>
        <time>2015-09-06T07:22:18Z</time>
      </trkpt>
      <trkpt lat="45.90393" lon="4.75942">
        <ele>190</ele>
        <time>2015-09-06T07:22:19Z</time>
      </trkpt>
      <trkpt lat="45.90514" lon="4.75927">
        <ele>188.08</ele>
        <time>2015-09-06T07:22:36Z</time>
      </trkpt>
      <trkpt lat="45.90521" lon="4.75929">
        <ele>187.59</ele>
        <time>2015-09-06T07:22:37Z</time>
      </trkpt>
      <trkpt lat="45.90527" lon="4.75931">
        <ele>187.59</ele>
        <time>2015-09-06T07:22:38Z</time>
      </trkpt>
      <trkpt lat="45.90533" lon="4.75935">
        <ele>187.11</ele>
        <time>2015-09-06T07:22:39Z</time>
      </trkpt>
      <trkpt lat="45.90536" lon="4.75942">
        <ele>187.11</ele>
        <time>2015-09-06T07:22:40Z</time>
      </trkpt>
      <trkpt lat="45.90535" lon="4.75949">
        <ele>187.11</ele>
        <time>2015-09-06T07:22:41Z</time>
      </trkpt>
      <trkpt lat="45.90531" lon="4.75955">
        <ele>187.11</ele>
        <time>2015-09-06T07:22:42Z</time>
      </trkpt>
      <trkpt lat="45.90526" lon="4.75961">
        <ele>187.11</ele>
        <time>2015-09-06T07:22:43Z</time>
      </trkpt>
      <trkpt lat="45.90522" lon="4.75967">
        <ele>186.63</ele>
        <time>2015-09-06T07:22:44Z</time>
      </trkpt>
      <trkpt lat="45.90518" lon="4.75974">
        <ele>186.63</ele>
        <time>2015-09-06T07:22:45Z</time>
      </trkpt>
      <trkpt lat="45.90515" lon="4.75982">
        <ele>186.63</ele>
        <time>2015-09-06T07:22:46Z</time>
      </trkpt>
      <trkpt lat="45.90513" lon="4.75991">
        <ele>186.63</ele>
        <time>2015-09-06T07:22:47Z</time>
      </trkpt>
      <trkpt lat="45.90511" lon="4.76001">
        <ele>186.63</ele>
        <time>2015-09-06T07:22:48Z</time>
      </trkpt>
      <trkpt lat="45.90504" lon="4.76048">
        <ele>186.15</ele>
        <time>2015-09-06T07:22:53Z</time>
      </trkpt>
      <trkpt lat="45.90498" lon="4.76065">
        <ele>185.67</ele>
        <time>2015-09-06T07:22:55Z</time>
      </trkpt>
      <trkpt lat="45.90437" lon="4.76157">
        <ele>187.11</ele>
        <time>2015-09-06T07:23:09Z</time>
      </trkpt>
      <trkpt lat="45.9038" lon="4.76227">
        <ele>189.04</ele>
        <time>2015-09-06T07:23:22Z</time>
      </trkpt>
      <trkpt lat="45.90299" lon="4.7631">
        <ele>191.44</ele>
        <time>2015-09-06T07:23:39Z</time>
      </trkpt>
      <trkpt lat="45.90228" lon="4.76393">
        <ele>193.36</ele>
        <time>2015-09-06T07:23:55Z</time>
      </trkpt>
      <trkpt lat="45.90147" lon="4.76499">
        <ele>193.36</ele>
        <time>2015-09-06T07:24:13Z</time>
      </trkpt>
      <trkpt lat="45.90076" lon="4.76622">
        <ele>191.44</ele>
        <time>2015-09-06T07:24:30Z</time>
      </trkpt>
      <trkpt lat="45.90032" lon="4.76709">
        <ele>188.08</ele>
        <time>2015-09-06T07:24:41Z</time>
      </trkpt>
      <trkpt lat="45.90027" lon="4.76715">
        <ele>188.08</ele>
        <time>2015-09-06T07:24:42Z</time>
      </trkpt>
      <trkpt lat="45.90022" lon="4.76719">
        <ele>188.08</ele>
        <time>2015-09-06T07:24:43Z</time>
      </trkpt>
      <trkpt lat="45.90016" lon="4.76723">
        <ele>188.08</ele>
        <time>2015-09-06T07:24:44Z</time>
      </trkpt>
      <trkpt lat="45.90011" lon="4.76726">
        <ele>188.08</ele>
        <time>2015-09-06T07:24:45Z</time>
      </trkpt>
      <trkpt lat="45.90005" lon="4.76728">
        <ele>187.59</ele>
        <time>2015-09-06T07:24:46Z</time>
      </trkpt>
      <trkpt lat="45.89988" lon="4.76733">
        <ele>188.08</ele>
        <time>2015-09-06T07:24:49Z</time>
      </trkpt>
      <trkpt lat="45.89982" lon="4.76736">
        <ele>188.56</ele>
        <time>2015-09-06T07:24:50Z</time>
      </trkpt>
      <trkpt lat="45.89977" lon="4.76739">
        <ele>189.04</ele>
        <time>2015-09-06T07:24:51Z</time>
      </trkpt>
      <trkpt lat="45.89917" lon="4.76804">
        <ele>194.32</ele>
        <time>2015-09-06T07:25:05Z</time>
      </trkpt>
      <trkpt lat="45.89862" lon="4.76858">
        <ele>196.73</ele>
        <time>2015-09-06T07:25:20Z</time>
      </trkpt>
      <trkpt lat="45.89792" lon="4.76934">
        <ele>197.69</ele>
        <time>2015-09-06T07:25:38Z</time>
      </trkpt>
      <trkpt lat="45.8972" lon="4.7702">
        <ele>196.73</ele>
        <time>2015-09-06T07:25:54Z</time>
      </trkpt>
      <trkpt lat="45.89717" lon="4.77028">
        <ele>196.25</ele>
        <time>2015-09-06T07:25:55Z</time>
      </trkpt>
      <trkpt lat="45.89714" lon="4.77037">
        <ele>195.77</ele>
        <time>2015-09-06T07:25:56Z</time>
      </trkpt>
      <trkpt lat="45.89711" lon="4.77046">
        <ele>195.77</ele>
        <time>2015-09-06T07:25:57Z</time>
      </trkpt>
      <trkpt lat="45.89709" lon="4.77055">
        <ele>195.77</ele>
        <time>2015-09-06T07:25:58Z</time>
      </trkpt>
      <trkpt lat="45.89692" lon="4.77191">
        <ele>191.92</ele>
        <time>2015-09-06T07:26:12Z</time>
      </trkpt>
      <trkpt lat="45.89686" lon="4.77248">
        <ele>190.48</ele>
        <time>2015-09-06T07:26:18Z</time>
      </trkpt>
      <trkpt lat="45.89671" lon="4.7729">
        <ele>189.52</ele>
        <time>2015-09-06T07:26:23Z</time>
      </trkpt>
      <trkpt lat="45.89667" lon="4.77298">
        <ele>189.52</ele>
        <time>2015-09-06T07:26:24Z</time>
      </trkpt>
      <trkpt lat="45.89664" lon="4.77306">
        <ele>189.52</ele>
        <time>2015-09-06T07:26:25Z</time>
      </trkpt>
      <trkpt lat="45.89654" lon="4.77337">
        <ele>189.04</ele>
        <time>2015-09-06T07:26:29Z</time>
      </trkpt>
      <trkpt lat="45.89651" lon="4.77344">
        <ele>189.04</ele>
        <time>2015-09-06T07:26:30Z</time>
      </trkpt>
      <trkpt lat="45.89647" lon="4.77348">
        <ele>189.04</ele>
        <time>2015-09-06T07:26:31Z</time>
      </trkpt>
      <trkpt lat="45.89637" lon="4.77359">
        <ele>188.56</ele>
        <time>2015-09-06T07:26:33Z</time>
      </trkpt>
      <trkpt lat="45.89633" lon="4.77365">
        <ele>188.56</ele>
        <time>2015-09-06T07:26:34Z</time>
      </trkpt>
      <trkpt lat="45.89629" lon="4.77372">
        <ele>188.56</ele>
        <time>2015-09-06T07:26:35Z</time>
      </trkpt>
      <trkpt lat="45.89626" lon="4.7738">
        <ele>189.04</ele>
        <time>2015-09-06T07:26:36Z</time>
      </trkpt>
      <trkpt lat="45.89623" lon="4.77388">
        <ele>189.52</ele>
        <time>2015-09-06T07:26:37Z</time>
      </trkpt>
      <trkpt lat="45.89611" lon="4.77409">
        <ele>190.48</ele>
        <time>2015-09-06T07:26:40Z</time>
      </trkpt>
      <trkpt lat="45.89531" lon="4.77499">
        <ele>195.77</ele>
        <time>2015-09-06T07:26:58Z</time>
      </trkpt>
      <trkpt lat="45.89449" lon="4.77592">
        <ele>196.73</ele>
        <time>2015-09-06T07:27:16Z</time>
      </trkpt>
      <trkpt lat="45.89433" lon="4.77624">
        <ele>196.73</ele>
        <time>2015-09-06T07:27:21Z</time>
      </trkpt>
      <trkpt lat="45.89429" lon="4.7763">
        <ele>196.25</ele>
        <time>2015-09-06T07:27:22Z</time>
      </trkpt>
      <trkpt lat="45.89397" lon="4.77684">
        <ele>196.25</ele>
        <time>2015-09-06T07:27:31Z</time>
      </trkpt>
      <trkpt lat="45.89391" lon="4.77695">
        <ele>196.25</ele>
        <time>2015-09-06T07:27:33Z</time>
      </trkpt>
      <trkpt lat="45.89387" lon="4.77701">
        <ele>196.25</ele>
        <time>2015-09-06T07:27:34Z</time>
      </trkpt>
      <trkpt lat="45.89365" lon="4.77741">
        <ele>196.73</ele>
        <time>2015-09-06T07:27:41Z</time>
      </trkpt>
      <trkpt lat="45.89362" lon="4.77746">
        <ele>196.73</ele>
        <time>2015-09-06T07:27:42Z</time>
      </trkpt>
      <trkpt lat="45.89348" lon="4.77769">
        <ele>196.73</ele>
        <time>2015-09-06T07:27:46Z</time>
      </trkpt>
      <trkpt lat="45.89321" lon="4.77823">
        <ele>197.69</ele>
        <time>2015-09-06T07:27:55Z</time>
      </trkpt>
      <trkpt lat="45.89297" lon="4.77902">
        <ele>197.69</ele>
        <time>2015-09-06T07:28:06Z</time>
      </trkpt>
      <trkpt lat="45.8927" lon="4.7796">
        <ele>198.17</ele>
        <time>2015-09-06T07:28:15Z</time>
      </trkpt>
      <trkpt lat="45.89266" lon="4.77966">
        <ele>198.17</ele>
        <time>2015-09-06T07:28:16Z</time>
      </trkpt>
      <trkpt lat="45.89262" lon="4.77971">
        <ele>197.69</ele>
        <time>2015-09-06T07:28:17Z</time>
      </trkpt>
      <trkpt lat="45.89257" lon="4.77975">
        <ele>197.69</ele>
        <time>2015-09-06T07:28:18Z</time>
      </trkpt>
      <trkpt lat="45.89253" lon="4.77979">
        <ele>198.17</ele>
        <time>2015-09-06T07:28:19Z</time>
      </trkpt>
      <trkpt lat="45.89248" lon="4.77982">
        <ele>198.17</ele>
        <time>2015-09-06T07:28:20Z</time>
      </trkpt>
      <trkpt lat="45.89218" lon="4.78002">
        <ele>198.17</ele>
        <time>2015-09-06T07:28:26Z</time>
      </trkpt>
      <trkpt lat="45.89213" lon="4.78004">
        <ele>198.65</ele>
        <time>2015-09-06T07:28:27Z</time>
      </trkpt>
      <trkpt lat="45.89208" lon="4.78004">
        <ele>198.65</ele>
        <time>2015-09-06T07:28:28Z</time>
      </trkpt>
      <trkpt lat="45.89102" lon="4.77997">
        <ele>199.61</ele>
        <time>2015-09-06T07:28:47Z</time>
      </trkpt>
      <trkpt lat="45.89097" lon="4.77998">
        <ele>199.61</ele>
        <time>2015-09-06T07:28:48Z</time>
      </trkpt>
      <trkpt lat="45.8901" lon="4.7803">
        <ele>200.57</ele>
        <time>2015-09-06T07:29:04Z</time>
      </trkpt>
      <trkpt lat="45.88959" lon="4.78061">
        <ele>201.05</ele>
        <time>2015-09-06T07:29:14Z</time>
      </trkpt>
      <trkpt lat="45.88953" lon="4.78061">
        <ele>201.05</ele>
        <time>2015-09-06T07:29:15Z</time>
      </trkpt>
      <trkpt lat="45.88948" lon="4.78057">
        <ele>201.05</ele>
        <time>2015-09-06T07:29:16Z</time>
      </trkpt>
      <trkpt lat="45.88945" lon="4.7805">
        <ele>201.05</ele>
        <time>2015-09-06T07:29:17Z</time>
      </trkpt>
      <trkpt lat="45.88943" lon="4.78043">
        <ele>201.05</ele>
        <time>2015-09-06T07:29:18Z</time>
      </trkpt>
      <trkpt lat="45.88942" lon="4.78035">
        <ele>201.53</ele>
        <time>2015-09-06T07:29:19Z</time>
      </trkpt>
      <trkpt lat="45.88927" lon="4.77901">
        <ele>201.05</ele>
        <time>2015-09-06T07:29:36Z</time>
      </trkpt>
      <trkpt lat="45.88897" lon="4.77801">
        <ele>201.53</ele>
        <time>2015-09-06T07:29:50Z</time>
      </trkpt>
      <trkpt lat="45.88892" lon="4.77798">
        <ele>202.01</ele>
        <time>2015-09-06T07:29:51Z</time>
      </trkpt>
      <trkpt lat="45.88887" lon="4.77799">
        <ele>202.01</ele>
        <time>2015-09-06T07:29:52Z</time>
      </trkpt>
      <trkpt lat="45.88881" lon="4.77801">
        <ele>202.01</ele>
        <time>2015-09-06T07:29:53Z</time>
      </trkpt>
      <trkpt lat="45.88876" lon="4.77804">
        <ele>202.01</ele>
        <time>2015-09-06T07:29:54Z</time>
      </trkpt>
      <trkpt lat="45.8887" lon="4.77807">
        <ele>201.53</ele>
        <time>2015-09-06T07:29:55Z</time>
      </trkpt>
      <trkpt lat="45.88865" lon="4.77809">
        <ele>201.53</ele>
        <time>2015-09-06T07:29:56Z</time>
      </trkpt>
      <trkpt lat="45.88826" lon="4.77821">
        <ele>202.01</ele>
        <time>2015-09-06T07:30:03Z</time>
      </trkpt>
      <trkpt lat="45.88804" lon="4.77824">
        <ele>202.49</ele>
        <time>2015-09-06T07:30:07Z</time>
      </trkpt>
      <trkpt lat="45.88798" lon="4.77825">
        <ele>202.01</ele>
        <time>2015-09-06T07:30:08Z</time>
      </trkpt>
      <trkpt lat="45.8872" lon="4.77838">
        <ele>202.98</ele>
        <time>2015-09-06T07:30:23Z</time>
      </trkpt>
      <trkpt lat="45.88635" lon="4.77856">
        <ele>204.42</ele>
        <time>2015-09-06T07:30:40Z</time>
      </trkpt>
      <trkpt lat="45.8862" lon="4.77859">
        <ele>205.38</ele>
        <time>2015-09-06T07:30:43Z</time>
      </trkpt>
      <trkpt lat="45.88605" lon="4.7786">
        <ele>205.86</ele>
        <time>2015-09-06T07:30:46Z</time>
      </trkpt>
      <trkpt lat="45.886" lon="4.77862">
        <ele>206.34</ele>
        <time>2015-09-06T07:30:47Z</time>
      </trkpt>
      <trkpt lat="45.88556" lon="4.77876">
        <ele>207.78</ele>
        <time>2015-09-06T07:30:56Z</time>
      </trkpt>
      <trkpt lat="45.88481" lon="4.77896">
        <ele>209.22</ele>
        <time>2015-09-06T07:31:12Z</time>
      </trkpt>
      <trkpt lat="45.88468" lon="4.77899">
        <ele>209.22</ele>
        <time>2015-09-06T07:31:15Z</time>
      </trkpt>
      <trkpt lat="45.8844" lon="4.77901">
        <ele>210.19</ele>
        <time>2015-09-06T07:31:21Z</time>
      </trkpt>
      <trkpt lat="45.88377" lon="4.77898">
        <ele>212.11</ele>
        <time>2015-09-06T07:31:35Z</time>
      </trkpt>
      <trkpt lat="45.88364" lon="4.779">
        <ele>212.59</ele>
        <time>2015-09-06T07:31:38Z</time>
      </trkpt>
      <trkpt lat="45.88359" lon="4.77902">
        <ele>212.59</ele>
        <time>2015-09-06T07:31:39Z</time>
      </trkpt>
      <trkpt lat="45.88307" lon="4.77929">
        <ele>214.03</ele>
        <time>2015-09-06T07:31:51Z</time>
      </trkpt>
      <trkpt lat="45.88298" lon="4.77932">
        <ele>214.51</ele>
        <time>2015-09-06T07:31:53Z</time>
      </trkpt>
      <trkpt lat="45.8824" lon="4.77941">
        <ele>216.91</ele>
        <time>2015-09-06T07:32:06Z</time>
      </trkpt>
      <trkpt lat="45.88235" lon="4.77943">
        <ele>216.91</ele>
        <time>2015-09-06T07:32:07Z</time>
      </trkpt>
      <trkpt lat="45.8823" lon="4.77943">
        <ele>216.91</ele>
        <time>2015-09-06T07:32:08Z</time>
      </trkpt>
      <trkpt lat="45.88226" lon="4.77944">
        <ele>217.4</ele>
        <time>2015-09-06T07:32:09Z</time>
      </trkpt>
      <trkpt lat="45.88221" lon="4.77945">
        <ele>217.4</ele>
        <time>2015-09-06T07:32:10Z</time>
      </trkpt>
      <trkpt lat="45.88196" lon="4.7795">
        <ele>217.88</ele>
        <time>2015-09-06T07:32:16Z</time>
      </trkpt>
      <trkpt lat="45.88192" lon="4.77951">
        <ele>217.88</ele>
        <time>2015-09-06T07:32:17Z</time>
      </trkpt>
      <trkpt lat="45.88187" lon="4.77951">
        <ele>217.4</ele>
        <time>2015-09-06T07:32:18Z</time>
      </trkpt>
      <trkpt lat="45.88138" lon="4.77954">
        <ele>217.4</ele>
        <time>2015-09-06T07:32:29Z</time>
      </trkpt>
      <trkpt lat="45.88134" lon="4.77954">
        <ele>217.4</ele>
        <time>2015-09-06T07:32:30Z</time>
      </trkpt>
      <trkpt lat="45.88086" lon="4.77955">
        <ele>218.84</ele>
        <time>2015-09-06T07:32:41Z</time>
      </trkpt>
      <trkpt lat="45.8803" lon="4.77948">
        <ele>220.28</ele>
        <time>2015-09-06T07:32:54Z</time>
      </trkpt>
      <trkpt lat="45.88001" lon="4.77947">
        <ele>221.24</ele>
        <time>2015-09-06T07:33:01Z</time>
      </trkpt>
      <trkpt lat="45.8798" lon="4.77947">
        <ele>221.24</ele>
        <time>2015-09-06T07:33:06Z</time>
      </trkpt>
      <trkpt lat="45.87901" lon="4.77954">
        <ele>224.12</ele>
        <time>2015-09-06T07:33:24Z</time>
      </trkpt>
      <trkpt lat="45.87833" lon="4.77958">
        <ele>225.09</ele>
        <time>2015-09-06T07:33:40Z</time>
      </trkpt>
      <trkpt lat="45.87766" lon="4.77961">
        <ele>227.97</ele>
        <time>2015-09-06T07:33:56Z</time>
      </trkpt>
      <trkpt lat="45.87753" lon="4.7796">
        <ele>227.97</ele>
        <time>2015-09-06T07:33:59Z</time>
      </trkpt>
      <trkpt lat="45.87749" lon="4.77959">
        <ele>227.97</ele>
        <time>2015-09-06T07:34:00Z</time>
      </trkpt>
      <trkpt lat="45.8772" lon="4.77957">
        <ele>230.37</ele>
        <time>2015-09-06T07:34:07Z</time>
      </trkpt>
      <trkpt lat="45.87716" lon="4.77957">
        <ele>230.37</ele>
        <time>2015-09-06T07:34:08Z</time>
      </trkpt>
      <trkpt lat="45.87662" lon="4.77966">
        <ele>232.78</ele>
        <time>2015-09-06T07:34:21Z</time>
      </trkpt>
      <trkpt lat="45.87607" lon="4.77968">
        <ele>235.18</ele>
        <time>2015-09-06T07:34:34Z</time>
      </trkpt>
      <trkpt lat="45.87576" lon="4.77967">
        <ele>237.58</ele>
        <time>2015-09-06T07:34:42Z</time>
      </trkpt>
      <trkpt lat="45.87573" lon="4.77966">
        <ele>238.06</ele>
        <time>2015-09-06T07:34:43Z</time>
      </trkpt>
      <trkpt lat="45.8757" lon="4.77965">
        <ele>238.06</ele>
        <time>2015-09-06T07:34:44Z</time>
      </trkpt>
      <trkpt lat="45.87567" lon="4.77964">
        <ele>238.54</ele>
        <time>2015-09-06T07:34:45Z</time>
      </trkpt>
      <trkpt lat="45.87563" lon="4.77963">
        <ele>239.02</ele>
        <time>2015-09-06T07:34:46Z</time>
      </trkpt>
      <trkpt lat="45.8756" lon="4.77963">
        <ele>239.02</ele>
        <time>2015-09-06T07:34:47Z</time>
      </trkpt>
      <trkpt lat="45.87556" lon="4.77962">
        <ele>239.51</ele>
        <time>2015-09-06T07:34:48Z</time>
      </trkpt>
      <trkpt lat="45.87553" lon="4.77961">
        <ele>240.47</ele>
        <time>2015-09-06T07:34:49Z</time>
      </trkpt>
      <trkpt lat="45.87502" lon="4.77964">
        <ele>243.83</ele>
        <time>2015-09-06T07:35:03Z</time>
      </trkpt>
      <trkpt lat="45.87493" lon="4.77964">
        <ele>243.35</ele>
        <time>2015-09-06T07:35:06Z</time>
      </trkpt>
      <trkpt lat="45.87452" lon="4.77978">
        <ele>244.31</ele>
        <time>2015-09-06T07:35:20Z</time>
      </trkpt>
      <trkpt lat="45.87435" lon="4.78">
        <ele>245.27</ele>
        <time>2015-09-06T07:35:28Z</time>
      </trkpt>
      <trkpt lat="45.87436" lon="4.78004">
        <ele>245.75</ele>
        <time>2015-09-06T07:35:29Z</time>
      </trkpt>
      <trkpt lat="45.87437" lon="4.78009">
        <ele>246.23</ele>
        <time>2015-09-06T07:35:30Z</time>
      </trkpt>
      <trkpt lat="45.87438" lon="4.78013">
        <ele>246.23</ele>
        <time>2015-09-06T07:35:31Z</time>
      </trkpt>
      <trkpt lat="45.87439" lon="4.78017">
        <ele>246.72</ele>
        <time>2015-09-06T07:35:32Z</time>
      </trkpt>
      <trkpt lat="45.87457" lon="4.78076">
        <ele>249.12</ele>
        <time>2015-09-06T07:35:46Z</time>
      </trkpt>
      <trkpt lat="45.87468" lon="4.7815">
        <ele>249.12</ele>
        <time>2015-09-06T07:36:00Z</time>
      </trkpt>
      <trkpt lat="45.87485" lon="4.78225">
        <ele>248.16</ele>
        <time>2015-09-06T07:36:16Z</time>
      </trkpt>
      <trkpt lat="45.87499" lon="4.78292">
        <ele>247.68</ele>
        <time>2015-09-06T07:36:31Z</time>
      </trkpt>
      <trkpt lat="45.87488" lon="4.78336">
        <ele>249.12</ele>
        <time>2015-09-06T07:36:43Z</time>
      </trkpt>
      <trkpt lat="45.87459" lon="4.78354">
        <ele>252.48</ele>
        <time>2015-09-06T07:36:57Z</time>
      </trkpt>
      <trkpt lat="45.87452" lon="4.78356">
        <ele>253.44</ele>
        <time>2015-09-06T07:37:01Z</time>
      </trkpt>
      <trkpt lat="45.8745" lon="4.78356">
        <ele>253.93</ele>
        <time>2015-09-06T07:37:02Z</time>
      </trkpt>
      <trkpt lat="45.87448" lon="4.78357">
        <ele>254.41</ele>
        <time>2015-09-06T07:37:03Z</time>
      </trkpt>
      <trkpt lat="45.87447" lon="4.78357">
        <ele>254.41</ele>
        <time>2015-09-06T07:37:04Z</time>
      </trkpt>
      <trkpt lat="45.87445" lon="4.78357">
        <ele>254.89</ele>
        <time>2015-09-06T07:37:05Z</time>
      </trkpt>
      <trkpt lat="45.87443" lon="4.78358">
        <ele>255.37</ele>
        <time>2015-09-06T07:37:06Z</time>
      </trkpt>
      <trkpt lat="45.87441" lon="4.78358">
        <ele>255.37</ele>
        <time>2015-09-06T07:37:07Z</time>
      </trkpt>
      <trkpt lat="45.87412" lon="4.78361">
        <ele>258.25</ele>
        <time>2015-09-06T07:37:22Z</time>
      </trkpt>
      <trkpt lat="45.87384" lon="4.78357">
        <ele>261.14</ele>
        <time>2015-09-06T07:37:37Z</time>
      </trkpt>
      <trkpt lat="45.87355" lon="4.78344">
        <ele>263.06</ele>
        <time>2015-09-06T07:37:52Z</time>
      </trkpt>
      <trkpt lat="45.87325" lon="4.78328">
        <ele>267.38</ele>
        <time>2015-09-06T07:38:08Z</time>
      </trkpt>
      <trkpt lat="45.87293" lon="4.78325">
        <ele>270.75</ele>
        <time>2015-09-06T07:38:24Z</time>
      </trkpt>
      <trkpt lat="45.87256" lon="4.78324">
        <ele>274.59</ele>
        <time>2015-09-06T07:38:42Z</time>
      </trkpt>
      <trkpt lat="45.87223" lon="4.78327">
        <ele>274.59</ele>
        <time>2015-09-06T07:38:58Z</time>
      </trkpt>
      <trkpt lat="45.87195" lon="4.7833">
        <ele>275.07</ele>
        <time>2015-09-06T07:39:12Z</time>
      </trkpt>
      <trkpt lat="45.87162" lon="4.78338">
        <ele>275.07</ele>
        <time>2015-09-06T07:39:26Z</time>
      </trkpt>
      <trkpt lat="45.8714" lon="4.78348">
        <ele>276.52</ele>
        <time>2015-09-06T07:39:39Z</time>
      </trkpt>
      <trkpt lat="45.87119" lon="4.78359">
        <ele>280.84</ele>
        <time>2015-09-06T07:39:53Z</time>
      </trkpt>
      <trkpt lat="45.87101" lon="4.78374">
        <ele>284.21</ele>
        <time>2015-09-06T07:40:08Z</time>
      </trkpt>
      <trkpt lat="45.87083" lon="4.78391">
        <ele>289.01</ele>
        <time>2015-09-06T07:40:21Z</time>
      </trkpt>
      <trkpt lat="45.87068" lon="4.78407">
        <ele>292.86</ele>
        <time>2015-09-06T07:40:33Z</time>
      </trkpt>
      <trkpt lat="45.87053" lon="4.78423">
        <ele>295.74</ele>
        <time>2015-09-06T07:40:46Z</time>
      </trkpt>
      <trkpt lat="45.87035" lon="4.78438">
        <ele>295.26</ele>
        <time>2015-09-06T07:40:58Z</time>
      </trkpt>
      <trkpt lat="45.87034" lon="4.7844">
        <ele>295.26</ele>
        <time>2015-09-06T07:40:59Z</time>
      </trkpt>
      <trkpt lat="45.87021" lon="4.78452">
        <ele>295.74</ele>
        <time>2015-09-06T07:41:07Z</time>
      </trkpt>
      <trkpt lat="45.87018" lon="4.78454">
        <ele>295.74</ele>
        <time>2015-09-06T07:41:09Z</time>
      </trkpt>
      <trkpt lat="45.87017" lon="4.78456">
        <ele>295.74</ele>
        <time>2015-09-06T07:41:10Z</time>
      </trkpt>
      <trkpt lat="45.87006" lon="4.78469">
        <ele>295.26</ele>
        <time>2015-09-06T07:41:21Z</time>
      </trkpt>
      <trkpt lat="45.8699" lon="4.78479">
        <ele>297.67</ele>
        <time>2015-09-06T07:41:34Z</time>
      </trkpt>
      <trkpt lat="45.86979" lon="4.78485">
        <ele>299.11</ele>
        <time>2015-09-06T07:41:45Z</time>
      </trkpt>
      <trkpt lat="45.86965" lon="4.78493">
        <ele>302.95</ele>
        <time>2015-09-06T07:41:57Z</time>
      </trkpt>
      <trkpt lat="45.8695" lon="4.78504">
        <ele>305.84</ele>
        <time>2015-09-06T07:42:08Z</time>
      </trkpt>
      <trkpt lat="45.86938" lon="4.78515">
        <ele>310.16</ele>
        <time>2015-09-06T07:42:21Z</time>
      </trkpt>
      <trkpt lat="45.86922" lon="4.78525">
        <ele>314.97</ele>
        <time>2015-09-06T07:42:31Z</time>
      </trkpt>
      <trkpt lat="45.86913" lon="4.78531">
        <ele>317.37</ele>
        <time>2015-09-06T07:42:37Z</time>
      </trkpt>
      <trkpt lat="45.86894" lon="4.78543">
        <ele>319.78</ele>
        <time>2015-09-06T07:42:51Z</time>
      </trkpt>
      <trkpt lat="45.86882" lon="4.7855">
        <ele>321.22</ele>
        <time>2015-09-06T07:43:02Z</time>
      </trkpt>
      <trkpt lat="45.86873" lon="4.78557">
        <ele>323.62</ele>
        <time>2015-09-06T07:43:14Z</time>
      </trkpt>
      <trkpt lat="45.86864" lon="4.78562">
        <ele>325.06</ele>
        <time>2015-09-06T07:43:26Z</time>
      </trkpt>
      <trkpt lat="45.86842" lon="4.78582">
        <ele>328.91</ele>
        <time>2015-09-06T07:43:39Z</time>
      </trkpt>
      <trkpt lat="45.86829" lon="4.78593">
        <ele>332.27</ele>
        <time>2015-09-06T07:43:51Z</time>
      </trkpt>
      <trkpt lat="45.86817" lon="4.78598">
        <ele>334.68</ele>
        <time>2015-09-06T07:44:01Z</time>
      </trkpt>
      <trkpt lat="45.86815" lon="4.78599">
        <ele>335.16</ele>
        <time>2015-09-06T07:44:02Z</time>
      </trkpt>
      <trkpt lat="45.86802" lon="4.78603">
        <ele>339.96</ele>
        <time>2015-09-06T07:44:13Z</time>
      </trkpt>
      <trkpt lat="45.8679" lon="4.78604">
        <ele>345.25</ele>
        <time>2015-09-06T07:44:25Z</time>
      </trkpt>
      <trkpt lat="45.86781" lon="4.78604">
        <ele>347.65</ele>
        <time>2015-09-06T07:44:37Z</time>
      </trkpt>
      <trkpt lat="45.86769" lon="4.78605">
        <ele>349.1</ele>
        <time>2015-09-06T07:44:48Z</time>
      </trkpt>
      <trkpt lat="45.86758" lon="4.78618">
        <ele>349.1</ele>
        <time>2015-09-06T07:45:01Z</time>
      </trkpt>
      <trkpt lat="45.8676" lon="4.78619">
        <ele>350.06</ele>
        <time>2015-09-06T07:45:27Z</time>
      </trkpt>
      <trkpt lat="45.86758" lon="4.78621">
        <ele>349.58</ele>
        <time>2015-09-06T07:45:51Z</time>
      </trkpt>
      <trkpt lat="45.86756" lon="4.78621">
        <ele>348.13</ele>
        <time>2015-09-06T07:46:20Z</time>
      </trkpt>
      <trkpt lat="45.86756" lon="4.78621">
        <ele>348.13</ele>
        <time>2015-09-06T07:46:45Z</time>
      </trkpt>
      <trkpt lat="45.86754" lon="4.7862">
        <ele>347.65</ele>
        <time>2015-09-06T07:47:15Z</time>
      </trkpt>
      <trkpt lat="45.86756" lon="4.78621">
        <ele>347.65</ele>
        <time>2015-09-06T07:47:40Z</time>
      </trkpt>
      <trkpt lat="45.86758" lon="4.78623">
        <ele>347.17</ele>
        <time>2015-09-06T07:48:09Z</time>
      </trkpt>
      <trkpt lat="45.86758" lon="4.78624">
        <ele>347.17</ele>
        <time>2015-09-06T07:48:10Z</time>
      </trkpt>
      <trkpt lat="45.86773" lon="4.78631">
        <ele>346.21</ele>
        <time>2015-09-06T07:48:24Z</time>
      </trkpt>
      <trkpt lat="45.86776" lon="4.78633">
        <ele>346.21</ele>
        <time>2015-09-06T07:48:28Z</time>
      </trkpt>
      <trkpt lat="45.86783" lon="4.78634">
        <ele>346.69</ele>
        <time>2015-09-06T07:48:34Z</time>
      </trkpt>
      <trkpt lat="45.86784" lon="4.78635">
        <ele>346.69</ele>
        <time>2015-09-06T07:48:35Z</time>
      </trkpt>
      <trkpt lat="45.86786" lon="4.78636">
        <ele>346.69</ele>
        <time>2015-09-06T07:48:36Z</time>
      </trkpt>
      <trkpt lat="45.86798" lon="4.78643">
        <ele>346.21</ele>
        <time>2015-09-06T07:48:47Z</time>
      </trkpt>
      <trkpt lat="45.86816" lon="4.7865">
        <ele>345.25</ele>
        <time>2015-09-06T07:49:01Z</time>
      </trkpt>
      <trkpt lat="45.86832" lon="4.78655">
        <ele>346.21</ele>
        <time>2015-09-06T07:49:14Z</time>
      </trkpt>
      <trkpt lat="45.86835" lon="4.78655">
        <ele>346.69</ele>
        <time>2015-09-06T07:49:17Z</time>
      </trkpt>
      <trkpt lat="45.86853" lon="4.78665">
        <ele>350.06</ele>
        <time>2015-09-06T07:49:30Z</time>
      </trkpt>
      <trkpt lat="45.86858" lon="4.78668">
        <ele>351.98</ele>
        <time>2015-09-06T07:49:34Z</time>
      </trkpt>
      <trkpt lat="45.86876" lon="4.78667">
        <ele>357.27</ele>
        <time>2015-09-06T07:49:45Z</time>
      </trkpt>
      <trkpt lat="45.86892" lon="4.78676">
        <ele>362.07</ele>
        <time>2015-09-06T07:49:58Z</time>
      </trkpt>
      <trkpt lat="45.86894" lon="4.78678">
        <ele>362.55</ele>
        <time>2015-09-06T07:50:00Z</time>
      </trkpt>
      <trkpt lat="45.86895" lon="4.78678">
        <ele>363.04</ele>
        <time>2015-09-06T07:50:01Z</time>
      </trkpt>
      <trkpt lat="45.86896" lon="4.78679">
        <ele>363.52</ele>
        <time>2015-09-06T07:50:02Z</time>
      </trkpt>
      <trkpt lat="45.86898" lon="4.78679">
        <ele>363.52</ele>
        <time>2015-09-06T07:50:03Z</time>
      </trkpt>
      <trkpt lat="45.86899" lon="4.7868">
        <ele>364</ele>
        <time>2015-09-06T07:50:04Z</time>
      </trkpt>
      <trkpt lat="45.869" lon="4.78681">
        <ele>364</ele>
        <time>2015-09-06T07:50:05Z</time>
      </trkpt>
      <trkpt lat="45.86917" lon="4.78686">
        <ele>368.32</ele>
        <time>2015-09-06T07:50:18Z</time>
      </trkpt>
      <trkpt lat="45.86927" lon="4.78691">
        <ele>370.24</ele>
        <time>2015-09-06T07:50:31Z</time>
      </trkpt>
      <trkpt lat="45.86927" lon="4.78692">
        <ele>369.28</ele>
        <time>2015-09-06T07:50:53Z</time>
      </trkpt>
      <trkpt lat="45.86928" lon="4.78693">
        <ele>368.8</ele>
        <time>2015-09-06T07:51:23Z</time>
      </trkpt>
      <trkpt lat="45.86942" lon="4.78697">
        <ele>368.32</ele>
        <time>2015-09-06T07:51:34Z</time>
      </trkpt>
      <trkpt lat="45.86946" lon="4.78699">
        <ele>368.8</ele>
        <time>2015-09-06T07:51:37Z</time>
      </trkpt>
      <trkpt lat="45.86948" lon="4.787">
        <ele>368.8</ele>
        <time>2015-09-06T07:51:38Z</time>
      </trkpt>
      <trkpt lat="45.8695" lon="4.78701">
        <ele>368.32</ele>
        <time>2015-09-06T07:51:39Z</time>
      </trkpt>
      <trkpt lat="45.86951" lon="4.78702">
        <ele>368.8</ele>
        <time>2015-09-06T07:51:40Z</time>
      </trkpt>
      <trkpt lat="45.86953" lon="4.78703">
        <ele>368.8</ele>
        <time>2015-09-06T07:51:41Z</time>
      </trkpt>
      <trkpt lat="45.86955" lon="4.78703">
        <ele>368.8</ele>
        <time>2015-09-06T07:51:42Z</time>
      </trkpt>
      <trkpt lat="45.86956" lon="4.78704">
        <ele>368.8</ele>
        <time>2015-09-06T07:51:43Z</time>
      </trkpt>
      <trkpt lat="45.86958" lon="4.78704">
        <ele>368.8</ele>
        <time>2015-09-06T07:51:44Z</time>
      </trkpt>
      <trkpt lat="45.8696" lon="4.78704">
        <ele>369.28</ele>
        <time>2015-09-06T07:51:45Z</time>
      </trkpt>
      <trkpt lat="45.86962" lon="4.78705">
        <ele>368.8</ele>
        <time>2015-09-06T07:51:46Z</time>
      </trkpt>
      <trkpt lat="45.86966" lon="4.78709">
        <ele>369.28</ele>
        <time>2015-09-06T07:51:49Z</time>
      </trkpt>
      <trkpt lat="45.86967" lon="4.78711">
        <ele>369.76</ele>
        <time>2015-09-06T07:51:50Z</time>
      </trkpt>
      <trkpt lat="45.86968" lon="4.78713">
        <ele>369.76</ele>
        <time>2015-09-06T07:51:51Z</time>
      </trkpt>
      <trkpt lat="45.86969" lon="4.78715">
        <ele>370.24</ele>
        <time>2015-09-06T07:51:52Z</time>
      </trkpt>
      <trkpt lat="45.86969" lon="4.78717">
        <ele>370.73</ele>
        <time>2015-09-06T07:51:53Z</time>
      </trkpt>
      <trkpt lat="45.8697" lon="4.78719">
        <ele>370.73</ele>
        <time>2015-09-06T07:51:54Z</time>
      </trkpt>
      <trkpt lat="45.8697" lon="4.78721">
        <ele>371.21</ele>
        <time>2015-09-06T07:51:55Z</time>
      </trkpt>
      <trkpt lat="45.8697" lon="4.78723">
        <ele>371.69</ele>
        <time>2015-09-06T07:51:56Z</time>
      </trkpt>
      <trkpt lat="45.8697" lon="4.78729">
        <ele>372.17</ele>
        <time>2015-09-06T07:51:59Z</time>
      </trkpt>
      <trkpt lat="45.8697" lon="4.78731">
        <ele>372.65</ele>
        <time>2015-09-06T07:52:00Z</time>
      </trkpt>
      <trkpt lat="45.86962" lon="4.78742">
        <ele>376.49</ele>
        <time>2015-09-06T07:52:10Z</time>
      </trkpt>
      <trkpt lat="45.86948" lon="4.7875">
        <ele>380.82</ele>
        <time>2015-09-06T07:52:23Z</time>
      </trkpt>
      <trkpt lat="45.86936" lon="4.78755">
        <ele>384.66</ele>
        <time>2015-09-06T07:52:35Z</time>
      </trkpt>
      <trkpt lat="45.8692" lon="4.78763">
        <ele>387.07</ele>
        <time>2015-09-06T07:52:50Z</time>
      </trkpt>
      <trkpt lat="45.86908" lon="4.78769">
        <ele>389.47</ele>
        <time>2015-09-06T07:53:04Z</time>
      </trkpt>
      <trkpt lat="45.86892" lon="4.78775">
        <ele>391.39</ele>
        <time>2015-09-06T07:53:17Z</time>
      </trkpt>
      <trkpt lat="45.86879" lon="4.78782">
        <ele>391.39</ele>
        <time>2015-09-06T07:53:27Z</time>
      </trkpt>
      <trkpt lat="45.86864" lon="4.78793">
        <ele>392.84</ele>
        <time>2015-09-06T07:53:41Z</time>
      </trkpt>
      <trkpt lat="45.86848" lon="4.78802">
        <ele>396.2</ele>
        <time>2015-09-06T07:53:55Z</time>
      </trkpt>
      <trkpt lat="45.86832" lon="4.7881">
        <ele>397.16</ele>
        <time>2015-09-06T07:54:08Z</time>
      </trkpt>
      <trkpt lat="45.86817" lon="4.78817">
        <ele>399.08</ele>
        <time>2015-09-06T07:54:22Z</time>
      </trkpt>
      <trkpt lat="45.86803" lon="4.78821">
        <ele>400.53</ele>
        <time>2015-09-06T07:54:36Z</time>
      </trkpt>
      <trkpt lat="45.86792" lon="4.78824">
        <ele>401.49</ele>
        <time>2015-09-06T07:54:45Z</time>
      </trkpt>
      <trkpt lat="45.86779" lon="4.78828">
        <ele>404.37</ele>
        <time>2015-09-06T07:54:57Z</time>
      </trkpt>
      <trkpt lat="45.86775" lon="4.78827">
        <ele>405.33</ele>
        <time>2015-09-06T07:55:07Z</time>
      </trkpt>
      <trkpt lat="45.86763" lon="4.7883">
        <ele>408.7</ele>
        <time>2015-09-06T07:55:22Z</time>
      </trkpt>
      <trkpt lat="45.86764" lon="4.7883">
        <ele>408.22</ele>
        <time>2015-09-06T07:55:47Z</time>
      </trkpt>
      <trkpt lat="45.86763" lon="4.78831">
        <ele>408.22</ele>
        <time>2015-09-06T07:56:15Z</time>
      </trkpt>
      <trkpt lat="45.86763" lon="4.7883">
        <ele>409.18</ele>
        <time>2015-09-06T07:56:40Z</time>
      </trkpt>
      <trkpt lat="45.86763" lon="4.7883">
        <ele>409.66</ele>
        <time>2015-09-06T07:57:00Z</time>
      </trkpt>
      <trkpt lat="45.86764" lon="4.78828">
        <ele>409.18</ele>
        <time>2015-09-06T07:57:24Z</time>
      </trkpt>
      <trkpt lat="45.86763" lon="4.78829">
        <ele>411.1</ele>
        <time>2015-09-06T07:57:52Z</time>
      </trkpt>
      <trkpt lat="45.86765" lon="4.7884">
        <ele>411.1</ele>
        <time>2015-09-06T07:58:00Z</time>
      </trkpt>
      <trkpt lat="45.8677" lon="4.7885">
        <ele>412.54</ele>
        <time>2015-09-06T07:58:06Z</time>
      </trkpt>
      <trkpt lat="45.86772" lon="4.78862">
        <ele>413.5</ele>
        <time>2015-09-06T07:58:12Z</time>
      </trkpt>
      <trkpt lat="45.86772" lon="4.78871">
        <ele>414.95</ele>
        <time>2015-09-06T07:58:22Z</time>
      </trkpt>
      <trkpt lat="45.86772" lon="4.78878">
        <ele>415.43</ele>
        <time>2015-09-06T07:58:31Z</time>
      </trkpt>
      <trkpt lat="45.86769" lon="4.78893">
        <ele>415.43</ele>
        <time>2015-09-06T07:58:38Z</time>
      </trkpt>
      <trkpt lat="45.86768" lon="4.78897">
        <ele>415.43</ele>
        <time>2015-09-06T07:58:51Z</time>
      </trkpt>
      <trkpt lat="45.86766" lon="4.78894">
        <ele>415.91</ele>
        <time>2015-09-06T07:59:04Z</time>
      </trkpt>
      <trkpt lat="45.86765" lon="4.78891">
        <ele>415.91</ele>
        <time>2015-09-06T07:59:06Z</time>
      </trkpt>
      <trkpt lat="45.86761" lon="4.78884">
        <ele>416.39</ele>
        <time>2015-09-06T07:59:10Z</time>
      </trkpt>
      <trkpt lat="45.8675" lon="4.78867">
        <ele>414.95</ele>
        <time>2015-09-06T07:59:18Z</time>
      </trkpt>
      <trkpt lat="45.86718" lon="4.78844">
        <ele>413.5</ele>
        <time>2015-09-06T07:59:31Z</time>
      </trkpt>
      <trkpt lat="45.86693" lon="4.78839">
        <ele>416.39</ele>
        <time>2015-09-06T07:59:42Z</time>
      </trkpt>
      <trkpt lat="45.86662" lon="4.7883">
        <ele>416.39</ele>
        <time>2015-09-06T07:59:53Z</time>
      </trkpt>
      <trkpt lat="45.86623" lon="4.78822">
        <ele>416.87</ele>
        <time>2015-09-06T08:00:04Z</time>
      </trkpt>
      <trkpt lat="45.86588" lon="4.78781">
        <ele>415.91</ele>
        <time>2015-09-06T08:00:15Z</time>
      </trkpt>
      <trkpt lat="45.86573" lon="4.78767">
        <ele>415.43</ele>
        <time>2015-09-06T08:00:20Z</time>
      </trkpt>
      <trkpt lat="45.86566" lon="4.78756">
        <ele>414.95</ele>
        <time>2015-09-06T08:00:24Z</time>
      </trkpt>
      <trkpt lat="45.86551" lon="4.78732">
        <ele>415.43</ele>
        <time>2015-09-06T08:00:33Z</time>
      </trkpt>
      <trkpt lat="45.86539" lon="4.78714">
        <ele>414.95</ele>
        <time>2015-09-06T08:00:43Z</time>
      </trkpt>
      <trkpt lat="45.86537" lon="4.78709">
        <ele>415.43</ele>
        <time>2015-09-06T08:00:47Z</time>
      </trkpt>
      <trkpt lat="45.86528" lon="4.7869">
        <ele>419.75</ele>
        <time>2015-09-06T08:01:00Z</time>
      </trkpt>
      <trkpt lat="45.86516" lon="4.78671">
        <ele>423.12</ele>
        <time>2015-09-06T08:01:13Z</time>
      </trkpt>
      <trkpt lat="45.86509" lon="4.78661">
        <ele>424.08</ele>
        <time>2015-09-06T08:01:19Z</time>
      </trkpt>
      <trkpt lat="45.86505" lon="4.78655">
        <ele>425.04</ele>
        <time>2015-09-06T08:01:23Z</time>
      </trkpt>
      <trkpt lat="45.86503" lon="4.78652">
        <ele>425.04</ele>
        <time>2015-09-06T08:01:25Z</time>
      </trkpt>
      <trkpt lat="45.86495" lon="4.78641">
        <ele>425.04</ele>
        <time>2015-09-06T08:01:34Z</time>
      </trkpt>
      <trkpt lat="45.86477" lon="4.78639">
        <ele>425.52</ele>
        <time>2015-09-06T08:01:46Z</time>
      </trkpt>
      <trkpt lat="45.86462" lon="4.78643">
        <ele>428.89</ele>
        <time>2015-09-06T08:01:55Z</time>
      </trkpt>
      <trkpt lat="45.86443" lon="4.7864">
        <ele>434.17</ele>
        <time>2015-09-06T08:02:08Z</time>
      </trkpt>
      <trkpt lat="45.86431" lon="4.78639">
        <ele>435.61</ele>
        <time>2015-09-06T08:02:16Z</time>
      </trkpt>
      <trkpt lat="45.86411" lon="4.78638">
        <ele>439.94</ele>
        <time>2015-09-06T08:02:29Z</time>
      </trkpt>
      <trkpt lat="45.86389" lon="4.78637">
        <ele>442.34</ele>
        <time>2015-09-06T08:02:41Z</time>
      </trkpt>
      <trkpt lat="45.86379" lon="4.7864">
        <ele>444.75</ele>
        <time>2015-09-06T08:02:47Z</time>
      </trkpt>
      <trkpt lat="45.86355" lon="4.78639">
        <ele>449.07</ele>
        <time>2015-09-06T08:03:00Z</time>
      </trkpt>
      <trkpt lat="45.86331" lon="4.78624">
        <ele>451</ele>
        <time>2015-09-06T08:03:11Z</time>
      </trkpt>
      <trkpt lat="45.86326" lon="4.7862">
        <ele>451.48</ele>
        <time>2015-09-06T08:03:13Z</time>
      </trkpt>
      <trkpt lat="45.86283" lon="4.78598">
        <ele>453.4</ele>
        <time>2015-09-06T08:03:26Z</time>
      </trkpt>
      <trkpt lat="45.86252" lon="4.78578">
        <ele>453.4</ele>
        <time>2015-09-06T08:03:36Z</time>
      </trkpt>
      <trkpt lat="45.86229" lon="4.78554">
        <ele>454.36</ele>
        <time>2015-09-06T08:03:45Z</time>
      </trkpt>
      <trkpt lat="45.86226" lon="4.78551">
        <ele>454.84</ele>
        <time>2015-09-06T08:03:46Z</time>
      </trkpt>
      <trkpt lat="45.862" lon="4.78529">
        <ele>456.76</ele>
        <time>2015-09-06T08:04:00Z</time>
      </trkpt>
      <trkpt lat="45.86198" lon="4.78527">
        <ele>456.76</ele>
        <time>2015-09-06T08:04:01Z</time>
      </trkpt>
      <trkpt lat="45.86192" lon="4.78519">
        <ele>453.88</ele>
        <time>2015-09-06T08:04:07Z</time>
      </trkpt>
      <trkpt lat="45.86185" lon="4.78506">
        <ele>453.88</ele>
        <time>2015-09-06T08:04:18Z</time>
      </trkpt>
      <trkpt lat="45.86186" lon="4.78495">
        <ele>454.36</ele>
        <time>2015-09-06T08:04:31Z</time>
      </trkpt>
      <trkpt lat="45.86185" lon="4.7849">
        <ele>453.88</ele>
        <time>2015-09-06T08:04:48Z</time>
      </trkpt>
      <trkpt lat="45.8618" lon="4.78478">
        <ele>452.44</ele>
        <time>2015-09-06T08:05:01Z</time>
      </trkpt>
      <trkpt lat="45.86175" lon="4.78465">
        <ele>451.48</ele>
        <time>2015-09-06T08:05:12Z</time>
      </trkpt>
      <trkpt lat="45.86173" lon="4.78454">
        <ele>450.03</ele>
        <time>2015-09-06T08:05:22Z</time>
      </trkpt>
      <trkpt lat="45.86165" lon="4.78441">
        <ele>448.11</ele>
        <time>2015-09-06T08:05:35Z</time>
      </trkpt>
      <trkpt lat="45.86163" lon="4.78442">
        <ele>450.03</ele>
        <time>2015-09-06T08:05:51Z</time>
      </trkpt>
      <trkpt lat="45.86163" lon="4.78443">
        <ele>452.44</ele>
        <time>2015-09-06T08:06:14Z</time>
      </trkpt>
      <trkpt lat="45.86163" lon="4.78443">
        <ele>452.44</ele>
        <time>2015-09-06T08:06:16Z</time>
      </trkpt>
      <trkpt lat="45.8616" lon="4.78449">
        <ele>452.44</ele>
        <time>2015-09-06T08:06:20Z</time>
      </trkpt>
      <trkpt lat="45.86161" lon="4.7846">
        <ele>452.44</ele>
        <time>2015-09-06T08:06:27Z</time>
      </trkpt>
      <trkpt lat="45.86157" lon="4.78473">
        <ele>453.88</ele>
        <time>2015-09-06T08:06:42Z</time>
      </trkpt>
      <trkpt lat="45.86157" lon="4.78474">
        <ele>453.88</ele>
        <time>2015-09-06T08:06:43Z</time>
      </trkpt>
      <trkpt lat="45.8616" lon="4.78491">
        <ele>459.17</ele>
        <time>2015-09-06T08:06:56Z</time>
      </trkpt>
      <trkpt lat="45.8615" lon="4.78515">
        <ele>463.01</ele>
        <time>2015-09-06T08:07:10Z</time>
      </trkpt>
      <trkpt lat="45.86135" lon="4.78511">
        <ele>465.42</ele>
        <time>2015-09-06T08:07:21Z</time>
      </trkpt>
      <trkpt lat="45.86134" lon="4.78511">
        <ele>465.9</ele>
        <time>2015-09-06T08:07:22Z</time>
      </trkpt>
      <trkpt lat="45.86108" lon="4.78508">
        <ele>467.82</ele>
        <time>2015-09-06T08:07:36Z</time>
      </trkpt>
      <trkpt lat="45.86098" lon="4.78507">
        <ele>468.78</ele>
        <time>2015-09-06T08:07:42Z</time>
      </trkpt>
      <trkpt lat="45.86095" lon="4.78508">
        <ele>468.78</ele>
        <time>2015-09-06T08:07:44Z</time>
      </trkpt>
      <trkpt lat="45.86091" lon="4.78532">
        <ele>470.7</ele>
        <time>2015-09-06T08:07:54Z</time>
      </trkpt>
      <trkpt lat="45.86094" lon="4.78546">
        <ele>472.14</ele>
        <time>2015-09-06T08:08:02Z</time>
      </trkpt>
      <trkpt lat="45.86104" lon="4.78555">
        <ele>471.66</ele>
        <time>2015-09-06T08:08:09Z</time>
      </trkpt>
      <trkpt lat="45.8611" lon="4.78563">
        <ele>471.66</ele>
        <time>2015-09-06T08:08:13Z</time>
      </trkpt>
      <trkpt lat="45.86107" lon="4.78596">
        <ele>470.7</ele>
        <time>2015-09-06T08:08:26Z</time>
      </trkpt>
      <trkpt lat="45.86106" lon="4.78605">
        <ele>471.18</ele>
        <time>2015-09-06T08:08:30Z</time>
      </trkpt>
      <trkpt lat="45.8611" lon="4.78613">
        <ele>471.66</ele>
        <time>2015-09-06T08:08:34Z</time>
      </trkpt>
      <trkpt lat="45.86118" lon="4.78616">
        <ele>471.66</ele>
        <time>2015-09-06T08:08:48Z</time>
      </trkpt>
      <trkpt lat="45.86117" lon="4.78617">
        <ele>471.18</ele>
        <time>2015-09-06T08:09:09Z</time>
      </trkpt>
      <trkpt lat="45.86118" lon="4.78617">
        <ele>470.7</ele>
        <time>2015-09-06T08:09:32Z</time>
      </trkpt>
      <trkpt lat="45.86124" lon="4.78622">
        <ele>471.66</ele>
        <time>2015-09-06T08:09:51Z</time>
      </trkpt>
      <trkpt lat="45.86145" lon="4.78632">
        <ele>471.66</ele>
        <time>2015-09-06T08:10:08Z</time>
      </trkpt>
      <trkpt lat="45.86159" lon="4.78642">
        <ele>471.66</ele>
        <time>2015-09-06T08:10:21Z</time>
      </trkpt>
      <trkpt lat="45.86161" lon="4.78643">
        <ele>471.66</ele>
        <time>2015-09-06T08:10:22Z</time>
      </trkpt>
      <trkpt lat="45.86167" lon="4.7865">
        <ele>471.18</ele>
        <time>2015-09-06T08:10:27Z</time>
      </trkpt>
      <trkpt lat="45.86193" lon="4.78672">
        <ele>470.7</ele>
        <time>2015-09-06T08:10:41Z</time>
      </trkpt>
      <trkpt lat="45.86225" lon="4.78695">
        <ele>469.74</ele>
        <time>2015-09-06T08:10:53Z</time>
      </trkpt>
      <trkpt lat="45.86273" lon="4.78729">
        <ele>468.78</ele>
        <time>2015-09-06T08:11:07Z</time>
      </trkpt>
      <trkpt lat="45.86289" lon="4.78741">
        <ele>467.82</ele>
        <time>2015-09-06T08:11:11Z</time>
      </trkpt>
      <trkpt lat="45.86298" lon="4.78749">
        <ele>466.86</ele>
        <time>2015-09-06T08:11:13Z</time>
      </trkpt>
      <trkpt lat="45.86302" lon="4.78754">
        <ele>466.38</ele>
        <time>2015-09-06T08:11:14Z</time>
      </trkpt>
      <trkpt lat="45.86307" lon="4.78758">
        <ele>466.38</ele>
        <time>2015-09-06T08:11:15Z</time>
      </trkpt>
      <trkpt lat="45.86352" lon="4.78806">
        <ele>462.05</ele>
        <time>2015-09-06T08:11:24Z</time>
      </trkpt>
      <trkpt lat="45.86359" lon="4.78811">
        <ele>461.57</ele>
        <time>2015-09-06T08:11:25Z</time>
      </trkpt>
      <trkpt lat="45.86365" lon="4.78816">
        <ele>461.09</ele>
        <time>2015-09-06T08:11:26Z</time>
      </trkpt>
      <trkpt lat="45.86391" lon="4.78846">
        <ele>458.69</ele>
        <time>2015-09-06T08:11:31Z</time>
      </trkpt>
      <trkpt lat="45.86395" lon="4.78853">
        <ele>458.69</ele>
        <time>2015-09-06T08:11:32Z</time>
      </trkpt>
      <trkpt lat="45.86439" lon="4.78952">
        <ele>455.8</ele>
        <time>2015-09-06T08:11:45Z</time>
      </trkpt>
      <trkpt lat="45.86446" lon="4.78965">
        <ele>454.84</ele>
        <time>2015-09-06T08:11:47Z</time>
      </trkpt>
      <trkpt lat="45.8645" lon="4.7897">
        <ele>454.84</ele>
        <time>2015-09-06T08:11:48Z</time>
      </trkpt>
      <trkpt lat="45.86454" lon="4.78976">
        <ele>454.84</ele>
        <time>2015-09-06T08:11:49Z</time>
      </trkpt>
      <trkpt lat="45.86457" lon="4.78981">
        <ele>454.84</ele>
        <time>2015-09-06T08:11:50Z</time>
      </trkpt>
      <trkpt lat="45.86461" lon="4.78986">
        <ele>454.84</ele>
        <time>2015-09-06T08:11:51Z</time>
      </trkpt>
      <trkpt lat="45.86472" lon="4.79006">
        <ele>454.84</ele>
        <time>2015-09-06T08:11:55Z</time>
      </trkpt>
      <trkpt lat="45.86475" lon="4.79011">
        <ele>454.84</ele>
        <time>2015-09-06T08:11:56Z</time>
      </trkpt>
      <trkpt lat="45.86478" lon="4.79015">
        <ele>454.84</ele>
        <time>2015-09-06T08:11:57Z</time>
      </trkpt>
      <trkpt lat="45.86481" lon="4.79019">
        <ele>454.84</ele>
        <time>2015-09-06T08:11:58Z</time>
      </trkpt>
      <trkpt lat="45.86484" lon="4.79023">
        <ele>454.36</ele>
        <time>2015-09-06T08:11:59Z</time>
      </trkpt>
      <trkpt lat="45.86486" lon="4.79027">
        <ele>454.36</ele>
        <time>2015-09-06T08:12:00Z</time>
      </trkpt>
      <trkpt lat="45.86492" lon="4.79036">
        <ele>453.88</ele>
        <time>2015-09-06T08:12:02Z</time>
      </trkpt>
      <trkpt lat="45.86495" lon="4.7904">
        <ele>453.88</ele>
        <time>2015-09-06T08:12:03Z</time>
      </trkpt>
      <trkpt lat="45.86498" lon="4.79045">
        <ele>453.88</ele>
        <time>2015-09-06T08:12:04Z</time>
      </trkpt>
      <trkpt lat="45.86547" lon="4.79116">
        <ele>449.55</ele>
        <time>2015-09-06T08:12:16Z</time>
      </trkpt>
      <trkpt lat="45.8655" lon="4.79124">
        <ele>449.07</ele>
        <time>2015-09-06T08:12:17Z</time>
      </trkpt>
      <trkpt lat="45.86576" lon="4.79176">
        <ele>445.71</ele>
        <time>2015-09-06T08:12:25Z</time>
      </trkpt>
      <trkpt lat="45.86585" lon="4.79199">
        <ele>444.75</ele>
        <time>2015-09-06T08:12:28Z</time>
      </trkpt>
      <trkpt lat="45.86589" lon="4.79207">
        <ele>444.75</ele>
        <time>2015-09-06T08:12:29Z</time>
      </trkpt>
      <trkpt lat="45.86593" lon="4.79216">
        <ele>444.27</ele>
        <time>2015-09-06T08:12:30Z</time>
      </trkpt>
      <trkpt lat="45.86644" lon="4.79348">
        <ele>439.46</ele>
        <time>2015-09-06T08:12:46Z</time>
      </trkpt>
      <trkpt lat="45.86645" lon="4.79353">
        <ele>439.46</ele>
        <time>2015-09-06T08:12:47Z</time>
      </trkpt>
      <trkpt lat="45.86645" lon="4.79357">
        <ele>439.46</ele>
        <time>2015-09-06T08:12:48Z</time>
      </trkpt>
      <trkpt lat="45.86646" lon="4.79359">
        <ele>439.46</ele>
        <time>2015-09-06T08:12:49Z</time>
      </trkpt>
      <trkpt lat="45.86646" lon="4.79358">
        <ele>438.98</ele>
        <time>2015-09-06T08:12:59Z</time>
      </trkpt>
      <trkpt lat="45.86645" lon="4.79358">
        <ele>439.46</ele>
        <time>2015-09-06T08:13:34Z</time>
      </trkpt>
      <trkpt lat="45.86646" lon="4.79358">
        <ele>442.34</ele>
        <time>2015-09-06T08:14:14Z</time>
      </trkpt>
      <trkpt lat="45.86646" lon="4.79357">
        <ele>443.31</ele>
        <time>2015-09-06T08:14:53Z</time>
      </trkpt>
      <trkpt lat="45.86646" lon="4.79357">
        <ele>443.31</ele>
        <time>2015-09-06T08:15:25Z</time>
      </trkpt>
      <trkpt lat="45.86646" lon="4.79357">
        <ele>442.82</ele>
        <time>2015-09-06T08:15:57Z</time>
      </trkpt>
      <trkpt lat="45.86647" lon="4.79357">
        <ele>442.34</ele>
        <time>2015-09-06T08:16:32Z</time>
      </trkpt>
      <trkpt lat="45.86649" lon="4.79362">
        <ele>442.34</ele>
        <time>2015-09-06T08:16:36Z</time>
      </trkpt>
      <trkpt lat="45.8665" lon="4.79363">
        <ele>442.34</ele>
        <time>2015-09-06T08:16:37Z</time>
      </trkpt>
      <trkpt lat="45.86651" lon="4.7937">
        <ele>442.82</ele>
        <time>2015-09-06T08:16:49Z</time>
      </trkpt>
      <trkpt lat="45.8665" lon="4.79371">
        <ele>442.82</ele>
        <time>2015-09-06T08:17:06Z</time>
      </trkpt>
      <trkpt lat="45.86651" lon="4.79373">
        <ele>443.31</ele>
        <time>2015-09-06T08:17:23Z</time>
      </trkpt>
      <trkpt lat="45.86651" lon="4.79374">
        <ele>443.79</ele>
        <time>2015-09-06T08:17:38Z</time>
      </trkpt>
      <trkpt lat="45.86653" lon="4.79373">
        <ele>443.79</ele>
        <time>2015-09-06T08:18:03Z</time>
      </trkpt>
      <trkpt lat="45.86653" lon="4.79376">
        <ele>443.79</ele>
        <time>2015-09-06T08:18:07Z</time>
      </trkpt>
      <trkpt lat="45.86652" lon="4.79408">
        <ele>444.75</ele>
        <time>2015-09-06T08:18:20Z</time>
      </trkpt>
      <trkpt lat="45.8665" lon="4.79437">
        <ele>446.67</ele>
        <time>2015-09-06T08:18:31Z</time>
      </trkpt>
      <trkpt lat="45.86652" lon="4.79484">
        <ele>447.63</ele>
        <time>2015-09-06T08:18:47Z</time>
      </trkpt>
      <trkpt lat="45.86644" lon="4.79518">
        <ele>445.71</ele>
        <time>2015-09-06T08:18:59Z</time>
      </trkpt>
      <trkpt lat="45.86643" lon="4.79528">
        <ele>445.71</ele>
        <time>2015-09-06T08:19:02Z</time>
      </trkpt>
      <trkpt lat="45.86643" lon="4.79531">
        <ele>445.71</ele>
        <time>2015-09-06T08:19:03Z</time>
      </trkpt>
      <trkpt lat="45.86641" lon="4.79535">
        <ele>445.71</ele>
        <time>2015-09-06T08:19:05Z</time>
      </trkpt>
      <trkpt lat="45.86641" lon="4.79537">
        <ele>445.71</ele>
        <time>2015-09-06T08:19:06Z</time>
      </trkpt>
      <trkpt lat="45.86638" lon="4.79576">
        <ele>446.67</ele>
        <time>2015-09-06T08:19:19Z</time>
      </trkpt>
      <trkpt lat="45.86641" lon="4.79615">
        <ele>447.15</ele>
        <time>2015-09-06T08:19:30Z</time>
      </trkpt>
      <trkpt lat="45.86659" lon="4.79668">
        <ele>447.15</ele>
        <time>2015-09-06T08:19:40Z</time>
      </trkpt>
      <trkpt lat="45.86662" lon="4.79674">
        <ele>447.63</ele>
        <time>2015-09-06T08:19:41Z</time>
      </trkpt>
      <trkpt lat="45.86665" lon="4.79681">
        <ele>447.63</ele>
        <time>2015-09-06T08:19:42Z</time>
      </trkpt>
      <trkpt lat="45.86667" lon="4.79689">
        <ele>447.63</ele>
        <time>2015-09-06T08:19:43Z</time>
      </trkpt>
      <trkpt lat="45.86668" lon="4.79698">
        <ele>447.63</ele>
        <time>2015-09-06T08:19:44Z</time>
      </trkpt>
      <trkpt lat="45.86669" lon="4.79708">
        <ele>447.15</ele>
        <time>2015-09-06T08:19:45Z</time>
      </trkpt>
      <trkpt lat="45.86668" lon="4.79717">
        <ele>447.15</ele>
        <time>2015-09-06T08:19:46Z</time>
      </trkpt>
      <trkpt lat="45.86667" lon="4.79726">
        <ele>447.15</ele>
        <time>2015-09-06T08:19:47Z</time>
      </trkpt>
      <trkpt lat="45.86665" lon="4.79734">
        <ele>447.15</ele>
        <time>2015-09-06T08:19:48Z</time>
      </trkpt>
      <trkpt lat="45.86663" lon="4.79741">
        <ele>447.15</ele>
        <time>2015-09-06T08:19:49Z</time>
      </trkpt>
      <trkpt lat="45.8666" lon="4.79748">
        <ele>447.15</ele>
        <time>2015-09-06T08:19:50Z</time>
      </trkpt>
      <trkpt lat="45.86657" lon="4.79754">
        <ele>447.15</ele>
        <time>2015-09-06T08:19:51Z</time>
      </trkpt>
      <trkpt lat="45.86654" lon="4.79759">
        <ele>447.15</ele>
        <time>2015-09-06T08:19:52Z</time>
      </trkpt>
      <trkpt lat="45.86652" lon="4.79763">
        <ele>447.15</ele>
        <time>2015-09-06T08:19:53Z</time>
      </trkpt>
      <trkpt lat="45.86631" lon="4.79809">
        <ele>448.59</ele>
        <time>2015-09-06T08:20:03Z</time>
      </trkpt>
      <trkpt lat="45.86609" lon="4.79854">
        <ele>449.55</ele>
        <time>2015-09-06T08:20:14Z</time>
      </trkpt>
      <trkpt lat="45.86578" lon="4.79894">
        <ele>455.32</ele>
        <time>2015-09-06T08:20:28Z</time>
      </trkpt>
      <trkpt lat="45.8655" lon="4.79908">
        <ele>454.84</ele>
        <time>2015-09-06T08:20:38Z</time>
      </trkpt>
      <trkpt lat="45.86547" lon="4.79909">
        <ele>454.84</ele>
        <time>2015-09-06T08:20:39Z</time>
      </trkpt>
      <trkpt lat="45.86531" lon="4.79911">
        <ele>454.36</ele>
        <time>2015-09-06T08:20:43Z</time>
      </trkpt>
      <trkpt lat="45.86502" lon="4.79906">
        <ele>452.92</ele>
        <time>2015-09-06T08:20:49Z</time>
      </trkpt>
      <trkpt lat="45.86496" lon="4.79905">
        <ele>452.92</ele>
        <time>2015-09-06T08:20:50Z</time>
      </trkpt>
      <trkpt lat="45.8646" lon="4.79891">
        <ele>451</ele>
        <time>2015-09-06T08:20:57Z</time>
      </trkpt>
      <trkpt lat="45.86455" lon="4.79888">
        <ele>451</ele>
        <time>2015-09-06T08:20:58Z</time>
      </trkpt>
      <trkpt lat="45.8645" lon="4.79884">
        <ele>451</ele>
        <time>2015-09-06T08:20:59Z</time>
      </trkpt>
      <trkpt lat="45.86375" lon="4.79854">
        <ele>448.59</ele>
        <time>2015-09-06T08:21:14Z</time>
      </trkpt>
      <trkpt lat="45.86313" lon="4.79855">
        <ele>447.15</ele>
        <time>2015-09-06T08:21:25Z</time>
      </trkpt>
      <trkpt lat="45.86298" lon="4.79858">
        <ele>446.67</ele>
        <time>2015-09-06T08:21:29Z</time>
      </trkpt>
      <trkpt lat="45.86296" lon="4.79859">
        <ele>446.67</ele>
        <time>2015-09-06T08:21:30Z</time>
      </trkpt>
      <trkpt lat="45.86294" lon="4.7986">
        <ele>447.15</ele>
        <time>2015-09-06T08:21:31Z</time>
      </trkpt>
      <trkpt lat="45.86293" lon="4.79861">
        <ele>447.15</ele>
        <time>2015-09-06T08:21:32Z</time>
      </trkpt>
      <trkpt lat="45.86292" lon="4.79862">
        <ele>447.15</ele>
        <time>2015-09-06T08:21:33Z</time>
      </trkpt>
      <trkpt lat="45.8629" lon="4.79862">
        <ele>447.15</ele>
        <time>2015-09-06T08:21:34Z</time>
      </trkpt>
      <trkpt lat="45.86289" lon="4.79863">
        <ele>447.15</ele>
        <time>2015-09-06T08:21:35Z</time>
      </trkpt>
      <trkpt lat="45.86282" lon="4.79859">
        <ele>446.67</ele>
        <time>2015-09-06T08:21:45Z</time>
      </trkpt>
      <trkpt lat="45.86278" lon="4.79852">
        <ele>448.59</ele>
        <time>2015-09-06T08:21:59Z</time>
      </trkpt>
      <trkpt lat="45.86278" lon="4.79847">
        <ele>448.59</ele>
        <time>2015-09-06T08:22:03Z</time>
      </trkpt>
      <trkpt lat="45.86278" lon="4.79845">
        <ele>449.07</ele>
        <time>2015-09-06T08:22:04Z</time>
      </trkpt>
      <trkpt lat="45.86276" lon="4.79828">
        <ele>451.48</ele>
        <time>2015-09-06T08:22:17Z</time>
      </trkpt>
      <trkpt lat="45.86274" lon="4.79808">
        <ele>455.32</ele>
        <time>2015-09-06T08:22:30Z</time>
      </trkpt>
      <trkpt lat="45.86274" lon="4.79803">
        <ele>455.8</ele>
        <time>2015-09-06T08:22:33Z</time>
      </trkpt>
      <trkpt lat="45.8627" lon="4.79787">
        <ele>460.13</ele>
        <time>2015-09-06T08:22:47Z</time>
      </trkpt>
      <trkpt lat="45.86268" lon="4.79786">
        <ele>460.61</ele>
        <time>2015-09-06T08:22:48Z</time>
      </trkpt>
      <trkpt lat="45.86262" lon="4.79777">
        <ele>462.53</ele>
        <time>2015-09-06T08:22:59Z</time>
      </trkpt>
      <trkpt lat="45.86261" lon="4.79776">
        <ele>463.01</ele>
        <time>2015-09-06T08:23:00Z</time>
      </trkpt>
      <trkpt lat="45.86256" lon="4.79771">
        <ele>463.01</ele>
        <time>2015-09-06T08:23:04Z</time>
      </trkpt>
      <trkpt lat="45.86255" lon="4.7977">
        <ele>463.01</ele>
        <time>2015-09-06T08:23:05Z</time>
      </trkpt>
      <trkpt lat="45.86249" lon="4.79767">
        <ele>463.01</ele>
        <time>2015-09-06T08:23:09Z</time>
      </trkpt>
      <trkpt lat="45.86245" lon="4.79764">
        <ele>463.97</ele>
        <time>2015-09-06T08:23:12Z</time>
      </trkpt>
      <trkpt lat="45.86244" lon="4.79763">
        <ele>463.97</ele>
        <time>2015-09-06T08:23:13Z</time>
      </trkpt>
      <trkpt lat="45.86242" lon="4.79762">
        <ele>464.45</ele>
        <time>2015-09-06T08:23:14Z</time>
      </trkpt>
      <trkpt lat="45.86241" lon="4.7976">
        <ele>464.45</ele>
        <time>2015-09-06T08:23:15Z</time>
      </trkpt>
      <trkpt lat="45.86241" lon="4.79759">
        <ele>464.45</ele>
        <time>2015-09-06T08:23:16Z</time>
      </trkpt>
      <trkpt lat="45.86242" lon="4.79757">
        <ele>464.45</ele>
        <time>2015-09-06T08:23:17Z</time>
      </trkpt>
      <trkpt lat="45.86242" lon="4.79755">
        <ele>464.45</ele>
        <time>2015-09-06T08:23:18Z</time>
      </trkpt>
      <trkpt lat="45.86253" lon="4.79743">
        <ele>466.38</ele>
        <time>2015-09-06T08:23:30Z</time>
      </trkpt>
      <trkpt lat="45.86257" lon="4.79736">
        <ele>468.3</ele>
        <time>2015-09-06T08:23:36Z</time>
      </trkpt>
      <trkpt lat="45.86258" lon="4.79735">
        <ele>468.3</ele>
        <time>2015-09-06T08:23:37Z</time>
      </trkpt>
      <trkpt lat="45.86259" lon="4.79733">
        <ele>468.78</ele>
        <time>2015-09-06T08:23:38Z</time>
      </trkpt>
      <trkpt lat="45.86261" lon="4.7973">
        <ele>469.26</ele>
        <time>2015-09-06T08:23:41Z</time>
      </trkpt>
      <trkpt lat="45.86263" lon="4.79729">
        <ele>469.26</ele>
        <time>2015-09-06T08:23:42Z</time>
      </trkpt>
      <trkpt lat="45.86264" lon="4.79729">
        <ele>469.74</ele>
        <time>2015-09-06T08:23:43Z</time>
      </trkpt>
      <trkpt lat="45.86265" lon="4.79728">
        <ele>469.74</ele>
        <time>2015-09-06T08:23:44Z</time>
      </trkpt>
      <trkpt lat="45.86266" lon="4.79726">
        <ele>470.22</ele>
        <time>2015-09-06T08:23:45Z</time>
      </trkpt>
      <trkpt lat="45.86267" lon="4.79725">
        <ele>470.22</ele>
        <time>2015-09-06T08:23:46Z</time>
      </trkpt>
      <trkpt lat="45.86268" lon="4.79724">
        <ele>470.7</ele>
        <time>2015-09-06T08:23:47Z</time>
      </trkpt>
      <trkpt lat="45.8627" lon="4.79723">
        <ele>470.7</ele>
        <time>2015-09-06T08:23:48Z</time>
      </trkpt>
      <trkpt lat="45.86271" lon="4.79722">
        <ele>471.18</ele>
        <time>2015-09-06T08:23:49Z</time>
      </trkpt>
      <trkpt lat="45.86272" lon="4.79722">
        <ele>471.18</ele>
        <time>2015-09-06T08:23:50Z</time>
      </trkpt>
      <trkpt lat="45.86273" lon="4.79722">
        <ele>471.66</ele>
        <time>2015-09-06T08:23:51Z</time>
      </trkpt>
      <trkpt lat="45.86274" lon="4.79721">
        <ele>471.66</ele>
        <time>2015-09-06T08:23:52Z</time>
      </trkpt>
      <trkpt lat="45.86276" lon="4.7972">
        <ele>472.14</ele>
        <time>2015-09-06T08:23:53Z</time>
      </trkpt>
      <trkpt lat="45.86277" lon="4.79719">
        <ele>472.63</ele>
        <time>2015-09-06T08:23:54Z</time>
      </trkpt>
      <trkpt lat="45.86278" lon="4.79719">
        <ele>473.11</ele>
        <time>2015-09-06T08:23:55Z</time>
      </trkpt>
      <trkpt lat="45.8628" lon="4.79719">
        <ele>473.11</ele>
        <time>2015-09-06T08:23:56Z</time>
      </trkpt>
      <trkpt lat="45.86281" lon="4.79718">
        <ele>473.59</ele>
        <time>2015-09-06T08:23:57Z</time>
      </trkpt>
      <trkpt lat="45.86282" lon="4.79717">
        <ele>473.59</ele>
        <time>2015-09-06T08:23:58Z</time>
      </trkpt>
      <trkpt lat="45.86284" lon="4.79717">
        <ele>473.59</ele>
        <time>2015-09-06T08:23:59Z</time>
      </trkpt>
      <trkpt lat="45.86287" lon="4.79717">
        <ele>473.59</ele>
        <time>2015-09-06T08:24:01Z</time>
      </trkpt>
      <trkpt lat="45.86288" lon="4.79716">
        <ele>473.59</ele>
        <time>2015-09-06T08:24:02Z</time>
      </trkpt>
      <trkpt lat="45.8629" lon="4.79715">
        <ele>474.07</ele>
        <time>2015-09-06T08:24:03Z</time>
      </trkpt>
      <trkpt lat="45.86292" lon="4.79714">
        <ele>474.07</ele>
        <time>2015-09-06T08:24:04Z</time>
      </trkpt>
      <trkpt lat="45.86294" lon="4.79714">
        <ele>474.07</ele>
        <time>2015-09-06T08:24:05Z</time>
      </trkpt>
      <trkpt lat="45.86295" lon="4.79714">
        <ele>474.07</ele>
        <time>2015-09-06T08:24:06Z</time>
      </trkpt>
      <trkpt lat="45.86297" lon="4.79714">
        <ele>473.59</ele>
        <time>2015-09-06T08:24:07Z</time>
      </trkpt>
      <trkpt lat="45.86299" lon="4.79713">
        <ele>473.59</ele>
        <time>2015-09-06T08:24:08Z</time>
      </trkpt>
      <trkpt lat="45.863" lon="4.79713">
        <ele>473.59</ele>
        <time>2015-09-06T08:24:09Z</time>
      </trkpt>
      <trkpt lat="45.86322" lon="4.79711">
        <ele>474.07</ele>
        <time>2015-09-06T08:24:23Z</time>
      </trkpt>
      <trkpt lat="45.86332" lon="4.7971">
        <ele>475.03</ele>
        <time>2015-09-06T08:24:29Z</time>
      </trkpt>
      <trkpt lat="45.86357" lon="4.79706">
        <ele>477.91</ele>
        <time>2015-09-06T08:24:44Z</time>
      </trkpt>
      <trkpt lat="45.86383" lon="4.79702">
        <ele>479.84</ele>
        <time>2015-09-06T08:24:59Z</time>
      </trkpt>
      <trkpt lat="45.86411" lon="4.79701">
        <ele>483.2</ele>
        <time>2015-09-06T08:25:12Z</time>
      </trkpt>
      <trkpt lat="45.86436" lon="4.79699">
        <ele>484.64</ele>
        <time>2015-09-06T08:25:26Z</time>
      </trkpt>
      <trkpt lat="45.86466" lon="4.79694">
        <ele>488.97</ele>
        <time>2015-09-06T08:25:41Z</time>
      </trkpt>
      <trkpt lat="45.86487" lon="4.79695">
        <ele>492.33</ele>
        <time>2015-09-06T08:25:51Z</time>
      </trkpt>
      <trkpt lat="45.86488" lon="4.79696">
        <ele>492.81</ele>
        <time>2015-09-06T08:25:52Z</time>
      </trkpt>
      <trkpt lat="45.86491" lon="4.79696">
        <ele>493.77</ele>
        <time>2015-09-06T08:25:54Z</time>
      </trkpt>
      <trkpt lat="45.86493" lon="4.79696">
        <ele>494.26</ele>
        <time>2015-09-06T08:25:55Z</time>
      </trkpt>
      <trkpt lat="45.86495" lon="4.79696">
        <ele>494.74</ele>
        <time>2015-09-06T08:25:56Z</time>
      </trkpt>
      <trkpt lat="45.86502" lon="4.79695">
        <ele>496.18</ele>
        <time>2015-09-06T08:25:59Z</time>
      </trkpt>
      <trkpt lat="45.86504" lon="4.79694">
        <ele>496.18</ele>
        <time>2015-09-06T08:26:00Z</time>
      </trkpt>
      <trkpt lat="45.86507" lon="4.79694">
        <ele>496.66</ele>
        <time>2015-09-06T08:26:01Z</time>
      </trkpt>
      <trkpt lat="45.86509" lon="4.79694">
        <ele>496.66</ele>
        <time>2015-09-06T08:26:02Z</time>
      </trkpt>
      <trkpt lat="45.86511" lon="4.79693">
        <ele>496.66</ele>
        <time>2015-09-06T08:26:03Z</time>
      </trkpt>
      <trkpt lat="45.8653" lon="4.79689">
        <ele>497.62</ele>
        <time>2015-09-06T08:26:14Z</time>
      </trkpt>
      <trkpt lat="45.86553" lon="4.79687">
        <ele>498.1</ele>
        <time>2015-09-06T08:26:26Z</time>
      </trkpt>
      <trkpt lat="45.86555" lon="4.79687">
        <ele>498.1</ele>
        <time>2015-09-06T08:26:27Z</time>
      </trkpt>
      <trkpt lat="45.86557" lon="4.79687">
        <ele>498.58</ele>
        <time>2015-09-06T08:26:28Z</time>
      </trkpt>
      <trkpt lat="45.86559" lon="4.79686">
        <ele>498.58</ele>
        <time>2015-09-06T08:26:29Z</time>
      </trkpt>
      <trkpt lat="45.86561" lon="4.79686">
        <ele>498.58</ele>
        <time>2015-09-06T08:26:30Z</time>
      </trkpt>
      <trkpt lat="45.86579" lon="4.79672">
        <ele>497.14</ele>
        <time>2015-09-06T08:26:44Z</time>
      </trkpt>
      <trkpt lat="45.86581" lon="4.79668">
        <ele>496.66</ele>
        <time>2015-09-06T08:26:47Z</time>
      </trkpt>
      <trkpt lat="45.86581" lon="4.79635">
        <ele>495.7</ele>
        <time>2015-09-06T08:27:03Z</time>
      </trkpt>
      <trkpt lat="45.8658" lon="4.7961">
        <ele>493.77</ele>
        <time>2015-09-06T08:27:17Z</time>
      </trkpt>
      <trkpt lat="45.86577" lon="4.79586">
        <ele>492.81</ele>
        <time>2015-09-06T08:27:28Z</time>
      </trkpt>
      <trkpt lat="45.86577" lon="4.79574">
        <ele>492.81</ele>
        <time>2015-09-06T08:27:33Z</time>
      </trkpt>
      <trkpt lat="45.86569" lon="4.79558">
        <ele>495.22</ele>
        <time>2015-09-06T08:27:47Z</time>
      </trkpt>
      <trkpt lat="45.86558" lon="4.79544">
        <ele>496.66</ele>
        <time>2015-09-06T08:27:57Z</time>
      </trkpt>
      <trkpt lat="45.86552" lon="4.79537">
        <ele>496.66</ele>
        <time>2015-09-06T08:28:01Z</time>
      </trkpt>
      <trkpt lat="45.86535" lon="4.79516">
        <ele>497.14</ele>
        <time>2015-09-06T08:28:16Z</time>
      </trkpt>
      <trkpt lat="45.86506" lon="4.7949">
        <ele>501.95</ele>
        <time>2015-09-06T08:28:32Z</time>
      </trkpt>
      <trkpt lat="45.86493" lon="4.79477">
        <ele>506.27</ele>
        <time>2015-09-06T08:28:46Z</time>
      </trkpt>
      <trkpt lat="45.86482" lon="4.79466">
        <ele>508.67</ele>
        <time>2015-09-06T08:29:00Z</time>
      </trkpt>
      <trkpt lat="45.86455" lon="4.79449">
        <ele>513.48</ele>
        <time>2015-09-06T08:29:14Z</time>
      </trkpt>
      <trkpt lat="45.86443" lon="4.79437">
        <ele>518.29</ele>
        <time>2015-09-06T08:29:28Z</time>
      </trkpt>
      <trkpt lat="45.86438" lon="4.79432">
        <ele>519.73</ele>
        <time>2015-09-06T08:29:34Z</time>
      </trkpt>
      <trkpt lat="45.86423" lon="4.79419">
        <ele>523.09</ele>
        <time>2015-09-06T08:29:46Z</time>
      </trkpt>
      <trkpt lat="45.86407" lon="4.79409">
        <ele>528.38</ele>
        <time>2015-09-06T08:29:58Z</time>
      </trkpt>
      <trkpt lat="45.86394" lon="4.79394">
        <ele>532.23</ele>
        <time>2015-09-06T08:30:14Z</time>
      </trkpt>
      <trkpt lat="45.8638" lon="4.79384">
        <ele>532.23</ele>
        <time>2015-09-06T08:30:28Z</time>
      </trkpt>
      <trkpt lat="45.86366" lon="4.79369">
        <ele>533.19</ele>
        <time>2015-09-06T08:30:43Z</time>
      </trkpt>
      <trkpt lat="45.86348" lon="4.79356">
        <ele>536.07</ele>
        <time>2015-09-06T08:30:57Z</time>
      </trkpt>
      <trkpt lat="45.86337" lon="4.79347">
        <ele>538.48</ele>
        <time>2015-09-06T08:31:11Z</time>
      </trkpt>
      <trkpt lat="45.86321" lon="4.79331">
        <ele>537.03</ele>
        <time>2015-09-06T08:31:26Z</time>
      </trkpt>
      <trkpt lat="45.86314" lon="4.79327">
        <ele>536.55</ele>
        <time>2015-09-06T08:31:31Z</time>
      </trkpt>
      <trkpt lat="45.86303" lon="4.79317">
        <ele>536.07</ele>
        <time>2015-09-06T08:31:41Z</time>
      </trkpt>
      <trkpt lat="45.86286" lon="4.79299">
        <ele>537.03</ele>
        <time>2015-09-06T08:31:54Z</time>
      </trkpt>
      <trkpt lat="45.86279" lon="4.79291">
        <ele>537.99</ele>
        <time>2015-09-06T08:31:59Z</time>
      </trkpt>
      <trkpt lat="45.86268" lon="4.79277">
        <ele>538.96</ele>
        <time>2015-09-06T08:32:14Z</time>
      </trkpt>
      <trkpt lat="45.86253" lon="4.79272">
        <ele>542.32</ele>
        <time>2015-09-06T08:32:25Z</time>
      </trkpt>
      <trkpt lat="45.86246" lon="4.7927">
        <ele>544.24</ele>
        <time>2015-09-06T08:32:32Z</time>
      </trkpt>
      <trkpt lat="45.86235" lon="4.79288">
        <ele>547.61</ele>
        <time>2015-09-06T08:32:46Z</time>
      </trkpt>
      <trkpt lat="45.86234" lon="4.79291">
        <ele>547.61</ele>
        <time>2015-09-06T08:33:00Z</time>
      </trkpt>
      <trkpt lat="45.86233" lon="4.79292">
        <ele>548.09</ele>
        <time>2015-09-06T08:33:01Z</time>
      </trkpt>
      <trkpt lat="45.86229" lon="4.79301">
        <ele>547.61</ele>
        <time>2015-09-06T08:33:06Z</time>
      </trkpt>
      <trkpt lat="45.86223" lon="4.79307">
        <ele>547.13</ele>
        <time>2015-09-06T08:33:12Z</time>
      </trkpt>
      <trkpt lat="45.86218" lon="4.79314">
        <ele>546.65</ele>
        <time>2015-09-06T08:33:16Z</time>
      </trkpt>
      <trkpt lat="45.86213" lon="4.79318">
        <ele>545.69</ele>
        <time>2015-09-06T08:33:19Z</time>
      </trkpt>
      <trkpt lat="45.86196" lon="4.79322">
        <ele>543.76</ele>
        <time>2015-09-06T08:33:28Z</time>
      </trkpt>
      <trkpt lat="45.86191" lon="4.79322">
        <ele>542.8</ele>
        <time>2015-09-06T08:33:31Z</time>
      </trkpt>
      <trkpt lat="45.86171" lon="4.79309">
        <ele>540.4</ele>
        <time>2015-09-06T08:33:47Z</time>
      </trkpt>
      <trkpt lat="45.86155" lon="4.79299">
        <ele>541.36</ele>
        <time>2015-09-06T08:33:58Z</time>
      </trkpt>
      <trkpt lat="45.86133" lon="4.79265">
        <ele>544.72</ele>
        <time>2015-09-06T08:34:13Z</time>
      </trkpt>
      <trkpt lat="45.86121" lon="4.79244">
        <ele>545.69</ele>
        <time>2015-09-06T08:34:24Z</time>
      </trkpt>
      <trkpt lat="45.8611" lon="4.79224">
        <ele>545.69</ele>
        <time>2015-09-06T08:34:36Z</time>
      </trkpt>
      <trkpt lat="45.86091" lon="4.79205">
        <ele>548.09</ele>
        <time>2015-09-06T08:34:44Z</time>
      </trkpt>
      <trkpt lat="45.86073" lon="4.79203">
        <ele>552.9</ele>
        <time>2015-09-06T08:34:58Z</time>
      </trkpt>
      <trkpt lat="45.86068" lon="4.79204">
        <ele>557.7</ele>
        <time>2015-09-06T08:35:07Z</time>
      </trkpt>
      <trkpt lat="45.86063" lon="4.79204">
        <ele>559.14</ele>
        <time>2015-09-06T08:35:11Z</time>
      </trkpt>
      <trkpt lat="45.86054" lon="4.79203">
        <ele>559.14</ele>
        <time>2015-09-06T08:35:17Z</time>
      </trkpt>
      <trkpt lat="45.86025" lon="4.7918">
        <ele>557.7</ele>
        <time>2015-09-06T08:35:31Z</time>
      </trkpt>
      <trkpt lat="45.85987" lon="4.79115">
        <ele>554.34</ele>
        <time>2015-09-06T08:35:46Z</time>
      </trkpt>
      <trkpt lat="45.85977" lon="4.79083">
        <ele>552.9</ele>
        <time>2015-09-06T08:35:50Z</time>
      </trkpt>
      <trkpt lat="45.85966" lon="4.79025">
        <ele>548.09</ele>
        <time>2015-09-06T08:35:59Z</time>
      </trkpt>
      <trkpt lat="45.85964" lon="4.79019">
        <ele>547.61</ele>
        <time>2015-09-06T08:36:00Z</time>
      </trkpt>
      <trkpt lat="45.85961" lon="4.79014">
        <ele>547.13</ele>
        <time>2015-09-06T08:36:01Z</time>
      </trkpt>
      <trkpt lat="45.85957" lon="4.79008">
        <ele>546.65</ele>
        <time>2015-09-06T08:36:02Z</time>
      </trkpt>
      <trkpt lat="45.85954" lon="4.79002">
        <ele>546.17</ele>
        <time>2015-09-06T08:36:03Z</time>
      </trkpt>
      <trkpt lat="45.8595" lon="4.78996">
        <ele>545.69</ele>
        <time>2015-09-06T08:36:04Z</time>
      </trkpt>
      <trkpt lat="45.85945" lon="4.7899">
        <ele>545.2</ele>
        <time>2015-09-06T08:36:05Z</time>
      </trkpt>
      <trkpt lat="45.8594" lon="4.78984">
        <ele>544.72</ele>
        <time>2015-09-06T08:36:06Z</time>
      </trkpt>
      <trkpt lat="45.85935" lon="4.7898">
        <ele>544.24</ele>
        <time>2015-09-06T08:36:07Z</time>
      </trkpt>
      <trkpt lat="45.85929" lon="4.78976">
        <ele>543.76</ele>
        <time>2015-09-06T08:36:08Z</time>
      </trkpt>
      <trkpt lat="45.85882" lon="4.78939">
        <ele>539.92</ele>
        <time>2015-09-06T08:36:15Z</time>
      </trkpt>
      <trkpt lat="45.85875" lon="4.78929">
        <ele>539.92</ele>
        <time>2015-09-06T08:36:16Z</time>
      </trkpt>
      <trkpt lat="45.85844" lon="4.78873">
        <ele>537.03</ele>
        <time>2015-09-06T08:36:22Z</time>
      </trkpt>
      <trkpt lat="45.8584" lon="4.78863">
        <ele>536.55</ele>
        <time>2015-09-06T08:36:23Z</time>
      </trkpt>
      <trkpt lat="45.85831" lon="4.78833">
        <ele>534.63</ele>
        <time>2015-09-06T08:36:26Z</time>
      </trkpt>
      <trkpt lat="45.85829" lon="4.78825">
        <ele>534.15</ele>
        <time>2015-09-06T08:36:27Z</time>
      </trkpt>
      <trkpt lat="45.85826" lon="4.78819">
        <ele>533.67</ele>
        <time>2015-09-06T08:36:28Z</time>
      </trkpt>
      <trkpt lat="45.8582" lon="4.78804">
        <ele>532.71</ele>
        <time>2015-09-06T08:36:33Z</time>
      </trkpt>
      <trkpt lat="45.85819" lon="4.78802">
        <ele>532.23</ele>
        <time>2015-09-06T08:36:34Z</time>
      </trkpt>
      <trkpt lat="45.85819" lon="4.788">
        <ele>532.23</ele>
        <time>2015-09-06T08:36:35Z</time>
      </trkpt>
      <trkpt lat="45.85818" lon="4.78796">
        <ele>531.75</ele>
        <time>2015-09-06T08:36:37Z</time>
      </trkpt>
      <trkpt lat="45.85818" lon="4.78794">
        <ele>531.75</ele>
        <time>2015-09-06T08:36:38Z</time>
      </trkpt>
      <trkpt lat="45.85819" lon="4.78793">
        <ele>531.75</ele>
        <time>2015-09-06T08:36:39Z</time>
      </trkpt>
      <trkpt lat="45.85819" lon="4.7879">
        <ele>531.27</ele>
        <time>2015-09-06T08:36:40Z</time>
      </trkpt>
      <trkpt lat="45.85819" lon="4.78787">
        <ele>531.27</ele>
        <time>2015-09-06T08:36:41Z</time>
      </trkpt>
      <trkpt lat="45.85819" lon="4.78782">
        <ele>530.79</ele>
        <time>2015-09-06T08:36:42Z</time>
      </trkpt>
      <trkpt lat="45.85821" lon="4.78749">
        <ele>526.94</ele>
        <time>2015-09-06T08:36:48Z</time>
      </trkpt>
      <trkpt lat="45.85822" lon="4.78741">
        <ele>526.46</ele>
        <time>2015-09-06T08:36:49Z</time>
      </trkpt>
      <trkpt lat="45.85824" lon="4.78685">
        <ele>520.69</ele>
        <time>2015-09-06T08:36:56Z</time>
      </trkpt>
      <trkpt lat="45.85817" lon="4.78632">
        <ele>516.85</ele>
        <time>2015-09-06T08:37:02Z</time>
      </trkpt>
      <trkpt lat="45.85808" lon="4.78608">
        <ele>513.96</ele>
        <time>2015-09-06T08:37:07Z</time>
      </trkpt>
      <trkpt lat="45.85805" lon="4.78607">
        <ele>513.48</ele>
        <time>2015-09-06T08:37:08Z</time>
      </trkpt>
      <trkpt lat="45.85804" lon="4.78605">
        <ele>513</ele>
        <time>2015-09-06T08:37:09Z</time>
      </trkpt>
      <trkpt lat="45.85803" lon="4.78602">
        <ele>513</ele>
        <time>2015-09-06T08:37:10Z</time>
      </trkpt>
      <trkpt lat="45.85801" lon="4.78599">
        <ele>513</ele>
        <time>2015-09-06T08:37:11Z</time>
      </trkpt>
      <trkpt lat="45.85772" lon="4.78555">
        <ele>508.67</ele>
        <time>2015-09-06T08:37:23Z</time>
      </trkpt>
      <trkpt lat="45.85737" lon="4.78507">
        <ele>505.31</ele>
        <time>2015-09-06T08:37:32Z</time>
      </trkpt>
      <trkpt lat="45.85728" lon="4.78493">
        <ele>504.35</ele>
        <time>2015-09-06T08:37:35Z</time>
      </trkpt>
      <trkpt lat="45.85726" lon="4.7849">
        <ele>504.35</ele>
        <time>2015-09-06T08:37:36Z</time>
      </trkpt>
      <trkpt lat="45.85723" lon="4.78486">
        <ele>503.87</ele>
        <time>2015-09-06T08:37:37Z</time>
      </trkpt>
      <trkpt lat="45.8572" lon="4.78482">
        <ele>503.39</ele>
        <time>2015-09-06T08:37:38Z</time>
      </trkpt>
      <trkpt lat="45.85717" lon="4.78476">
        <ele>503.39</ele>
        <time>2015-09-06T08:37:39Z</time>
      </trkpt>
      <trkpt lat="45.85712" lon="4.78463">
        <ele>501.95</ele>
        <time>2015-09-06T08:37:41Z</time>
      </trkpt>
      <trkpt lat="45.85709" lon="4.78454">
        <ele>501.46</ele>
        <time>2015-09-06T08:37:42Z</time>
      </trkpt>
      <trkpt lat="45.85688" lon="4.78387">
        <ele>496.66</ele>
        <time>2015-09-06T08:37:51Z</time>
      </trkpt>
      <trkpt lat="45.85684" lon="4.78368">
        <ele>495.7</ele>
        <time>2015-09-06T08:37:54Z</time>
      </trkpt>
      <trkpt lat="45.85684" lon="4.78362">
        <ele>495.22</ele>
        <time>2015-09-06T08:37:55Z</time>
      </trkpt>
      <trkpt lat="45.85684" lon="4.78358">
        <ele>494.74</ele>
        <time>2015-09-06T08:37:56Z</time>
      </trkpt>
      <trkpt lat="45.85684" lon="4.78354">
        <ele>494.74</ele>
        <time>2015-09-06T08:37:57Z</time>
      </trkpt>
      <trkpt lat="45.85685" lon="4.78351">
        <ele>494.26</ele>
        <time>2015-09-06T08:37:58Z</time>
      </trkpt>
      <trkpt lat="45.85685" lon="4.78348">
        <ele>494.26</ele>
        <time>2015-09-06T08:37:59Z</time>
      </trkpt>
      <trkpt lat="45.85686" lon="4.78346">
        <ele>493.77</ele>
        <time>2015-09-06T08:38:00Z</time>
      </trkpt>
      <trkpt lat="45.85687" lon="4.78336">
        <ele>493.29</ele>
        <time>2015-09-06T08:38:12Z</time>
      </trkpt>
      <trkpt lat="45.85687" lon="4.7833">
        <ele>494.26</ele>
        <time>2015-09-06T08:38:26Z</time>
      </trkpt>
      <trkpt lat="45.85685" lon="4.78328">
        <ele>495.7</ele>
        <time>2015-09-06T08:38:56Z</time>
      </trkpt>
      <trkpt lat="45.85684" lon="4.78325">
        <ele>496.18</ele>
        <time>2015-09-06T08:39:04Z</time>
      </trkpt>
      <trkpt lat="45.85686" lon="4.78316">
        <ele>498.1</ele>
        <time>2015-09-06T08:39:18Z</time>
      </trkpt>
      <trkpt lat="45.85685" lon="4.7831">
        <ele>500.02</ele>
        <time>2015-09-06T08:39:38Z</time>
      </trkpt>
      <trkpt lat="45.85685" lon="4.78308">
        <ele>500.02</ele>
        <time>2015-09-06T08:39:39Z</time>
      </trkpt>
      <trkpt lat="45.85686" lon="4.78304">
        <ele>499.54</ele>
        <time>2015-09-06T08:39:40Z</time>
      </trkpt>
      <trkpt lat="45.85687" lon="4.78263">
        <ele>493.77</ele>
        <time>2015-09-06T08:39:51Z</time>
      </trkpt>
      <trkpt lat="45.85689" lon="4.78254">
        <ele>491.85</ele>
        <time>2015-09-06T08:39:54Z</time>
      </trkpt>
      <trkpt lat="45.8569" lon="4.78248">
        <ele>490.41</ele>
        <time>2015-09-06T08:40:00Z</time>
      </trkpt>
      <trkpt lat="45.8569" lon="4.78245">
        <ele>489.93</ele>
        <time>2015-09-06T08:40:01Z</time>
      </trkpt>
      <trkpt lat="45.8569" lon="4.78233">
        <ele>488.97</ele>
        <time>2015-09-06T08:40:03Z</time>
      </trkpt>
      <trkpt lat="45.85689" lon="4.78227">
        <ele>488.01</ele>
        <time>2015-09-06T08:40:04Z</time>
      </trkpt>
      <trkpt lat="45.85687" lon="4.78221">
        <ele>487.53</ele>
        <time>2015-09-06T08:40:05Z</time>
      </trkpt>
      <trkpt lat="45.85685" lon="4.78216">
        <ele>486.56</ele>
        <time>2015-09-06T08:40:06Z</time>
      </trkpt>
      <trkpt lat="45.85683" lon="4.7821">
        <ele>485.6</ele>
        <time>2015-09-06T08:40:07Z</time>
      </trkpt>
      <trkpt lat="45.8568" lon="4.78201">
        <ele>484.64</ele>
        <time>2015-09-06T08:40:08Z</time>
      </trkpt>
      <trkpt lat="45.85677" lon="4.78193">
        <ele>483.68</ele>
        <time>2015-09-06T08:40:09Z</time>
      </trkpt>
      <trkpt lat="45.85672" lon="4.78184">
        <ele>482.72</ele>
        <time>2015-09-06T08:40:10Z</time>
      </trkpt>
      <trkpt lat="45.85649" lon="4.78131">
        <ele>475.99</ele>
        <time>2015-09-06T08:40:16Z</time>
      </trkpt>
      <trkpt lat="45.85646" lon="4.78124">
        <ele>474.55</ele>
        <time>2015-09-06T08:40:17Z</time>
      </trkpt>
      <trkpt lat="45.85644" lon="4.78118">
        <ele>473.59</ele>
        <time>2015-09-06T08:40:18Z</time>
      </trkpt>
      <trkpt lat="45.85616" lon="4.78059">
        <ele>464.93</ele>
        <time>2015-09-06T08:40:26Z</time>
      </trkpt>
      <trkpt lat="45.85614" lon="4.78054">
        <ele>464.45</ele>
        <time>2015-09-06T08:40:27Z</time>
      </trkpt>
      <trkpt lat="45.85611" lon="4.78051">
        <ele>463.01</ele>
        <time>2015-09-06T08:40:28Z</time>
      </trkpt>
      <trkpt lat="45.85609" lon="4.78047">
        <ele>462.05</ele>
        <time>2015-09-06T08:40:29Z</time>
      </trkpt>
      <trkpt lat="45.85607" lon="4.78043">
        <ele>461.09</ele>
        <time>2015-09-06T08:40:30Z</time>
      </trkpt>
      <trkpt lat="45.85599" lon="4.78014">
        <ele>456.76</ele>
        <time>2015-09-06T08:40:36Z</time>
      </trkpt>
      <trkpt lat="45.85596" lon="4.78">
        <ele>455.8</ele>
        <time>2015-09-06T08:40:38Z</time>
      </trkpt>
      <trkpt lat="45.85595" lon="4.77963">
        <ele>449.07</ele>
        <time>2015-09-06T08:40:47Z</time>
      </trkpt>
      <trkpt lat="45.85597" lon="4.77959">
        <ele>448.11</ele>
        <time>2015-09-06T08:40:48Z</time>
      </trkpt>
      <trkpt lat="45.85629" lon="4.77934">
        <ele>450.03</ele>
        <time>2015-09-06T08:40:57Z</time>
      </trkpt>
      <trkpt lat="45.8565" lon="4.77917">
        <ele>450.52</ele>
        <time>2015-09-06T08:41:06Z</time>
      </trkpt>
      <trkpt lat="45.8566" lon="4.77904">
        <ele>450.03</ele>
        <time>2015-09-06T08:41:09Z</time>
      </trkpt>
      <trkpt lat="45.85669" lon="4.77892">
        <ele>450.03</ele>
        <time>2015-09-06T08:41:11Z</time>
      </trkpt>
      <trkpt lat="45.85673" lon="4.77885">
        <ele>450.03</ele>
        <time>2015-09-06T08:41:12Z</time>
      </trkpt>
      <trkpt lat="45.85684" lon="4.77865">
        <ele>448.11</ele>
        <time>2015-09-06T08:41:16Z</time>
      </trkpt>
      <trkpt lat="45.85688" lon="4.77862">
        <ele>447.63</ele>
        <time>2015-09-06T08:41:17Z</time>
      </trkpt>
      <trkpt lat="45.85691" lon="4.77859">
        <ele>447.15</ele>
        <time>2015-09-06T08:41:18Z</time>
      </trkpt>
      <trkpt lat="45.85694" lon="4.77856">
        <ele>446.67</ele>
        <time>2015-09-06T08:41:19Z</time>
      </trkpt>
      <trkpt lat="45.85696" lon="4.77852">
        <ele>446.19</ele>
        <time>2015-09-06T08:41:20Z</time>
      </trkpt>
      <trkpt lat="45.85712" lon="4.77817">
        <ele>440.42</ele>
        <time>2015-09-06T08:41:29Z</time>
      </trkpt>
      <trkpt lat="45.85736" lon="4.77793">
        <ele>433.21</ele>
        <time>2015-09-06T08:41:39Z</time>
      </trkpt>
      <trkpt lat="45.85753" lon="4.77778">
        <ele>431.29</ele>
        <time>2015-09-06T08:41:43Z</time>
      </trkpt>
      <trkpt lat="45.85758" lon="4.77773">
        <ele>431.29</ele>
        <time>2015-09-06T08:41:44Z</time>
      </trkpt>
      <trkpt lat="45.85767" lon="4.77763">
        <ele>430.81</ele>
        <time>2015-09-06T08:41:46Z</time>
      </trkpt>
      <trkpt lat="45.8577" lon="4.77758">
        <ele>430.81</ele>
        <time>2015-09-06T08:41:47Z</time>
      </trkpt>
      <trkpt lat="45.85773" lon="4.77754">
        <ele>430.81</ele>
        <time>2015-09-06T08:41:48Z</time>
      </trkpt>
      <trkpt lat="45.85777" lon="4.77751">
        <ele>430.33</ele>
        <time>2015-09-06T08:41:49Z</time>
      </trkpt>
      <trkpt lat="45.85781" lon="4.77747">
        <ele>430.33</ele>
        <time>2015-09-06T08:41:50Z</time>
      </trkpt>
      <trkpt lat="45.85784" lon="4.77744">
        <ele>430.33</ele>
        <time>2015-09-06T08:41:51Z</time>
      </trkpt>
      <trkpt lat="45.85788" lon="4.77742">
        <ele>430.33</ele>
        <time>2015-09-06T08:41:52Z</time>
      </trkpt>
      <trkpt lat="45.85792" lon="4.77739">
        <ele>429.85</ele>
        <time>2015-09-06T08:41:53Z</time>
      </trkpt>
      <trkpt lat="45.85796" lon="4.77738">
        <ele>429.85</ele>
        <time>2015-09-06T08:41:54Z</time>
      </trkpt>
      <trkpt lat="45.85823" lon="4.77737">
        <ele>427.92</ele>
        <time>2015-09-06T08:41:59Z</time>
      </trkpt>
      <trkpt lat="45.85835" lon="4.7774">
        <ele>426.96</ele>
        <time>2015-09-06T08:42:01Z</time>
      </trkpt>
      <trkpt lat="45.8584" lon="4.77739">
        <ele>426.96</ele>
        <time>2015-09-06T08:42:02Z</time>
      </trkpt>
      <trkpt lat="45.85858" lon="4.77735">
        <ele>426</ele>
        <time>2015-09-06T08:42:05Z</time>
      </trkpt>
      <trkpt lat="45.85863" lon="4.77733">
        <ele>425.52</ele>
        <time>2015-09-06T08:42:06Z</time>
      </trkpt>
      <trkpt lat="45.85869" lon="4.77729">
        <ele>425.04</ele>
        <time>2015-09-06T08:42:07Z</time>
      </trkpt>
      <trkpt lat="45.85885" lon="4.77712">
        <ele>424.56</ele>
        <time>2015-09-06T08:42:11Z</time>
      </trkpt>
      <trkpt lat="45.85888" lon="4.77704">
        <ele>424.08</ele>
        <time>2015-09-06T08:42:12Z</time>
      </trkpt>
      <trkpt lat="45.85889" lon="4.77665">
        <ele>420.71</ele>
        <time>2015-09-06T08:42:20Z</time>
      </trkpt>
      <trkpt lat="45.85899" lon="4.77652">
        <ele>422.64</ele>
        <time>2015-09-06T08:42:42Z</time>
      </trkpt>
      <trkpt lat="45.85902" lon="4.77645">
        <ele>422.16</ele>
        <time>2015-09-06T08:42:45Z</time>
      </trkpt>
      <trkpt lat="45.85905" lon="4.77643">
        <ele>421.68</ele>
        <time>2015-09-06T08:42:46Z</time>
      </trkpt>
      <trkpt lat="45.85919" lon="4.77639">
        <ele>419.27</ele>
        <time>2015-09-06T08:42:49Z</time>
      </trkpt>
      <trkpt lat="45.85925" lon="4.77637">
        <ele>418.31</ele>
        <time>2015-09-06T08:42:50Z</time>
      </trkpt>
      <trkpt lat="45.85939" lon="4.77634">
        <ele>416.39</ele>
        <time>2015-09-06T08:42:52Z</time>
      </trkpt>
      <trkpt lat="45.85991" lon="4.77617">
        <ele>410.62</ele>
        <time>2015-09-06T08:42:58Z</time>
      </trkpt>
      <trkpt lat="45.86089" lon="4.77562">
        <ele>400.05</ele>
        <time>2015-09-06T08:43:09Z</time>
      </trkpt>
      <trkpt lat="45.86142" lon="4.77529">
        <ele>394.76</ele>
        <time>2015-09-06T08:43:15Z</time>
      </trkpt>
      <trkpt lat="45.86151" lon="4.77526">
        <ele>394.28</ele>
        <time>2015-09-06T08:43:16Z</time>
      </trkpt>
      <trkpt lat="45.86177" lon="4.7752">
        <ele>391.87</ele>
        <time>2015-09-06T08:43:19Z</time>
      </trkpt>
      <trkpt lat="45.86193" lon="4.7752">
        <ele>390.43</ele>
        <time>2015-09-06T08:43:21Z</time>
      </trkpt>
      <trkpt lat="45.862" lon="4.77518">
        <ele>389.47</ele>
        <time>2015-09-06T08:43:22Z</time>
      </trkpt>
      <trkpt lat="45.86218" lon="4.77512">
        <ele>386.59</ele>
        <time>2015-09-06T08:43:25Z</time>
      </trkpt>
      <trkpt lat="45.86224" lon="4.7751">
        <ele>385.63</ele>
        <time>2015-09-06T08:43:26Z</time>
      </trkpt>
      <trkpt lat="45.8623" lon="4.7751">
        <ele>384.66</ele>
        <time>2015-09-06T08:43:27Z</time>
      </trkpt>
      <trkpt lat="45.86236" lon="4.7751">
        <ele>383.7</ele>
        <time>2015-09-06T08:43:28Z</time>
      </trkpt>
      <trkpt lat="45.86242" lon="4.7751">
        <ele>382.74</ele>
        <time>2015-09-06T08:43:29Z</time>
      </trkpt>
      <trkpt lat="45.86249" lon="4.77511">
        <ele>381.78</ele>
        <time>2015-09-06T08:43:30Z</time>
      </trkpt>
      <trkpt lat="45.86256" lon="4.77512">
        <ele>380.34</ele>
        <time>2015-09-06T08:43:31Z</time>
      </trkpt>
      <trkpt lat="45.86264" lon="4.77513">
        <ele>378.9</ele>
        <time>2015-09-06T08:43:32Z</time>
      </trkpt>
      <trkpt lat="45.86272" lon="4.77513">
        <ele>377.94</ele>
        <time>2015-09-06T08:43:33Z</time>
      </trkpt>
      <trkpt lat="45.86345" lon="4.77519">
        <ele>367.84</ele>
        <time>2015-09-06T08:43:42Z</time>
      </trkpt>
      <trkpt lat="45.86356" lon="4.77521">
        <ele>365.92</ele>
        <time>2015-09-06T08:43:44Z</time>
      </trkpt>
      <trkpt lat="45.86374" lon="4.77524">
        <ele>363.52</ele>
        <time>2015-09-06T08:43:47Z</time>
      </trkpt>
      <trkpt lat="45.86381" lon="4.77522">
        <ele>362.55</ele>
        <time>2015-09-06T08:43:48Z</time>
      </trkpt>
      <trkpt lat="45.86388" lon="4.77521">
        <ele>361.59</ele>
        <time>2015-09-06T08:43:49Z</time>
      </trkpt>
      <trkpt lat="45.86395" lon="4.77521">
        <ele>360.63</ele>
        <time>2015-09-06T08:43:50Z</time>
      </trkpt>
      <trkpt lat="45.86402" lon="4.77521">
        <ele>359.67</ele>
        <time>2015-09-06T08:43:51Z</time>
      </trkpt>
      <trkpt lat="45.86408" lon="4.77522">
        <ele>358.71</ele>
        <time>2015-09-06T08:43:52Z</time>
      </trkpt>
      <trkpt lat="45.86414" lon="4.77524">
        <ele>357.75</ele>
        <time>2015-09-06T08:43:53Z</time>
      </trkpt>
      <trkpt lat="45.86419" lon="4.77525">
        <ele>356.79</ele>
        <time>2015-09-06T08:43:54Z</time>
      </trkpt>
      <trkpt lat="45.86424" lon="4.77526">
        <ele>355.83</ele>
        <time>2015-09-06T08:43:55Z</time>
      </trkpt>
      <trkpt lat="45.86429" lon="4.77528">
        <ele>354.86</ele>
        <time>2015-09-06T08:43:56Z</time>
      </trkpt>
      <trkpt lat="45.86433" lon="4.77529">
        <ele>354.38</ele>
        <time>2015-09-06T08:43:57Z</time>
      </trkpt>
      <trkpt lat="45.86437" lon="4.77528">
        <ele>353.42</ele>
        <time>2015-09-06T08:43:58Z</time>
      </trkpt>
      <trkpt lat="45.86441" lon="4.77526">
        <ele>352.94</ele>
        <time>2015-09-06T08:43:59Z</time>
      </trkpt>
      <trkpt lat="45.86445" lon="4.77525">
        <ele>351.98</ele>
        <time>2015-09-06T08:44:00Z</time>
      </trkpt>
      <trkpt lat="45.86455" lon="4.77517">
        <ele>347.65</ele>
        <time>2015-09-06T08:44:04Z</time>
      </trkpt>
      <trkpt lat="45.86459" lon="4.77517">
        <ele>346.21</ele>
        <time>2015-09-06T08:44:05Z</time>
      </trkpt>
      <trkpt lat="45.86463" lon="4.77516">
        <ele>345.25</ele>
        <time>2015-09-06T08:44:06Z</time>
      </trkpt>
      <trkpt lat="45.86526" lon="4.77511">
        <ele>332.75</ele>
        <time>2015-09-06T08:44:17Z</time>
      </trkpt>
      <trkpt lat="45.86532" lon="4.77508">
        <ele>331.79</ele>
        <time>2015-09-06T08:44:18Z</time>
      </trkpt>
      <trkpt lat="45.86549" lon="4.77498">
        <ele>329.39</ele>
        <time>2015-09-06T08:44:21Z</time>
      </trkpt>
      <trkpt lat="45.86555" lon="4.77496">
        <ele>327.95</ele>
        <time>2015-09-06T08:44:22Z</time>
      </trkpt>
      <trkpt lat="45.86576" lon="4.77484">
        <ele>323.14</ele>
        <time>2015-09-06T08:44:28Z</time>
      </trkpt>
      <trkpt lat="45.86578" lon="4.77483">
        <ele>323.14</ele>
        <time>2015-09-06T08:44:29Z</time>
      </trkpt>
      <trkpt lat="45.86581" lon="4.77481">
        <ele>323.14</ele>
        <time>2015-09-06T08:44:30Z</time>
      </trkpt>
      <trkpt lat="45.86583" lon="4.7748">
        <ele>323.14</ele>
        <time>2015-09-06T08:44:31Z</time>
      </trkpt>
      <trkpt lat="45.86588" lon="4.77482">
        <ele>322.66</ele>
        <time>2015-09-06T08:44:41Z</time>
      </trkpt>
      <trkpt lat="45.8659" lon="4.77482">
        <ele>329.87</ele>
        <time>2015-09-06T08:45:08Z</time>
      </trkpt>
      <trkpt lat="45.8659" lon="4.77483">
        <ele>330.83</ele>
        <time>2015-09-06T08:45:12Z</time>
      </trkpt>
      <trkpt lat="45.86587" lon="4.77491">
        <ele>330.35</ele>
        <time>2015-09-06T08:45:16Z</time>
      </trkpt>
      <trkpt lat="45.86565" lon="4.77526">
        <ele>325.06</ele>
        <time>2015-09-06T08:45:25Z</time>
      </trkpt>
      <trkpt lat="45.86528" lon="4.77567">
        <ele>318.81</ele>
        <time>2015-09-06T08:45:34Z</time>
      </trkpt>
      <trkpt lat="45.86507" lon="4.77584">
        <ele>315.93</ele>
        <time>2015-09-06T08:45:38Z</time>
      </trkpt>
      <trkpt lat="45.86501" lon="4.77587">
        <ele>314.97</ele>
        <time>2015-09-06T08:45:39Z</time>
      </trkpt>
      <trkpt lat="45.86494" lon="4.7759">
        <ele>314.49</ele>
        <time>2015-09-06T08:45:40Z</time>
      </trkpt>
      <trkpt lat="45.86487" lon="4.77593">
        <ele>314.01</ele>
        <time>2015-09-06T08:45:41Z</time>
      </trkpt>
      <trkpt lat="45.8648" lon="4.77595">
        <ele>313.53</ele>
        <time>2015-09-06T08:45:42Z</time>
      </trkpt>
      <trkpt lat="45.86473" lon="4.77595">
        <ele>313.05</ele>
        <time>2015-09-06T08:45:43Z</time>
      </trkpt>
      <trkpt lat="45.86396" lon="4.7761">
        <ele>309.2</ele>
        <time>2015-09-06T08:45:55Z</time>
      </trkpt>
      <trkpt lat="45.86347" lon="4.77625">
        <ele>310.16</ele>
        <time>2015-09-06T08:46:05Z</time>
      </trkpt>
      <trkpt lat="45.86323" lon="4.77633">
        <ele>311.12</ele>
        <time>2015-09-06T08:46:11Z</time>
      </trkpt>
      <trkpt lat="45.86305" lon="4.77638">
        <ele>311.12</ele>
        <time>2015-09-06T08:46:16Z</time>
      </trkpt>
      <trkpt lat="45.86279" lon="4.77631">
        <ele>309.68</ele>
        <time>2015-09-06T08:46:27Z</time>
      </trkpt>
      <trkpt lat="45.8625" lon="4.7763">
        <ele>313.53</ele>
        <time>2015-09-06T08:46:41Z</time>
      </trkpt>
      <trkpt lat="45.86235" lon="4.77631">
        <ele>315.93</ele>
        <time>2015-09-06T08:46:46Z</time>
      </trkpt>
      <trkpt lat="45.86206" lon="4.77657">
        <ele>318.33</ele>
        <time>2015-09-06T08:47:02Z</time>
      </trkpt>
      <trkpt lat="45.86197" lon="4.77661">
        <ele>317.85</ele>
        <time>2015-09-06T08:47:07Z</time>
      </trkpt>
      <trkpt lat="45.86191" lon="4.77675">
        <ele>317.85</ele>
        <time>2015-09-06T08:47:20Z</time>
      </trkpt>
      <trkpt lat="45.86193" lon="4.77681">
        <ele>319.78</ele>
        <time>2015-09-06T08:47:36Z</time>
      </trkpt>
      <trkpt lat="45.8619" lon="4.77687">
        <ele>321.7</ele>
        <time>2015-09-06T08:47:54Z</time>
      </trkpt>
      <trkpt lat="45.86189" lon="4.77691">
        <ele>322.18</ele>
        <time>2015-09-06T08:47:57Z</time>
      </trkpt>
      <trkpt lat="45.86194" lon="4.7771">
        <ele>323.62</ele>
        <time>2015-09-06T08:48:08Z</time>
      </trkpt>
      <trkpt lat="45.8619" lon="4.77713">
        <ele>324.58</ele>
        <time>2015-09-06T08:48:24Z</time>
      </trkpt>
      <trkpt lat="45.86188" lon="4.77714">
        <ele>326.5</ele>
        <time>2015-09-06T08:48:42Z</time>
      </trkpt>
      <trkpt lat="45.86187" lon="4.77715">
        <ele>326.99</ele>
        <time>2015-09-06T08:48:43Z</time>
      </trkpt>
      <trkpt lat="45.86168" lon="4.77727">
        <ele>330.83</ele>
        <time>2015-09-06T08:48:59Z</time>
      </trkpt>
      <trkpt lat="45.86163" lon="4.77731">
        <ele>330.83</ele>
        <time>2015-09-06T08:49:05Z</time>
      </trkpt>
      <trkpt lat="45.86153" lon="4.77742">
        <ele>331.31</ele>
        <time>2015-09-06T08:49:16Z</time>
      </trkpt>
      <trkpt lat="45.86135" lon="4.77765">
        <ele>330.83</ele>
        <time>2015-09-06T08:49:31Z</time>
      </trkpt>
      <trkpt lat="45.86132" lon="4.77775">
        <ele>330.83</ele>
        <time>2015-09-06T08:49:37Z</time>
      </trkpt>
      <trkpt lat="45.86121" lon="4.778">
        <ele>330.35</ele>
        <time>2015-09-06T08:49:52Z</time>
      </trkpt>
      <trkpt lat="45.86112" lon="4.77818">
        <ele>332.27</ele>
        <time>2015-09-06T08:50:06Z</time>
      </trkpt>
      <trkpt lat="45.86106" lon="4.77827">
        <ele>332.27</ele>
        <time>2015-09-06T08:50:21Z</time>
      </trkpt>
      <trkpt lat="45.86103" lon="4.77843">
        <ele>339.96</ele>
        <time>2015-09-06T08:50:36Z</time>
      </trkpt>
      <trkpt lat="45.86102" lon="4.77844">
        <ele>342.85</ele>
        <time>2015-09-06T08:50:54Z</time>
      </trkpt>
      <trkpt lat="45.86102" lon="4.77843">
        <ele>344.77</ele>
        <time>2015-09-06T08:51:16Z</time>
      </trkpt>
      <trkpt lat="45.86104" lon="4.7784">
        <ele>347.17</ele>
        <time>2015-09-06T08:51:42Z</time>
      </trkpt>
      <trkpt lat="45.86109" lon="4.77837">
        <ele>349.58</ele>
        <time>2015-09-06T08:51:48Z</time>
      </trkpt>
      <trkpt lat="45.8613" lon="4.77827">
        <ele>352.46</ele>
        <time>2015-09-06T08:51:59Z</time>
      </trkpt>
      <trkpt lat="45.86137" lon="4.77823">
        <ele>353.42</ele>
        <time>2015-09-06T08:52:03Z</time>
      </trkpt>
      <trkpt lat="45.86147" lon="4.7782">
        <ele>354.38</ele>
        <time>2015-09-06T08:52:09Z</time>
      </trkpt>
      <trkpt lat="45.86164" lon="4.77819">
        <ele>359.19</ele>
        <time>2015-09-06T08:52:20Z</time>
      </trkpt>
      <trkpt lat="45.8615" lon="4.77832">
        <ele>362.55</ele>
        <time>2015-09-06T08:52:34Z</time>
      </trkpt>
      <trkpt lat="45.86133" lon="4.7785">
        <ele>364</ele>
        <time>2015-09-06T08:52:47Z</time>
      </trkpt>
      <trkpt lat="45.86118" lon="4.77867">
        <ele>364</ele>
        <time>2015-09-06T08:52:59Z</time>
      </trkpt>
      <trkpt lat="45.86096" lon="4.77884">
        <ele>364</ele>
        <time>2015-09-06T08:53:13Z</time>
      </trkpt>
      <trkpt lat="45.86072" lon="4.77901">
        <ele>367.36</ele>
        <time>2015-09-06T08:53:27Z</time>
      </trkpt>
      <trkpt lat="45.86052" lon="4.77915">
        <ele>369.28</ele>
        <time>2015-09-06T08:53:41Z</time>
      </trkpt>
      <trkpt lat="45.86047" lon="4.77922">
        <ele>369.76</ele>
        <time>2015-09-06T08:53:45Z</time>
      </trkpt>
      <trkpt lat="45.86025" lon="4.77942">
        <ele>372.65</ele>
        <time>2015-09-06T08:54:00Z</time>
      </trkpt>
      <trkpt lat="45.86006" lon="4.77954">
        <ele>374.57</ele>
        <time>2015-09-06T08:54:13Z</time>
      </trkpt>
      <trkpt lat="45.85986" lon="4.77961">
        <ele>376.97</ele>
        <time>2015-09-06T08:54:26Z</time>
      </trkpt>
      <trkpt lat="45.85976" lon="4.77962">
        <ele>378.9</ele>
        <time>2015-09-06T08:54:34Z</time>
      </trkpt>
      <trkpt lat="45.85953" lon="4.77967">
        <ele>381.3</ele>
        <time>2015-09-06T08:54:50Z</time>
      </trkpt>
      <trkpt lat="45.85932" lon="4.77969">
        <ele>383.7</ele>
        <time>2015-09-06T08:55:04Z</time>
      </trkpt>
      <trkpt lat="45.85907" lon="4.77969">
        <ele>386.59</ele>
        <time>2015-09-06T08:55:19Z</time>
      </trkpt>
      <trkpt lat="45.8589" lon="4.77973">
        <ele>388.99</ele>
        <time>2015-09-06T08:55:31Z</time>
      </trkpt>
      <trkpt lat="45.85878" lon="4.77982">
        <ele>389.95</ele>
        <time>2015-09-06T08:55:43Z</time>
      </trkpt>
      <trkpt lat="45.85883" lon="4.77991">
        <ele>392.36</ele>
        <time>2015-09-06T08:55:51Z</time>
      </trkpt>
      <trkpt lat="45.85885" lon="4.77994">
        <ele>392.84</ele>
        <time>2015-09-06T08:55:54Z</time>
      </trkpt>
      <trkpt lat="45.85905" lon="4.78003">
        <ele>395.24</ele>
        <time>2015-09-06T08:56:06Z</time>
      </trkpt>
      <trkpt lat="45.85925" lon="4.78012">
        <ele>398.6</ele>
        <time>2015-09-06T08:56:19Z</time>
      </trkpt>
      <trkpt lat="45.85945" lon="4.78013">
        <ele>402.45</ele>
        <time>2015-09-06T08:56:30Z</time>
      </trkpt>
      <trkpt lat="45.85961" lon="4.78006">
        <ele>403.89</ele>
        <time>2015-09-06T08:56:39Z</time>
      </trkpt>
      <trkpt lat="45.85984" lon="4.7801">
        <ele>406.29</ele>
        <time>2015-09-06T08:56:53Z</time>
      </trkpt>
      <trkpt lat="45.85986" lon="4.7801">
        <ele>406.29</ele>
        <time>2015-09-06T08:56:54Z</time>
      </trkpt>
      <trkpt lat="45.86009" lon="4.78019">
        <ele>407.26</ele>
        <time>2015-09-06T08:57:08Z</time>
      </trkpt>
      <trkpt lat="45.86012" lon="4.78019">
        <ele>407.26</ele>
        <time>2015-09-06T08:57:10Z</time>
      </trkpt>
      <trkpt lat="45.86026" lon="4.78012">
        <ele>408.22</ele>
        <time>2015-09-06T08:57:18Z</time>
      </trkpt>
      <trkpt lat="45.86033" lon="4.78011">
        <ele>409.18</ele>
        <time>2015-09-06T08:57:22Z</time>
      </trkpt>
      <trkpt lat="45.86034" lon="4.78017">
        <ele>409.66</ele>
        <time>2015-09-06T08:57:26Z</time>
      </trkpt>
      <trkpt lat="45.86028" lon="4.78028">
        <ele>409.66</ele>
        <time>2015-09-06T08:57:36Z</time>
      </trkpt>
      <trkpt lat="45.86015" lon="4.78032">
        <ele>411.58</ele>
        <time>2015-09-06T08:57:48Z</time>
      </trkpt>
      <trkpt lat="45.85996" lon="4.78039">
        <ele>413.98</ele>
        <time>2015-09-06T08:58:02Z</time>
      </trkpt>
      <trkpt lat="45.85978" lon="4.7805">
        <ele>415.43</ele>
        <time>2015-09-06T08:58:16Z</time>
      </trkpt>
      <trkpt lat="45.85959" lon="4.78062">
        <ele>416.39</ele>
        <time>2015-09-06T08:58:30Z</time>
      </trkpt>
      <trkpt lat="45.85944" lon="4.78077">
        <ele>416.87</ele>
        <time>2015-09-06T08:58:44Z</time>
      </trkpt>
      <trkpt lat="45.85928" lon="4.78087">
        <ele>416.87</ele>
        <time>2015-09-06T08:58:58Z</time>
      </trkpt>
      <trkpt lat="45.85912" lon="4.78096">
        <ele>421.19</ele>
        <time>2015-09-06T08:59:12Z</time>
      </trkpt>
      <trkpt lat="45.85909" lon="4.78097">
        <ele>421.68</ele>
        <time>2015-09-06T08:59:14Z</time>
      </trkpt>
      <trkpt lat="45.85892" lon="4.78107">
        <ele>424.56</ele>
        <time>2015-09-06T08:59:28Z</time>
      </trkpt>
      <trkpt lat="45.85876" lon="4.78117">
        <ele>426.48</ele>
        <time>2015-09-06T08:59:43Z</time>
      </trkpt>
      <trkpt lat="45.85873" lon="4.78119">
        <ele>430.81</ele>
        <time>2015-09-06T09:00:02Z</time>
      </trkpt>
      <trkpt lat="45.85873" lon="4.78118">
        <ele>433.21</ele>
        <time>2015-09-06T09:00:39Z</time>
      </trkpt>
      <trkpt lat="45.85872" lon="4.78118">
        <ele>433.69</ele>
        <time>2015-09-06T09:01:13Z</time>
      </trkpt>
      <trkpt lat="45.85872" lon="4.78119">
        <ele>435.61</ele>
        <time>2015-09-06T09:01:45Z</time>
      </trkpt>
      <trkpt lat="45.85871" lon="4.78119">
        <ele>436.58</ele>
        <time>2015-09-06T09:02:11Z</time>
      </trkpt>
      <trkpt lat="45.85871" lon="4.78121">
        <ele>439.46</ele>
        <time>2015-09-06T09:02:46Z</time>
      </trkpt>
      <trkpt lat="45.85871" lon="4.78121">
        <ele>439.46</ele>
        <time>2015-09-06T09:03:04Z</time>
      </trkpt>
      <trkpt lat="45.85876" lon="4.78121">
        <ele>439.94</ele>
        <time>2015-09-06T09:03:09Z</time>
      </trkpt>
      <trkpt lat="45.85895" lon="4.78121">
        <ele>441.38</ele>
        <time>2015-09-06T09:03:23Z</time>
      </trkpt>
      <trkpt lat="45.85903" lon="4.78121">
        <ele>442.34</ele>
        <time>2015-09-06T09:03:29Z</time>
      </trkpt>
      <trkpt lat="45.8591" lon="4.78122">
        <ele>443.31</ele>
        <time>2015-09-06T09:03:33Z</time>
      </trkpt>
      <trkpt lat="45.85929" lon="4.78126">
        <ele>445.71</ele>
        <time>2015-09-06T09:03:46Z</time>
      </trkpt>
      <trkpt lat="45.85938" lon="4.78127">
        <ele>447.15</ele>
        <time>2015-09-06T09:03:50Z</time>
      </trkpt>
      <trkpt lat="45.85944" lon="4.78124">
        <ele>448.59</ele>
        <time>2015-09-06T09:03:54Z</time>
      </trkpt>
      <trkpt lat="45.85946" lon="4.78126">
        <ele>449.07</ele>
        <time>2015-09-06T09:03:56Z</time>
      </trkpt>
      <trkpt lat="45.85948" lon="4.78129">
        <ele>449.55</ele>
        <time>2015-09-06T09:03:58Z</time>
      </trkpt>
      <trkpt lat="45.85933" lon="4.78138">
        <ele>450.52</ele>
        <time>2015-09-06T09:04:12Z</time>
      </trkpt>
      <trkpt lat="45.85936" lon="4.78146">
        <ele>450.52</ele>
        <time>2015-09-06T09:04:22Z</time>
      </trkpt>
      <trkpt lat="45.8595" lon="4.78145">
        <ele>452.44</ele>
        <time>2015-09-06T09:04:32Z</time>
      </trkpt>
      <trkpt lat="45.85958" lon="4.78144">
        <ele>452.92</ele>
        <time>2015-09-06T09:04:37Z</time>
      </trkpt>
      <trkpt lat="45.85962" lon="4.78145">
        <ele>454.84</ele>
        <time>2015-09-06T09:04:40Z</time>
      </trkpt>
      <trkpt lat="45.85974" lon="4.78146">
        <ele>455.8</ele>
        <time>2015-09-06T09:04:47Z</time>
      </trkpt>
      <trkpt lat="45.85998" lon="4.78144">
        <ele>457.24</ele>
        <time>2015-09-06T09:05:02Z</time>
      </trkpt>
      <trkpt lat="45.86001" lon="4.78144">
        <ele>457.24</ele>
        <time>2015-09-06T09:05:04Z</time>
      </trkpt>
      <trkpt lat="45.86029" lon="4.78141">
        <ele>460.61</ele>
        <time>2015-09-06T09:05:19Z</time>
      </trkpt>
      <trkpt lat="45.86032" lon="4.78141">
        <ele>461.09</ele>
        <time>2015-09-06T09:05:21Z</time>
      </trkpt>
      <trkpt lat="45.86048" lon="4.78139">
        <ele>463.49</ele>
        <time>2015-09-06T09:05:30Z</time>
      </trkpt>
      <trkpt lat="45.86052" lon="4.78137">
        <ele>464.93</ele>
        <time>2015-09-06T09:05:33Z</time>
      </trkpt>
      <trkpt lat="45.86058" lon="4.78138">
        <ele>465.42</ele>
        <time>2015-09-06T09:05:36Z</time>
      </trkpt>
      <trkpt lat="45.8608" lon="4.78139">
        <ele>466.86</ele>
        <time>2015-09-06T09:05:51Z</time>
      </trkpt>
      <trkpt lat="45.86099" lon="4.78144">
        <ele>468.3</ele>
        <time>2015-09-06T09:06:02Z</time>
      </trkpt>
      <trkpt lat="45.86104" lon="4.78147">
        <ele>468.3</ele>
        <time>2015-09-06T09:06:05Z</time>
      </trkpt>
      <trkpt lat="45.8611" lon="4.78151">
        <ele>468.78</ele>
        <time>2015-09-06T09:06:09Z</time>
      </trkpt>
      <trkpt lat="45.86125" lon="4.78164">
        <ele>470.22</ele>
        <time>2015-09-06T09:06:23Z</time>
      </trkpt>
      <trkpt lat="45.86123" lon="4.78161">
        <ele>471.66</ele>
        <time>2015-09-06T09:06:40Z</time>
      </trkpt>
      <trkpt lat="45.86124" lon="4.78159">
        <ele>473.59</ele>
        <time>2015-09-06T09:07:07Z</time>
      </trkpt>
      <trkpt lat="45.86125" lon="4.7816">
        <ele>475.51</ele>
        <time>2015-09-06T09:07:33Z</time>
      </trkpt>
      <trkpt lat="45.86127" lon="4.78161">
        <ele>475.03</ele>
        <time>2015-09-06T09:08:08Z</time>
      </trkpt>
      <trkpt lat="45.86127" lon="4.7816">
        <ele>475.99</ele>
        <time>2015-09-06T09:08:38Z</time>
      </trkpt>
      <trkpt lat="45.86128" lon="4.7816">
        <ele>476.47</ele>
        <time>2015-09-06T09:08:56Z</time>
      </trkpt>
      <trkpt lat="45.86136" lon="4.78154">
        <ele>475.03</ele>
        <time>2015-09-06T09:09:01Z</time>
      </trkpt>
      <trkpt lat="45.86164" lon="4.78135">
        <ele>467.82</ele>
        <time>2015-09-06T09:09:09Z</time>
      </trkpt>
      <trkpt lat="45.86178" lon="4.78134">
        <ele>467.82</ele>
        <time>2015-09-06T09:09:13Z</time>
      </trkpt>
      <trkpt lat="45.86279" lon="4.78177">
        <ele>465.42</ele>
        <time>2015-09-06T09:09:26Z</time>
      </trkpt>
      <trkpt lat="45.86302" lon="4.78175">
        <ele>461.09</ele>
        <time>2015-09-06T09:09:29Z</time>
      </trkpt>
      <trkpt lat="45.86337" lon="4.78177">
        <ele>452.44</ele>
        <time>2015-09-06T09:09:34Z</time>
      </trkpt>
      <trkpt lat="45.86348" lon="4.78168">
        <ele>451</ele>
        <time>2015-09-06T09:09:36Z</time>
      </trkpt>
      <trkpt lat="45.86378" lon="4.78165">
        <ele>444.27</ele>
        <time>2015-09-06T09:09:42Z</time>
      </trkpt>
      <trkpt lat="45.8641" lon="4.78167">
        <ele>441.86</ele>
        <time>2015-09-06T09:09:49Z</time>
      </trkpt>
      <trkpt lat="45.86423" lon="4.7817">
        <ele>440.42</ele>
        <time>2015-09-06T09:09:52Z</time>
      </trkpt>
      <trkpt lat="45.86448" lon="4.78165">
        <ele>434.65</ele>
        <time>2015-09-06T09:10:01Z</time>
      </trkpt>
      <trkpt lat="45.86458" lon="4.78154">
        <ele>431.29</ele>
        <time>2015-09-06T09:10:05Z</time>
      </trkpt>
      <trkpt lat="45.86499" lon="4.78143">
        <ele>420.71</ele>
        <time>2015-09-06T09:10:16Z</time>
      </trkpt>
      <trkpt lat="45.86523" lon="4.78142">
        <ele>412.54</ele>
        <time>2015-09-06T09:10:23Z</time>
      </trkpt>
      <trkpt lat="45.86545" lon="4.7812">
        <ele>404.85</ele>
        <time>2015-09-06T09:10:31Z</time>
      </trkpt>
      <trkpt lat="45.86531" lon="4.78062">
        <ele>399.08</ele>
        <time>2015-09-06T09:10:39Z</time>
      </trkpt>
      <trkpt lat="45.86507" lon="4.78036">
        <ele>395.24</ele>
        <time>2015-09-06T09:10:44Z</time>
      </trkpt>
      <trkpt lat="45.86515" lon="4.78015">
        <ele>388.99</ele>
        <time>2015-09-06T09:10:50Z</time>
      </trkpt>
      <trkpt lat="45.86531" lon="4.78007">
        <ele>384.18</ele>
        <time>2015-09-06T09:10:53Z</time>
      </trkpt>
      <trkpt lat="45.86545" lon="4.77999">
        <ele>380.34</ele>
        <time>2015-09-06T09:10:56Z</time>
      </trkpt>
      <trkpt lat="45.86557" lon="4.77976">
        <ele>375.53</ele>
        <time>2015-09-06T09:11:01Z</time>
      </trkpt>
      <trkpt lat="45.86555" lon="4.77956">
        <ele>374.09</ele>
        <time>2015-09-06T09:11:04Z</time>
      </trkpt>
      <trkpt lat="45.86579" lon="4.77948">
        <ele>370.24</ele>
        <time>2015-09-06T09:11:11Z</time>
      </trkpt>
      <trkpt lat="45.86594" lon="4.77938">
        <ele>368.8</ele>
        <time>2015-09-06T09:11:14Z</time>
      </trkpt>
      <trkpt lat="45.86618" lon="4.77924">
        <ele>364.96</ele>
        <time>2015-09-06T09:11:18Z</time>
      </trkpt>
      <trkpt lat="45.8663" lon="4.77919">
        <ele>363.52</ele>
        <time>2015-09-06T09:11:20Z</time>
      </trkpt>
      <trkpt lat="45.86647" lon="4.77914">
        <ele>360.15</ele>
        <time>2015-09-06T09:11:23Z</time>
      </trkpt>
      <trkpt lat="45.8666" lon="4.77908">
        <ele>356.79</ele>
        <time>2015-09-06T09:11:26Z</time>
      </trkpt>
      <trkpt lat="45.86686" lon="4.77897">
        <ele>351.5</ele>
        <time>2015-09-06T09:11:31Z</time>
      </trkpt>
      <trkpt lat="45.86707" lon="4.77854">
        <ele>341.41</ele>
        <time>2015-09-06T09:11:41Z</time>
      </trkpt>
      <trkpt lat="45.86711" lon="4.7783">
        <ele>338.52</ele>
        <time>2015-09-06T09:11:46Z</time>
      </trkpt>
      <trkpt lat="45.86731" lon="4.7784">
        <ele>331.31</ele>
        <time>2015-09-06T09:11:54Z</time>
      </trkpt>
      <trkpt lat="45.86743" lon="4.77849">
        <ele>329.39</ele>
        <time>2015-09-06T09:11:56Z</time>
      </trkpt>
      <trkpt lat="45.86776" lon="4.77858">
        <ele>322.66</ele>
        <time>2015-09-06T09:12:03Z</time>
      </trkpt>
      <trkpt lat="45.86801" lon="4.77852">
        <ele>318.81</ele>
        <time>2015-09-06T09:12:08Z</time>
      </trkpt>
      <trkpt lat="45.86812" lon="4.77849">
        <ele>317.37</ele>
        <time>2015-09-06T09:12:10Z</time>
      </trkpt>
      <trkpt lat="45.86821" lon="4.77849">
        <ele>315.93</ele>
        <time>2015-09-06T09:12:12Z</time>
      </trkpt>
      <trkpt lat="45.86824" lon="4.77852">
        <ele>314.97</ele>
        <time>2015-09-06T09:12:13Z</time>
      </trkpt>
      <trkpt lat="45.86827" lon="4.77855">
        <ele>314.49</ele>
        <time>2015-09-06T09:12:14Z</time>
      </trkpt>
      <trkpt lat="45.8683" lon="4.7786">
        <ele>314.01</ele>
        <time>2015-09-06T09:12:15Z</time>
      </trkpt>
      <trkpt lat="45.86832" lon="4.77864">
        <ele>313.05</ele>
        <time>2015-09-06T09:12:16Z</time>
      </trkpt>
      <trkpt lat="45.86835" lon="4.77868">
        <ele>312.57</ele>
        <time>2015-09-06T09:12:17Z</time>
      </trkpt>
      <trkpt lat="45.86838" lon="4.77871">
        <ele>312.09</ele>
        <time>2015-09-06T09:12:18Z</time>
      </trkpt>
      <trkpt lat="45.86841" lon="4.77874">
        <ele>311.6</ele>
        <time>2015-09-06T09:12:19Z</time>
      </trkpt>
      <trkpt lat="45.86844" lon="4.77876">
        <ele>310.16</ele>
        <time>2015-09-06T09:12:20Z</time>
      </trkpt>
      <trkpt lat="45.86847" lon="4.77877">
        <ele>309.2</ele>
        <time>2015-09-06T09:12:21Z</time>
      </trkpt>
      <trkpt lat="45.86852" lon="4.77877">
        <ele>308.24</ele>
        <time>2015-09-06T09:12:22Z</time>
      </trkpt>
      <trkpt lat="45.86857" lon="4.77877">
        <ele>306.8</ele>
        <time>2015-09-06T09:12:23Z</time>
      </trkpt>
      <trkpt lat="45.8687" lon="4.77876">
        <ele>304.88</ele>
        <time>2015-09-06T09:12:25Z</time>
      </trkpt>
      <trkpt lat="45.86877" lon="4.77873">
        <ele>303.91</ele>
        <time>2015-09-06T09:12:26Z</time>
      </trkpt>
      <trkpt lat="45.8691" lon="4.77855">
        <ele>300.07</ele>
        <time>2015-09-06T09:12:31Z</time>
      </trkpt>
      <trkpt lat="45.86924" lon="4.77845">
        <ele>298.15</ele>
        <time>2015-09-06T09:12:33Z</time>
      </trkpt>
      <trkpt lat="45.86956" lon="4.77818">
        <ele>292.86</ele>
        <time>2015-09-06T09:12:37Z</time>
      </trkpt>
      <trkpt lat="45.86981" lon="4.77795">
        <ele>289.49</ele>
        <time>2015-09-06T09:12:40Z</time>
      </trkpt>
      <trkpt lat="45.87034" lon="4.77735">
        <ele>281.32</ele>
        <time>2015-09-06T09:12:48Z</time>
      </trkpt>
      <trkpt lat="45.87039" lon="4.77734">
        <ele>280.84</ele>
        <time>2015-09-06T09:12:49Z</time>
      </trkpt>
      <trkpt lat="45.87044" lon="4.77736">
        <ele>280.36</ele>
        <time>2015-09-06T09:12:50Z</time>
      </trkpt>
      <trkpt lat="45.87049" lon="4.7774">
        <ele>279.4</ele>
        <time>2015-09-06T09:12:51Z</time>
      </trkpt>
      <trkpt lat="45.87054" lon="4.77745">
        <ele>278.92</ele>
        <time>2015-09-06T09:12:52Z</time>
      </trkpt>
      <trkpt lat="45.87081" lon="4.77771">
        <ele>276.52</ele>
        <time>2015-09-06T09:12:57Z</time>
      </trkpt>
      <trkpt lat="45.87087" lon="4.77771">
        <ele>276.04</ele>
        <time>2015-09-06T09:12:58Z</time>
      </trkpt>
      <trkpt lat="45.87093" lon="4.77769">
        <ele>275.56</ele>
        <time>2015-09-06T09:12:59Z</time>
      </trkpt>
      <trkpt lat="45.87098" lon="4.77764">
        <ele>275.56</ele>
        <time>2015-09-06T09:13:00Z</time>
      </trkpt>
      <trkpt lat="45.87104" lon="4.77758">
        <ele>275.07</ele>
        <time>2015-09-06T09:13:01Z</time>
      </trkpt>
      <trkpt lat="45.87109" lon="4.77751">
        <ele>274.59</ele>
        <time>2015-09-06T09:13:02Z</time>
      </trkpt>
      <trkpt lat="45.87126" lon="4.77728">
        <ele>273.15</ele>
        <time>2015-09-06T09:13:05Z</time>
      </trkpt>
      <trkpt lat="45.87132" lon="4.77721">
        <ele>272.67</ele>
        <time>2015-09-06T09:13:06Z</time>
      </trkpt>
      <trkpt lat="45.8715" lon="4.77691">
        <ele>268.83</ele>
        <time>2015-09-06T09:13:12Z</time>
      </trkpt>
      <trkpt lat="45.87146" lon="4.77683">
        <ele>268.35</ele>
        <time>2015-09-06T09:13:22Z</time>
      </trkpt>
      <trkpt lat="45.87143" lon="4.77679">
        <ele>268.35</ele>
        <time>2015-09-06T09:13:32Z</time>
      </trkpt>
      <trkpt lat="45.87142" lon="4.77678">
        <ele>268.83</ele>
        <time>2015-09-06T09:13:51Z</time>
      </trkpt>
      <trkpt lat="45.87137" lon="4.77669">
        <ele>269.31</ele>
        <time>2015-09-06T09:14:15Z</time>
      </trkpt>
      <trkpt lat="45.87124" lon="4.77643">
        <ele>268.83</ele>
        <time>2015-09-06T09:14:22Z</time>
      </trkpt>
      <trkpt lat="45.87122" lon="4.77637">
        <ele>268.35</ele>
        <time>2015-09-06T09:14:23Z</time>
      </trkpt>
      <trkpt lat="45.87118" lon="4.7761">
        <ele>267.86</ele>
        <time>2015-09-06T09:14:27Z</time>
      </trkpt>
      <trkpt lat="45.87109" lon="4.77546">
        <ele>265.46</ele>
        <time>2015-09-06T09:14:35Z</time>
      </trkpt>
      <trkpt lat="45.8711" lon="4.77537">
        <ele>264.98</ele>
        <time>2015-09-06T09:14:36Z</time>
      </trkpt>
      <trkpt lat="45.87112" lon="4.77518">
        <ele>264.5</ele>
        <time>2015-09-06T09:14:38Z</time>
      </trkpt>
      <trkpt lat="45.87112" lon="4.77509">
        <ele>264.02</ele>
        <time>2015-09-06T09:14:39Z</time>
      </trkpt>
      <trkpt lat="45.8711" lon="4.775">
        <ele>263.54</ele>
        <time>2015-09-06T09:14:40Z</time>
      </trkpt>
      <trkpt lat="45.87108" lon="4.77492">
        <ele>263.54</ele>
        <time>2015-09-06T09:14:41Z</time>
      </trkpt>
      <trkpt lat="45.87106" lon="4.77484">
        <ele>263.54</ele>
        <time>2015-09-06T09:14:42Z</time>
      </trkpt>
      <trkpt lat="45.87098" lon="4.77451">
        <ele>261.14</ele>
        <time>2015-09-06T09:14:50Z</time>
      </trkpt>
      <trkpt lat="45.871" lon="4.77449">
        <ele>261.14</ele>
        <time>2015-09-06T09:14:51Z</time>
      </trkpt>
      <trkpt lat="45.87101" lon="4.77447">
        <ele>260.65</ele>
        <time>2015-09-06T09:14:52Z</time>
      </trkpt>
      <trkpt lat="45.87104" lon="4.77446">
        <ele>260.65</ele>
        <time>2015-09-06T09:14:53Z</time>
      </trkpt>
      <trkpt lat="45.87107" lon="4.77445">
        <ele>260.65</ele>
        <time>2015-09-06T09:14:54Z</time>
      </trkpt>
      <trkpt lat="45.8711" lon="4.77443">
        <ele>260.65</ele>
        <time>2015-09-06T09:14:55Z</time>
      </trkpt>
      <trkpt lat="45.87121" lon="4.77439">
        <ele>260.65</ele>
        <time>2015-09-06T09:14:58Z</time>
      </trkpt>
      <trkpt lat="45.87125" lon="4.77438">
        <ele>260.65</ele>
        <time>2015-09-06T09:14:59Z</time>
      </trkpt>
      <trkpt lat="45.8713" lon="4.77436">
        <ele>260.65</ele>
        <time>2015-09-06T09:15:00Z</time>
      </trkpt>
      <trkpt lat="45.87144" lon="4.77431">
        <ele>259.69</ele>
        <time>2015-09-06T09:15:03Z</time>
      </trkpt>
      <trkpt lat="45.87189" lon="4.77407">
        <ele>257.77</ele>
        <time>2015-09-06T09:15:11Z</time>
      </trkpt>
      <trkpt lat="45.87193" lon="4.77401">
        <ele>257.77</ele>
        <time>2015-09-06T09:15:12Z</time>
      </trkpt>
      <trkpt lat="45.87195" lon="4.77394">
        <ele>257.29</ele>
        <time>2015-09-06T09:15:13Z</time>
      </trkpt>
      <trkpt lat="45.87195" lon="4.77385">
        <ele>257.77</ele>
        <time>2015-09-06T09:15:14Z</time>
      </trkpt>
      <trkpt lat="45.87194" lon="4.77377">
        <ele>257.77</ele>
        <time>2015-09-06T09:15:15Z</time>
      </trkpt>
      <trkpt lat="45.87193" lon="4.7731">
        <ele>258.73</ele>
        <time>2015-09-06T09:15:26Z</time>
      </trkpt>
      <trkpt lat="45.87196" lon="4.77306">
        <ele>258.73</ele>
        <time>2015-09-06T09:15:36Z</time>
      </trkpt>
      <trkpt lat="45.87194" lon="4.77305">
        <ele>256.33</ele>
        <time>2015-09-06T09:15:55Z</time>
      </trkpt>
      <trkpt lat="45.87193" lon="4.77305">
        <ele>256.33</ele>
        <time>2015-09-06T09:16:24Z</time>
      </trkpt>
      <trkpt lat="45.87193" lon="4.77306">
        <ele>254.89</ele>
        <time>2015-09-06T09:16:56Z</time>
      </trkpt>
      <trkpt lat="45.87194" lon="4.77307">
        <ele>254.41</ele>
        <time>2015-09-06T09:17:27Z</time>
      </trkpt>
      <trkpt lat="45.87194" lon="4.77309">
        <ele>255.37</ele>
        <time>2015-09-06T09:18:00Z</time>
      </trkpt>
      <trkpt lat="45.87195" lon="4.77309">
        <ele>255.85</ele>
        <time>2015-09-06T09:18:28Z</time>
      </trkpt>
      <trkpt lat="45.87195" lon="4.77309">
        <ele>256.33</ele>
        <time>2015-09-06T09:18:56Z</time>
      </trkpt>
      <trkpt lat="45.87195" lon="4.77308">
        <ele>256.33</ele>
        <time>2015-09-06T09:19:16Z</time>
      </trkpt>
      <trkpt lat="45.87195" lon="4.77309">
        <ele>256.33</ele>
        <time>2015-09-06T09:19:28Z</time>
      </trkpt>
      <trkpt lat="45.87194" lon="4.77308">
        <ele>255.85</ele>
        <time>2015-09-06T09:19:30Z</time>
      </trkpt>
      <trkpt lat="45.87193" lon="4.77306">
        <ele>255.85</ele>
        <time>2015-09-06T09:19:31Z</time>
      </trkpt>
      <trkpt lat="45.87194" lon="4.77305">
        <ele>255.37</ele>
        <time>2015-09-06T09:19:32Z</time>
      </trkpt>
      <trkpt lat="45.87194" lon="4.77304">
        <ele>255.37</ele>
        <time>2015-09-06T09:19:33Z</time>
      </trkpt>
      <trkpt lat="45.87195" lon="4.77302">
        <ele>254.89</ele>
        <time>2015-09-06T09:19:34Z</time>
      </trkpt>
      <trkpt lat="45.87215" lon="4.77287">
        <ele>253.44</ele>
        <time>2015-09-06T09:19:43Z</time>
      </trkpt>
      <trkpt lat="45.87221" lon="4.77284">
        <ele>252.48</ele>
        <time>2015-09-06T09:19:51Z</time>
      </trkpt>
      <trkpt lat="45.87239" lon="4.77252">
        <ele>250.08</ele>
        <time>2015-09-06T09:19:59Z</time>
      </trkpt>
      <trkpt lat="45.87246" lon="4.77207">
        <ele>247.2</ele>
        <time>2015-09-06T09:20:10Z</time>
      </trkpt>
      <trkpt lat="45.87258" lon="4.7716">
        <ele>247.68</ele>
        <time>2015-09-06T09:20:21Z</time>
      </trkpt>
      <trkpt lat="45.87259" lon="4.77151">
        <ele>247.68</ele>
        <time>2015-09-06T09:20:23Z</time>
      </trkpt>
      <trkpt lat="45.87257" lon="4.77145">
        <ele>247.68</ele>
        <time>2015-09-06T09:20:24Z</time>
      </trkpt>
      <trkpt lat="45.87255" lon="4.77142">
        <ele>247.68</ele>
        <time>2015-09-06T09:20:25Z</time>
      </trkpt>
      <trkpt lat="45.87252" lon="4.77139">
        <ele>247.68</ele>
        <time>2015-09-06T09:20:26Z</time>
      </trkpt>
      <trkpt lat="45.8725" lon="4.77137">
        <ele>247.2</ele>
        <time>2015-09-06T09:20:27Z</time>
      </trkpt>
      <trkpt lat="45.87247" lon="4.77137">
        <ele>247.2</ele>
        <time>2015-09-06T09:20:28Z</time>
      </trkpt>
      <trkpt lat="45.87245" lon="4.77137">
        <ele>247.2</ele>
        <time>2015-09-06T09:20:29Z</time>
      </trkpt>
      <trkpt lat="45.87243" lon="4.77136">
        <ele>247.2</ele>
        <time>2015-09-06T09:20:30Z</time>
      </trkpt>
      <trkpt lat="45.87242" lon="4.77136">
        <ele>247.2</ele>
        <time>2015-09-06T09:20:31Z</time>
      </trkpt>
      <trkpt lat="45.87217" lon="4.77135">
        <ele>247.68</ele>
        <time>2015-09-06T09:20:44Z</time>
      </trkpt>
      <trkpt lat="45.87186" lon="4.77138">
        <ele>251.52</ele>
        <time>2015-09-06T09:20:59Z</time>
      </trkpt>
      <trkpt lat="45.87184" lon="4.77139">
        <ele>252</ele>
        <time>2015-09-06T09:21:00Z</time>
      </trkpt>
      <trkpt lat="45.87182" lon="4.7714">
        <ele>252.48</ele>
        <time>2015-09-06T09:21:01Z</time>
      </trkpt>
      <trkpt lat="45.87179" lon="4.7714">
        <ele>252.96</ele>
        <time>2015-09-06T09:21:02Z</time>
      </trkpt>
      <trkpt lat="45.87177" lon="4.7714">
        <ele>252.96</ele>
        <time>2015-09-06T09:21:03Z</time>
      </trkpt>
      <trkpt lat="45.87143" lon="4.77139">
        <ele>260.17</ele>
        <time>2015-09-06T09:21:20Z</time>
      </trkpt>
      <trkpt lat="45.87109" lon="4.77142">
        <ele>266.42</ele>
        <time>2015-09-06T09:21:38Z</time>
      </trkpt>
      <trkpt lat="45.87075" lon="4.77143">
        <ele>266.42</ele>
        <time>2015-09-06T09:21:56Z</time>
      </trkpt>
      <trkpt lat="45.87043" lon="4.77146">
        <ele>269.79</ele>
        <time>2015-09-06T09:22:12Z</time>
      </trkpt>
      <trkpt lat="45.87014" lon="4.77144">
        <ele>272.19</ele>
        <time>2015-09-06T09:22:27Z</time>
      </trkpt>
      <trkpt lat="45.86996" lon="4.77145">
        <ele>273.63</ele>
        <time>2015-09-06T09:22:37Z</time>
      </trkpt>
      <trkpt lat="45.86994" lon="4.77144">
        <ele>273.63</ele>
        <time>2015-09-06T09:22:38Z</time>
      </trkpt>
      <trkpt lat="45.86974" lon="4.77125">
        <ele>277.96</ele>
        <time>2015-09-06T09:22:52Z</time>
      </trkpt>
      <trkpt lat="45.86972" lon="4.7712">
        <ele>277.96</ele>
        <time>2015-09-06T09:22:54Z</time>
      </trkpt>
      <trkpt lat="45.86971" lon="4.77118">
        <ele>277.48</ele>
        <time>2015-09-06T09:22:55Z</time>
      </trkpt>
      <trkpt lat="45.86966" lon="4.77107">
        <ele>276.04</ele>
        <time>2015-09-06T09:23:00Z</time>
      </trkpt>
      <trkpt lat="45.86952" lon="4.77078">
        <ele>274.59</ele>
        <time>2015-09-06T09:23:13Z</time>
      </trkpt>
      <trkpt lat="45.8694" lon="4.77054">
        <ele>275.56</ele>
        <time>2015-09-06T09:23:25Z</time>
      </trkpt>
      <trkpt lat="45.8693" lon="4.76995">
        <ele>273.63</ele>
        <time>2015-09-06T09:23:39Z</time>
      </trkpt>
      <trkpt lat="45.86927" lon="4.76946">
        <ele>274.59</ele>
        <time>2015-09-06T09:23:50Z</time>
      </trkpt>
      <trkpt lat="45.86925" lon="4.76945">
        <ele>274.59</ele>
        <time>2015-09-06T09:23:51Z</time>
      </trkpt>
      <trkpt lat="45.86923" lon="4.76944">
        <ele>274.59</ele>
        <time>2015-09-06T09:23:52Z</time>
      </trkpt>
      <trkpt lat="45.86894" lon="4.76927">
        <ele>277</ele>
        <time>2015-09-06T09:24:08Z</time>
      </trkpt>
      <trkpt lat="45.86875" lon="4.76915">
        <ele>278.44</ele>
        <time>2015-09-06T09:24:21Z</time>
      </trkpt>
      <trkpt lat="45.86849" lon="4.76905">
        <ele>279.88</ele>
        <time>2015-09-06T09:24:36Z</time>
      </trkpt>
      <trkpt lat="45.86828" lon="4.76898">
        <ele>281.8</ele>
        <time>2015-09-06T09:24:50Z</time>
      </trkpt>
      <trkpt lat="45.86813" lon="4.76892">
        <ele>282.77</ele>
        <time>2015-09-06T09:25:00Z</time>
      </trkpt>
      <trkpt lat="45.86799" lon="4.76881">
        <ele>282.77</ele>
        <time>2015-09-06T09:25:10Z</time>
      </trkpt>
      <trkpt lat="45.86772" lon="4.76861">
        <ele>285.17</ele>
        <time>2015-09-06T09:25:27Z</time>
      </trkpt>
      <trkpt lat="45.86758" lon="4.76826">
        <ele>287.57</ele>
        <time>2015-09-06T09:25:42Z</time>
      </trkpt>
      <trkpt lat="45.86743" lon="4.76799">
        <ele>289.97</ele>
        <time>2015-09-06T09:25:55Z</time>
      </trkpt>
      <trkpt lat="45.8672" lon="4.76801">
        <ele>292.38</ele>
        <time>2015-09-06T09:26:09Z</time>
      </trkpt>
      <trkpt lat="45.86689" lon="4.76821">
        <ele>296.22</ele>
        <time>2015-09-06T09:26:29Z</time>
      </trkpt>
      <trkpt lat="45.86667" lon="4.76839">
        <ele>298.15</ele>
        <time>2015-09-06T09:26:44Z</time>
      </trkpt>
      <trkpt lat="45.86646" lon="4.76854">
        <ele>301.51</ele>
        <time>2015-09-06T09:26:59Z</time>
      </trkpt>
      <trkpt lat="45.86619" lon="4.76875">
        <ele>302.95</ele>
        <time>2015-09-06T09:27:17Z</time>
      </trkpt>
      <trkpt lat="45.86592" lon="4.76895">
        <ele>305.84</ele>
        <time>2015-09-06T09:27:35Z</time>
      </trkpt>
      <trkpt lat="45.86569" lon="4.76914">
        <ele>307.76</ele>
        <time>2015-09-06T09:27:52Z</time>
      </trkpt>
      <trkpt lat="45.86552" lon="4.76928">
        <ele>310.16</ele>
        <time>2015-09-06T09:28:06Z</time>
      </trkpt>
      <trkpt lat="45.86542" lon="4.76938">
        <ele>312.57</ele>
        <time>2015-09-06T09:28:18Z</time>
      </trkpt>
      <trkpt lat="45.86526" lon="4.7695">
        <ele>315.45</ele>
        <time>2015-09-06T09:28:34Z</time>
      </trkpt>
      <trkpt lat="45.8652" lon="4.76954">
        <ele>315.45</ele>
        <time>2015-09-06T09:28:40Z</time>
      </trkpt>
      <trkpt lat="45.86519" lon="4.76954">
        <ele>315.45</ele>
        <time>2015-09-06T09:28:41Z</time>
      </trkpt>
      <trkpt lat="45.86502" lon="4.76962">
        <ele>317.37</ele>
        <time>2015-09-06T09:28:55Z</time>
      </trkpt>
      <trkpt lat="45.8649" lon="4.76963">
        <ele>319.3</ele>
        <time>2015-09-06T09:29:05Z</time>
      </trkpt>
      <trkpt lat="45.86481" lon="4.76964">
        <ele>321.22</ele>
        <time>2015-09-06T09:29:13Z</time>
      </trkpt>
      <trkpt lat="45.86475" lon="4.76964">
        <ele>322.66</ele>
        <time>2015-09-06T09:29:19Z</time>
      </trkpt>
      <trkpt lat="45.86473" lon="4.76964">
        <ele>322.66</ele>
        <time>2015-09-06T09:29:20Z</time>
      </trkpt>
      <trkpt lat="45.86455" lon="4.76964">
        <ele>324.1</ele>
        <time>2015-09-06T09:29:34Z</time>
      </trkpt>
      <trkpt lat="45.86438" lon="4.7696">
        <ele>326.5</ele>
        <time>2015-09-06T09:29:49Z</time>
      </trkpt>
      <trkpt lat="45.86422" lon="4.76949">
        <ele>328.91</ele>
        <time>2015-09-06T09:30:02Z</time>
      </trkpt>
      <trkpt lat="45.86406" lon="4.76936">
        <ele>330.83</ele>
        <time>2015-09-06T09:30:16Z</time>
      </trkpt>
      <trkpt lat="45.86398" lon="4.76931">
        <ele>332.75</ele>
        <time>2015-09-06T09:30:22Z</time>
      </trkpt>
      <trkpt lat="45.86397" lon="4.76931">
        <ele>332.75</ele>
        <time>2015-09-06T09:30:23Z</time>
      </trkpt>
      <trkpt lat="45.86396" lon="4.7693">
        <ele>333.23</ele>
        <time>2015-09-06T09:30:24Z</time>
      </trkpt>
      <trkpt lat="45.8637" lon="4.76921">
        <ele>336.6</ele>
        <time>2015-09-06T09:30:40Z</time>
      </trkpt>
      <trkpt lat="45.86342" lon="4.76914">
        <ele>339</ele>
        <time>2015-09-06T09:30:55Z</time>
      </trkpt>
      <trkpt lat="45.86307" lon="4.76912">
        <ele>340.44</ele>
        <time>2015-09-06T09:31:12Z</time>
      </trkpt>
      <trkpt lat="45.86279" lon="4.76907">
        <ele>339.96</ele>
        <time>2015-09-06T09:31:27Z</time>
      </trkpt>
      <trkpt lat="45.86252" lon="4.76904">
        <ele>339.48</ele>
        <time>2015-09-06T09:31:41Z</time>
      </trkpt>
      <trkpt lat="45.86222" lon="4.76903">
        <ele>339.48</ele>
        <time>2015-09-06T09:31:56Z</time>
      </trkpt>
      <trkpt lat="45.86194" lon="4.76919">
        <ele>340.44</ele>
        <time>2015-09-06T09:32:13Z</time>
      </trkpt>
      <trkpt lat="45.86171" lon="4.76938">
        <ele>340.44</ele>
        <time>2015-09-06T09:32:27Z</time>
      </trkpt>
      <trkpt lat="45.86147" lon="4.76948">
        <ele>342.37</ele>
        <time>2015-09-06T09:32:41Z</time>
      </trkpt>
      <trkpt lat="45.86145" lon="4.76948">
        <ele>342.37</ele>
        <time>2015-09-06T09:32:42Z</time>
      </trkpt>
      <trkpt lat="45.86144" lon="4.76949">
        <ele>342.85</ele>
        <time>2015-09-06T09:32:43Z</time>
      </trkpt>
      <trkpt lat="45.86114" lon="4.76961">
        <ele>345.25</ele>
        <time>2015-09-06T09:33:00Z</time>
      </trkpt>
      <trkpt lat="45.8609" lon="4.76974">
        <ele>348.62</ele>
        <time>2015-09-06T09:33:15Z</time>
      </trkpt>
      <trkpt lat="45.86067" lon="4.76983">
        <ele>353.9</ele>
        <time>2015-09-06T09:33:32Z</time>
      </trkpt>
      <trkpt lat="45.86066" lon="4.76984">
        <ele>354.38</ele>
        <time>2015-09-06T09:33:33Z</time>
      </trkpt>
      <trkpt lat="45.86065" lon="4.76985">
        <ele>354.86</ele>
        <time>2015-09-06T09:33:34Z</time>
      </trkpt>
      <trkpt lat="45.86042" lon="4.76993">
        <ele>356.79</ele>
        <time>2015-09-06T09:33:50Z</time>
      </trkpt>
      <trkpt lat="45.86017" lon="4.76998">
        <ele>356.31</ele>
        <time>2015-09-06T09:34:07Z</time>
      </trkpt>
      <trkpt lat="45.85994" lon="4.77">
        <ele>359.19</ele>
        <time>2015-09-06T09:34:22Z</time>
      </trkpt>
      <trkpt lat="45.85976" lon="4.77005">
        <ele>360.63</ele>
        <time>2015-09-06T09:34:35Z</time>
      </trkpt>
      <trkpt lat="45.85974" lon="4.77005">
        <ele>360.15</ele>
        <time>2015-09-06T09:34:36Z</time>
      </trkpt>
      <trkpt lat="45.85972" lon="4.77006">
        <ele>360.15</ele>
        <time>2015-09-06T09:34:37Z</time>
      </trkpt>
      <trkpt lat="45.85959" lon="4.77018">
        <ele>357.75</ele>
        <time>2015-09-06T09:34:50Z</time>
      </trkpt>
      <trkpt lat="45.85955" lon="4.77021">
        <ele>358.71</ele>
        <time>2015-09-06T09:34:53Z</time>
      </trkpt>
      <trkpt lat="45.85953" lon="4.77022">
        <ele>358.71</ele>
        <time>2015-09-06T09:34:54Z</time>
      </trkpt>
      <trkpt lat="45.85951" lon="4.77022">
        <ele>359.19</ele>
        <time>2015-09-06T09:34:55Z</time>
      </trkpt>
      <trkpt lat="45.85934" lon="4.77033">
        <ele>359.67</ele>
        <time>2015-09-06T09:35:07Z</time>
      </trkpt>
      <trkpt lat="45.85932" lon="4.77034">
        <ele>359.67</ele>
        <time>2015-09-06T09:35:08Z</time>
      </trkpt>
      <trkpt lat="45.8593" lon="4.77035">
        <ele>360.15</ele>
        <time>2015-09-06T09:35:09Z</time>
      </trkpt>
      <trkpt lat="45.85926" lon="4.77037">
        <ele>360.63</ele>
        <time>2015-09-06T09:35:12Z</time>
      </trkpt>
      <trkpt lat="45.85918" lon="4.77038">
        <ele>361.59</ele>
        <time>2015-09-06T09:35:25Z</time>
      </trkpt>
      <trkpt lat="45.85915" lon="4.7704">
        <ele>362.55</ele>
        <time>2015-09-06T09:35:57Z</time>
      </trkpt>
      <trkpt lat="45.85912" lon="4.77036">
        <ele>363.52</ele>
        <time>2015-09-06T09:36:03Z</time>
      </trkpt>
      <trkpt lat="45.85912" lon="4.77034">
        <ele>363.52</ele>
        <time>2015-09-06T09:36:04Z</time>
      </trkpt>
      <trkpt lat="45.85911" lon="4.77032">
        <ele>364</ele>
        <time>2015-09-06T09:36:05Z</time>
      </trkpt>
      <trkpt lat="45.85911" lon="4.7703">
        <ele>364.48</ele>
        <time>2015-09-06T09:36:06Z</time>
      </trkpt>
      <trkpt lat="45.8591" lon="4.77028">
        <ele>364.48</ele>
        <time>2015-09-06T09:36:07Z</time>
      </trkpt>
      <trkpt lat="45.8591" lon="4.77026">
        <ele>364.96</ele>
        <time>2015-09-06T09:36:08Z</time>
      </trkpt>
      <trkpt lat="45.85909" lon="4.77024">
        <ele>364.96</ele>
        <time>2015-09-06T09:36:09Z</time>
      </trkpt>
      <trkpt lat="45.85908" lon="4.77021">
        <ele>364.96</ele>
        <time>2015-09-06T09:36:10Z</time>
      </trkpt>
      <trkpt lat="45.85908" lon="4.77018">
        <ele>365.44</ele>
        <time>2015-09-06T09:36:11Z</time>
      </trkpt>
      <trkpt lat="45.85908" lon="4.77016">
        <ele>365.92</ele>
        <time>2015-09-06T09:36:12Z</time>
      </trkpt>
      <trkpt lat="45.85907" lon="4.77013">
        <ele>366.4</ele>
        <time>2015-09-06T09:36:13Z</time>
      </trkpt>
      <trkpt lat="45.85908" lon="4.7701">
        <ele>366.4</ele>
        <time>2015-09-06T09:36:14Z</time>
      </trkpt>
      <trkpt lat="45.85904" lon="4.76963">
        <ele>369.76</ele>
        <time>2015-09-06T09:36:28Z</time>
      </trkpt>
      <trkpt lat="45.8588" lon="4.76944">
        <ele>372.17</ele>
        <time>2015-09-06T09:36:41Z</time>
      </trkpt>
      <trkpt lat="45.85856" lon="4.76943">
        <ele>373.13</ele>
        <time>2015-09-06T09:36:55Z</time>
      </trkpt>
      <trkpt lat="45.85834" lon="4.76949">
        <ele>374.57</ele>
        <time>2015-09-06T09:37:08Z</time>
      </trkpt>
      <trkpt lat="45.85833" lon="4.76949">
        <ele>374.57</ele>
        <time>2015-09-06T09:37:09Z</time>
      </trkpt>
      <trkpt lat="45.85832" lon="4.76949">
        <ele>374.57</ele>
        <time>2015-09-06T09:37:10Z</time>
      </trkpt>
      <trkpt lat="45.8583" lon="4.76949">
        <ele>374.57</ele>
        <time>2015-09-06T09:37:11Z</time>
      </trkpt>
      <trkpt lat="45.85829" lon="4.76949">
        <ele>374.57</ele>
        <time>2015-09-06T09:37:12Z</time>
      </trkpt>
      <trkpt lat="45.85827" lon="4.7695">
        <ele>374.57</ele>
        <time>2015-09-06T09:37:13Z</time>
      </trkpt>
      <trkpt lat="45.85803" lon="4.76954">
        <ele>375.53</ele>
        <time>2015-09-06T09:37:27Z</time>
      </trkpt>
      <trkpt lat="45.85775" lon="4.76956">
        <ele>376.49</ele>
        <time>2015-09-06T09:37:41Z</time>
      </trkpt>
      <trkpt lat="45.85757" lon="4.76953">
        <ele>379.38</ele>
        <time>2015-09-06T09:37:51Z</time>
      </trkpt>
      <trkpt lat="45.85755" lon="4.76954">
        <ele>379.38</ele>
        <time>2015-09-06T09:37:52Z</time>
      </trkpt>
      <trkpt lat="45.85754" lon="4.76955">
        <ele>379.38</ele>
        <time>2015-09-06T09:37:53Z</time>
      </trkpt>
      <trkpt lat="45.85752" lon="4.76955">
        <ele>379.38</ele>
        <time>2015-09-06T09:37:54Z</time>
      </trkpt>
      <trkpt lat="45.8575" lon="4.76956">
        <ele>378.9</ele>
        <time>2015-09-06T09:37:55Z</time>
      </trkpt>
      <trkpt lat="45.85748" lon="4.76956">
        <ele>378.9</ele>
        <time>2015-09-06T09:37:56Z</time>
      </trkpt>
      <trkpt lat="45.85747" lon="4.76956">
        <ele>378.9</ele>
        <time>2015-09-06T09:37:57Z</time>
      </trkpt>
      <trkpt lat="45.85745" lon="4.76956">
        <ele>378.9</ele>
        <time>2015-09-06T09:37:58Z</time>
      </trkpt>
      <trkpt lat="45.85721" lon="4.76964">
        <ele>379.38</ele>
        <time>2015-09-06T09:38:10Z</time>
      </trkpt>
      <trkpt lat="45.85693" lon="4.76966">
        <ele>381.78</ele>
        <time>2015-09-06T09:38:22Z</time>
      </trkpt>
      <trkpt lat="45.85664" lon="4.76971">
        <ele>381.78</ele>
        <time>2015-09-06T09:38:32Z</time>
      </trkpt>
      <trkpt lat="45.85616" lon="4.76971">
        <ele>379.86</ele>
        <time>2015-09-06T09:38:43Z</time>
      </trkpt>
      <trkpt lat="45.85611" lon="4.76974">
        <ele>379.38</ele>
        <time>2015-09-06T09:38:44Z</time>
      </trkpt>
      <trkpt lat="45.85607" lon="4.76978">
        <ele>379.38</ele>
        <time>2015-09-06T09:38:45Z</time>
      </trkpt>
      <trkpt lat="45.85602" lon="4.76983">
        <ele>379.38</ele>
        <time>2015-09-06T09:38:46Z</time>
      </trkpt>
      <trkpt lat="45.85597" lon="4.76987">
        <ele>378.9</ele>
        <time>2015-09-06T09:38:47Z</time>
      </trkpt>
      <trkpt lat="45.85592" lon="4.76989">
        <ele>378.9</ele>
        <time>2015-09-06T09:38:48Z</time>
      </trkpt>
      <trkpt lat="45.85587" lon="4.76991">
        <ele>378.9</ele>
        <time>2015-09-06T09:38:49Z</time>
      </trkpt>
      <trkpt lat="45.85582" lon="4.76992">
        <ele>378.42</ele>
        <time>2015-09-06T09:38:50Z</time>
      </trkpt>
      <trkpt lat="45.85576" lon="4.7699">
        <ele>378.42</ele>
        <time>2015-09-06T09:38:51Z</time>
      </trkpt>
      <trkpt lat="45.85572" lon="4.76987">
        <ele>378.42</ele>
        <time>2015-09-06T09:38:52Z</time>
      </trkpt>
      <trkpt lat="45.85568" lon="4.76983">
        <ele>378.42</ele>
        <time>2015-09-06T09:38:53Z</time>
      </trkpt>
      <trkpt lat="45.85565" lon="4.76978">
        <ele>377.94</ele>
        <time>2015-09-06T09:38:54Z</time>
      </trkpt>
      <trkpt lat="45.85562" lon="4.76973">
        <ele>377.94</ele>
        <time>2015-09-06T09:38:55Z</time>
      </trkpt>
      <trkpt lat="45.85561" lon="4.76968">
        <ele>377.94</ele>
        <time>2015-09-06T09:38:56Z</time>
      </trkpt>
      <trkpt lat="45.8556" lon="4.76963">
        <ele>377.45</ele>
        <time>2015-09-06T09:38:57Z</time>
      </trkpt>
      <trkpt lat="45.8556" lon="4.76957">
        <ele>377.45</ele>
        <time>2015-09-06T09:38:58Z</time>
      </trkpt>
      <trkpt lat="45.8556" lon="4.76953">
        <ele>377.45</ele>
        <time>2015-09-06T09:38:59Z</time>
      </trkpt>
      <trkpt lat="45.8556" lon="4.76949">
        <ele>377.45</ele>
        <time>2015-09-06T09:39:00Z</time>
      </trkpt>
      <trkpt lat="45.85561" lon="4.76945">
        <ele>376.97</ele>
        <time>2015-09-06T09:39:01Z</time>
      </trkpt>
      <trkpt lat="45.85561" lon="4.7694">
        <ele>377.45</ele>
        <time>2015-09-06T09:39:02Z</time>
      </trkpt>
      <trkpt lat="45.85569" lon="4.76906">
        <ele>377.94</ele>
        <time>2015-09-06T09:39:12Z</time>
      </trkpt>
      <trkpt lat="45.85577" lon="4.76876">
        <ele>380.34</ele>
        <time>2015-09-06T09:39:23Z</time>
      </trkpt>
      <trkpt lat="45.8558" lon="4.76853">
        <ele>383.7</ele>
        <time>2015-09-06T09:39:30Z</time>
      </trkpt>
      <trkpt lat="45.8558" lon="4.7685">
        <ele>384.18</ele>
        <time>2015-09-06T09:39:31Z</time>
      </trkpt>
      <trkpt lat="45.8558" lon="4.76846">
        <ele>384.66</ele>
        <time>2015-09-06T09:39:32Z</time>
      </trkpt>
      <trkpt lat="45.8558" lon="4.76843">
        <ele>385.15</ele>
        <time>2015-09-06T09:39:33Z</time>
      </trkpt>
      <trkpt lat="45.8558" lon="4.76839">
        <ele>385.15</ele>
        <time>2015-09-06T09:39:34Z</time>
      </trkpt>
      <trkpt lat="45.85579" lon="4.76836">
        <ele>385.15</ele>
        <time>2015-09-06T09:39:35Z</time>
      </trkpt>
      <trkpt lat="45.85577" lon="4.76833">
        <ele>385.15</ele>
        <time>2015-09-06T09:39:36Z</time>
      </trkpt>
      <trkpt lat="45.85576" lon="4.7683">
        <ele>385.63</ele>
        <time>2015-09-06T09:39:37Z</time>
      </trkpt>
      <trkpt lat="45.85574" lon="4.76828">
        <ele>385.63</ele>
        <time>2015-09-06T09:39:38Z</time>
      </trkpt>
      <trkpt lat="45.85573" lon="4.76826">
        <ele>385.63</ele>
        <time>2015-09-06T09:39:39Z</time>
      </trkpt>
      <trkpt lat="45.8554" lon="4.76805">
        <ele>387.07</ele>
        <time>2015-09-06T09:39:55Z</time>
      </trkpt>
      <trkpt lat="45.85508" lon="4.76788">
        <ele>387.07</ele>
        <time>2015-09-06T09:40:10Z</time>
      </trkpt>
      <trkpt lat="45.85475" lon="4.76772">
        <ele>387.07</ele>
        <time>2015-09-06T09:40:26Z</time>
      </trkpt>
      <trkpt lat="45.85449" lon="4.76763">
        <ele>389.47</ele>
        <time>2015-09-06T09:40:37Z</time>
      </trkpt>
      <trkpt lat="45.85433" lon="4.7675">
        <ele>390.43</ele>
        <time>2015-09-06T09:40:47Z</time>
      </trkpt>
      <trkpt lat="45.85427" lon="4.76744">
        <ele>389.47</ele>
        <time>2015-09-06T09:40:49Z</time>
      </trkpt>
      <trkpt lat="45.85423" lon="4.76738">
        <ele>388.51</ele>
        <time>2015-09-06T09:40:50Z</time>
      </trkpt>
      <trkpt lat="45.85405" lon="4.76711">
        <ele>385.63</ele>
        <time>2015-09-06T09:40:54Z</time>
      </trkpt>
      <trkpt lat="45.85387" lon="4.76687">
        <ele>383.7</ele>
        <time>2015-09-06T09:40:57Z</time>
      </trkpt>
      <trkpt lat="45.8538" lon="4.76681">
        <ele>382.74</ele>
        <time>2015-09-06T09:40:58Z</time>
      </trkpt>
      <trkpt lat="45.85375" lon="4.76677">
        <ele>381.78</ele>
        <time>2015-09-06T09:40:59Z</time>
      </trkpt>
      <trkpt lat="45.85365" lon="4.76668">
        <ele>380.34</ele>
        <time>2015-09-06T09:41:01Z</time>
      </trkpt>
      <trkpt lat="45.85365" lon="4.76661">
        <ele>379.38</ele>
        <time>2015-09-06T09:41:02Z</time>
      </trkpt>
      <trkpt lat="45.85368" lon="4.76655">
        <ele>378.42</ele>
        <time>2015-09-06T09:41:03Z</time>
      </trkpt>
      <trkpt lat="45.85372" lon="4.76647">
        <ele>377.94</ele>
        <time>2015-09-06T09:41:04Z</time>
      </trkpt>
      <trkpt lat="45.85377" lon="4.76641">
        <ele>376.97</ele>
        <time>2015-09-06T09:41:05Z</time>
      </trkpt>
      <trkpt lat="45.85382" lon="4.76635">
        <ele>376.01</ele>
        <time>2015-09-06T09:41:06Z</time>
      </trkpt>
      <trkpt lat="45.85388" lon="4.7663">
        <ele>375.05</ele>
        <time>2015-09-06T09:41:07Z</time>
      </trkpt>
      <trkpt lat="45.85394" lon="4.76624">
        <ele>374.09</ele>
        <time>2015-09-06T09:41:08Z</time>
      </trkpt>
      <trkpt lat="45.85401" lon="4.7662">
        <ele>373.13</ele>
        <time>2015-09-06T09:41:09Z</time>
      </trkpt>
      <trkpt lat="45.85414" lon="4.76614">
        <ele>371.69</ele>
        <time>2015-09-06T09:41:11Z</time>
      </trkpt>
      <trkpt lat="45.8542" lon="4.76613">
        <ele>370.24</ele>
        <time>2015-09-06T09:41:12Z</time>
      </trkpt>
      <trkpt lat="45.85459" lon="4.76617">
        <ele>362.55</ele>
        <time>2015-09-06T09:41:19Z</time>
      </trkpt>
      <trkpt lat="45.8547" lon="4.76614">
        <ele>360.15</ele>
        <time>2015-09-06T09:41:21Z</time>
      </trkpt>
      <trkpt lat="45.85475" lon="4.7661">
        <ele>359.19</ele>
        <time>2015-09-06T09:41:22Z</time>
      </trkpt>
      <trkpt lat="45.85481" lon="4.76605">
        <ele>357.75</ele>
        <time>2015-09-06T09:41:23Z</time>
      </trkpt>
      <trkpt lat="45.85492" lon="4.76592">
        <ele>355.83</ele>
        <time>2015-09-06T09:41:25Z</time>
      </trkpt>
      <trkpt lat="45.85503" lon="4.76579">
        <ele>353.9</ele>
        <time>2015-09-06T09:41:27Z</time>
      </trkpt>
      <trkpt lat="45.85509" lon="4.76577">
        <ele>352.94</ele>
        <time>2015-09-06T09:41:28Z</time>
      </trkpt>
      <trkpt lat="45.85515" lon="4.7658">
        <ele>351.98</ele>
        <time>2015-09-06T09:41:29Z</time>
      </trkpt>
      <trkpt lat="45.85527" lon="4.76586">
        <ele>350.54</ele>
        <time>2015-09-06T09:41:31Z</time>
      </trkpt>
      <trkpt lat="45.85534" lon="4.76589">
        <ele>350.06</ele>
        <time>2015-09-06T09:41:32Z</time>
      </trkpt>
      <trkpt lat="45.8554" lon="4.76592">
        <ele>349.58</ele>
        <time>2015-09-06T09:41:33Z</time>
      </trkpt>
      <trkpt lat="45.85553" lon="4.76595">
        <ele>348.13</ele>
        <time>2015-09-06T09:41:35Z</time>
      </trkpt>
      <trkpt lat="45.8556" lon="4.76594">
        <ele>347.17</ele>
        <time>2015-09-06T09:41:36Z</time>
      </trkpt>
      <trkpt lat="45.85567" lon="4.76592">
        <ele>346.21</ele>
        <time>2015-09-06T09:41:37Z</time>
      </trkpt>
      <trkpt lat="45.85575" lon="4.76589">
        <ele>345.73</ele>
        <time>2015-09-06T09:41:38Z</time>
      </trkpt>
      <trkpt lat="45.85583" lon="4.76585">
        <ele>344.77</ele>
        <time>2015-09-06T09:41:39Z</time>
      </trkpt>
      <trkpt lat="45.85591" lon="4.76578">
        <ele>343.81</ele>
        <time>2015-09-06T09:41:40Z</time>
      </trkpt>
      <trkpt lat="45.85598" lon="4.7657">
        <ele>343.33</ele>
        <time>2015-09-06T09:41:41Z</time>
      </trkpt>
      <trkpt lat="45.85604" lon="4.76561">
        <ele>342.37</ele>
        <time>2015-09-06T09:41:42Z</time>
      </trkpt>
      <trkpt lat="45.8561" lon="4.76551">
        <ele>341.89</ele>
        <time>2015-09-06T09:41:43Z</time>
      </trkpt>
      <trkpt lat="45.8562" lon="4.76532">
        <ele>340.44</ele>
        <time>2015-09-06T09:41:45Z</time>
      </trkpt>
      <trkpt lat="45.85627" lon="4.76525">
        <ele>339.96</ele>
        <time>2015-09-06T09:41:46Z</time>
      </trkpt>
      <trkpt lat="45.85634" lon="4.76518">
        <ele>339.48</ele>
        <time>2015-09-06T09:41:47Z</time>
      </trkpt>
      <trkpt lat="45.85643" lon="4.76512">
        <ele>339</ele>
        <time>2015-09-06T09:41:48Z</time>
      </trkpt>
      <trkpt lat="45.8565" lon="4.76505">
        <ele>338.04</ele>
        <time>2015-09-06T09:41:49Z</time>
      </trkpt>
      <trkpt lat="45.85658" lon="4.765">
        <ele>338.04</ele>
        <time>2015-09-06T09:41:50Z</time>
      </trkpt>
      <trkpt lat="45.85665" lon="4.76493">
        <ele>337.56</ele>
        <time>2015-09-06T09:41:51Z</time>
      </trkpt>
      <trkpt lat="45.85706" lon="4.76436">
        <ele>333.23</ele>
        <time>2015-09-06T09:41:57Z</time>
      </trkpt>
      <trkpt lat="45.85712" lon="4.76427">
        <ele>332.75</ele>
        <time>2015-09-06T09:41:58Z</time>
      </trkpt>
      <trkpt lat="45.85758" lon="4.76374">
        <ele>328.43</ele>
        <time>2015-09-06T09:42:05Z</time>
      </trkpt>
      <trkpt lat="45.85765" lon="4.76369">
        <ele>327.95</ele>
        <time>2015-09-06T09:42:06Z</time>
      </trkpt>
      <trkpt lat="45.85829" lon="4.76328">
        <ele>323.62</ele>
        <time>2015-09-06T09:42:14Z</time>
      </trkpt>
      <trkpt lat="45.85837" lon="4.76321">
        <ele>322.66</ele>
        <time>2015-09-06T09:42:15Z</time>
      </trkpt>
      <trkpt lat="45.85845" lon="4.76314">
        <ele>322.18</ele>
        <time>2015-09-06T09:42:16Z</time>
      </trkpt>
      <trkpt lat="45.85853" lon="4.76307">
        <ele>321.22</ele>
        <time>2015-09-06T09:42:17Z</time>
      </trkpt>
      <trkpt lat="45.8586" lon="4.763">
        <ele>320.26</ele>
        <time>2015-09-06T09:42:18Z</time>
      </trkpt>
      <trkpt lat="45.85868" lon="4.76293">
        <ele>319.3</ele>
        <time>2015-09-06T09:42:19Z</time>
      </trkpt>
      <trkpt lat="45.85874" lon="4.76285">
        <ele>318.33</ele>
        <time>2015-09-06T09:42:20Z</time>
      </trkpt>
      <trkpt lat="45.8591" lon="4.76237">
        <ele>312.57</ele>
        <time>2015-09-06T09:42:26Z</time>
      </trkpt>
      <trkpt lat="45.85915" lon="4.76228">
        <ele>311.6</ele>
        <time>2015-09-06T09:42:27Z</time>
      </trkpt>
      <trkpt lat="45.8592" lon="4.7622">
        <ele>311.12</ele>
        <time>2015-09-06T09:42:28Z</time>
      </trkpt>
      <trkpt lat="45.85934" lon="4.76198">
        <ele>309.68</ele>
        <time>2015-09-06T09:42:31Z</time>
      </trkpt>
      <trkpt lat="45.85939" lon="4.7619">
        <ele>308.72</ele>
        <time>2015-09-06T09:42:32Z</time>
      </trkpt>
      <trkpt lat="45.85945" lon="4.76182">
        <ele>307.76</ele>
        <time>2015-09-06T09:42:33Z</time>
      </trkpt>
      <trkpt lat="45.85999" lon="4.76136">
        <ele>304.39</ele>
        <time>2015-09-06T09:42:40Z</time>
      </trkpt>
      <trkpt lat="45.86025" lon="4.76117">
        <ele>301.99</ele>
        <time>2015-09-06T09:42:46Z</time>
      </trkpt>
      <trkpt lat="45.86028" lon="4.76117">
        <ele>301.51</ele>
        <time>2015-09-06T09:43:00Z</time>
      </trkpt>
      <trkpt lat="45.86029" lon="4.76114">
        <ele>301.51</ele>
        <time>2015-09-06T09:43:21Z</time>
      </trkpt>
      <trkpt lat="45.86028" lon="4.76116">
        <ele>302.47</ele>
        <time>2015-09-06T09:43:43Z</time>
      </trkpt>
      <trkpt lat="45.86028" lon="4.76116">
        <ele>303.43</ele>
        <time>2015-09-06T09:44:02Z</time>
      </trkpt>
      <trkpt lat="45.86028" lon="4.76116">
        <ele>303.43</ele>
        <time>2015-09-06T09:44:14Z</time>
      </trkpt>
      <trkpt lat="45.86028" lon="4.76116">
        <ele>303.91</ele>
        <time>2015-09-06T09:44:30Z</time>
      </trkpt>
      <trkpt lat="45.86028" lon="4.76113">
        <ele>304.39</ele>
        <time>2015-09-06T09:44:48Z</time>
      </trkpt>
      <trkpt lat="45.86028" lon="4.76111">
        <ele>304.39</ele>
        <time>2015-09-06T09:44:49Z</time>
      </trkpt>
      <trkpt lat="45.86028" lon="4.76109">
        <ele>304.39</ele>
        <time>2015-09-06T09:44:50Z</time>
      </trkpt>
      <trkpt lat="45.86027" lon="4.76106">
        <ele>303.91</ele>
        <time>2015-09-06T09:44:51Z</time>
      </trkpt>
      <trkpt lat="45.86025" lon="4.76103">
        <ele>303.91</ele>
        <time>2015-09-06T09:44:52Z</time>
      </trkpt>
      <trkpt lat="45.86023" lon="4.761">
        <ele>303.91</ele>
        <time>2015-09-06T09:44:53Z</time>
      </trkpt>
      <trkpt lat="45.86021" lon="4.76098">
        <ele>303.43</ele>
        <time>2015-09-06T09:44:54Z</time>
      </trkpt>
      <trkpt lat="45.86005" lon="4.76054">
        <ele>301.51</ele>
        <time>2015-09-06T09:45:04Z</time>
      </trkpt>
      <trkpt lat="45.86003" lon="4.76048">
        <ele>301.51</ele>
        <time>2015-09-06T09:45:05Z</time>
      </trkpt>
      <trkpt lat="45.86003" lon="4.76041">
        <ele>301.03</ele>
        <time>2015-09-06T09:45:06Z</time>
      </trkpt>
      <trkpt lat="45.86002" lon="4.76033">
        <ele>300.55</ele>
        <time>2015-09-06T09:45:07Z</time>
      </trkpt>
      <trkpt lat="45.86001" lon="4.76025">
        <ele>300.55</ele>
        <time>2015-09-06T09:45:08Z</time>
      </trkpt>
      <trkpt lat="45.85998" lon="4.75986">
        <ele>298.63</ele>
        <time>2015-09-06T09:45:12Z</time>
      </trkpt>
      <trkpt lat="45.85997" lon="4.75975">
        <ele>298.15</ele>
        <time>2015-09-06T09:45:13Z</time>
      </trkpt>
      <trkpt lat="45.85995" lon="4.75953">
        <ele>296.7</ele>
        <time>2015-09-06T09:45:15Z</time>
      </trkpt>
      <trkpt lat="45.85995" lon="4.75942">
        <ele>296.22</ele>
        <time>2015-09-06T09:45:16Z</time>
      </trkpt>
      <trkpt lat="45.86001" lon="4.75861">
        <ele>291.9</ele>
        <time>2015-09-06T09:45:24Z</time>
      </trkpt>
      <trkpt lat="45.86006" lon="4.75843">
        <ele>290.46</ele>
        <time>2015-09-06T09:45:26Z</time>
      </trkpt>
      <trkpt lat="45.8601" lon="4.75834">
        <ele>289.97</ele>
        <time>2015-09-06T09:45:27Z</time>
      </trkpt>
      <trkpt lat="45.86015" lon="4.75826">
        <ele>289.01</ele>
        <time>2015-09-06T09:45:28Z</time>
      </trkpt>
      <trkpt lat="45.86025" lon="4.75811">
        <ele>287.57</ele>
        <time>2015-09-06T09:45:30Z</time>
      </trkpt>
      <trkpt lat="45.86031" lon="4.75806">
        <ele>287.09</ele>
        <time>2015-09-06T09:45:31Z</time>
      </trkpt>
      <trkpt lat="45.86081" lon="4.75763">
        <ele>280.36</ele>
        <time>2015-09-06T09:45:39Z</time>
      </trkpt>
      <trkpt lat="45.86087" lon="4.75759">
        <ele>279.88</ele>
        <time>2015-09-06T09:45:40Z</time>
      </trkpt>
      <trkpt lat="45.86128" lon="4.7573">
        <ele>274.11</ele>
        <time>2015-09-06T09:45:47Z</time>
      </trkpt>
      <trkpt lat="45.86134" lon="4.75725">
        <ele>273.15</ele>
        <time>2015-09-06T09:45:48Z</time>
      </trkpt>
      <trkpt lat="45.86214" lon="4.75677">
        <ele>262.58</ele>
        <time>2015-09-06T09:46:00Z</time>
      </trkpt>
      <trkpt lat="45.86231" lon="4.75666">
        <ele>259.69</ele>
        <time>2015-09-06T09:46:03Z</time>
      </trkpt>
      <trkpt lat="45.86235" lon="4.75663">
        <ele>258.73</ele>
        <time>2015-09-06T09:46:04Z</time>
      </trkpt>
      <trkpt lat="45.86238" lon="4.75657">
        <ele>257.77</ele>
        <time>2015-09-06T09:46:05Z</time>
      </trkpt>
      <trkpt lat="45.8624" lon="4.75651">
        <ele>257.29</ele>
        <time>2015-09-06T09:46:06Z</time>
      </trkpt>
      <trkpt lat="45.86242" lon="4.75644">
        <ele>256.33</ele>
        <time>2015-09-06T09:46:07Z</time>
      </trkpt>
      <trkpt lat="45.86244" lon="4.75638">
        <ele>255.85</ele>
        <time>2015-09-06T09:46:08Z</time>
      </trkpt>
      <trkpt lat="45.86245" lon="4.75631">
        <ele>255.37</ele>
        <time>2015-09-06T09:46:09Z</time>
      </trkpt>
      <trkpt lat="45.86247" lon="4.75616">
        <ele>254.89</ele>
        <time>2015-09-06T09:46:11Z</time>
      </trkpt>
      <trkpt lat="45.86247" lon="4.7561">
        <ele>254.41</ele>
        <time>2015-09-06T09:46:12Z</time>
      </trkpt>
      <trkpt lat="45.86246" lon="4.75605">
        <ele>253.93</ele>
        <time>2015-09-06T09:46:13Z</time>
      </trkpt>
      <trkpt lat="45.86246" lon="4.75601">
        <ele>253.93</ele>
        <time>2015-09-06T09:46:14Z</time>
      </trkpt>
      <trkpt lat="45.86248" lon="4.75598">
        <ele>253.44</ele>
        <time>2015-09-06T09:46:15Z</time>
      </trkpt>
      <trkpt lat="45.86251" lon="4.75596">
        <ele>252.96</ele>
        <time>2015-09-06T09:46:16Z</time>
      </trkpt>
      <trkpt lat="45.86254" lon="4.75596">
        <ele>252.48</ele>
        <time>2015-09-06T09:46:17Z</time>
      </trkpt>
      <trkpt lat="45.86263" lon="4.75597">
        <ele>252</ele>
        <time>2015-09-06T09:46:20Z</time>
      </trkpt>
      <trkpt lat="45.86309" lon="4.75575">
        <ele>250.08</ele>
        <time>2015-09-06T09:46:31Z</time>
      </trkpt>
      <trkpt lat="45.86314" lon="4.75572">
        <ele>250.08</ele>
        <time>2015-09-06T09:46:32Z</time>
      </trkpt>
      <trkpt lat="45.8636" lon="4.75544">
        <ele>247.2</ele>
        <time>2015-09-06T09:46:41Z</time>
      </trkpt>
      <trkpt lat="45.86366" lon="4.75542">
        <ele>247.2</ele>
        <time>2015-09-06T09:46:42Z</time>
      </trkpt>
      <trkpt lat="45.86372" lon="4.75541">
        <ele>247.2</ele>
        <time>2015-09-06T09:46:43Z</time>
      </trkpt>
      <trkpt lat="45.86378" lon="4.75541">
        <ele>246.72</ele>
        <time>2015-09-06T09:46:44Z</time>
      </trkpt>
      <trkpt lat="45.86384" lon="4.75542">
        <ele>246.72</ele>
        <time>2015-09-06T09:46:45Z</time>
      </trkpt>
      <trkpt lat="45.86401" lon="4.75545">
        <ele>246.72</ele>
        <time>2015-09-06T09:46:48Z</time>
      </trkpt>
      <trkpt lat="45.86458" lon="4.75548">
        <ele>245.75</ele>
        <time>2015-09-06T09:46:58Z</time>
      </trkpt>
      <trkpt lat="45.86462" lon="4.75548">
        <ele>245.27</ele>
        <time>2015-09-06T09:46:59Z</time>
      </trkpt>
      <trkpt lat="45.86467" lon="4.75549">
        <ele>245.27</ele>
        <time>2015-09-06T09:47:00Z</time>
      </trkpt>
      <trkpt lat="45.8648" lon="4.75552">
        <ele>244.79</ele>
        <time>2015-09-06T09:47:03Z</time>
      </trkpt>
      <trkpt lat="45.86484" lon="4.75553">
        <ele>244.31</ele>
        <time>2015-09-06T09:47:04Z</time>
      </trkpt>
      <trkpt lat="45.86503" lon="4.75558">
        <ele>243.83</ele>
        <time>2015-09-06T09:47:08Z</time>
      </trkpt>
      <trkpt lat="45.86508" lon="4.75559">
        <ele>243.83</ele>
        <time>2015-09-06T09:47:09Z</time>
      </trkpt>
      <trkpt lat="45.86564" lon="4.75579">
        <ele>242.39</ele>
        <time>2015-09-06T09:47:22Z</time>
      </trkpt>
      <trkpt lat="45.86568" lon="4.75581">
        <ele>242.39</ele>
        <time>2015-09-06T09:47:23Z</time>
      </trkpt>
      <trkpt lat="45.86572" lon="4.75582">
        <ele>242.39</ele>
        <time>2015-09-06T09:47:24Z</time>
      </trkpt>
      <trkpt lat="45.86577" lon="4.75584">
        <ele>242.39</ele>
        <time>2015-09-06T09:47:25Z</time>
      </trkpt>
      <trkpt lat="45.86658" lon="4.75601">
        <ele>242.87</ele>
        <time>2015-09-06T09:47:42Z</time>
      </trkpt>
      <trkpt lat="45.86663" lon="4.75603">
        <ele>242.87</ele>
        <time>2015-09-06T09:47:43Z</time>
      </trkpt>
      <trkpt lat="45.86668" lon="4.75606">
        <ele>242.87</ele>
        <time>2015-09-06T09:47:44Z</time>
      </trkpt>
      <trkpt lat="45.86749" lon="4.75666">
        <ele>240.47</ele>
        <time>2015-09-06T09:48:02Z</time>
      </trkpt>
      <trkpt lat="45.86809" lon="4.75671">
        <ele>239.51</ele>
        <time>2015-09-06T09:48:14Z</time>
      </trkpt>
      <trkpt lat="45.86851" lon="4.75686">
        <ele>240.47</ele>
        <time>2015-09-06T09:48:25Z</time>
      </trkpt>
      <trkpt lat="45.86863" lon="4.75696">
        <ele>241.43</ele>
        <time>2015-09-06T09:48:28Z</time>
      </trkpt>
      <trkpt lat="45.86913" lon="4.75732">
        <ele>243.35</ele>
        <time>2015-09-06T09:48:41Z</time>
      </trkpt>
      <trkpt lat="45.86917" lon="4.75738">
        <ele>243.35</ele>
        <time>2015-09-06T09:48:42Z</time>
      </trkpt>
      <trkpt lat="45.86919" lon="4.75743">
        <ele>243.35</ele>
        <time>2015-09-06T09:48:43Z</time>
      </trkpt>
      <trkpt lat="45.8692" lon="4.75749">
        <ele>243.35</ele>
        <time>2015-09-06T09:48:44Z</time>
      </trkpt>
      <trkpt lat="45.86918" lon="4.75754">
        <ele>243.83</ele>
        <time>2015-09-06T09:48:45Z</time>
      </trkpt>
      <trkpt lat="45.86917" lon="4.75758">
        <ele>244.31</ele>
        <time>2015-09-06T09:48:46Z</time>
      </trkpt>
      <trkpt lat="45.86914" lon="4.75763">
        <ele>244.31</ele>
        <time>2015-09-06T09:48:47Z</time>
      </trkpt>
      <trkpt lat="45.86911" lon="4.75766">
        <ele>244.79</ele>
        <time>2015-09-06T09:48:48Z</time>
      </trkpt>
      <trkpt lat="45.86908" lon="4.75768">
        <ele>244.79</ele>
        <time>2015-09-06T09:48:49Z</time>
      </trkpt>
      <trkpt lat="45.86904" lon="4.75769">
        <ele>245.27</ele>
        <time>2015-09-06T09:48:50Z</time>
      </trkpt>
      <trkpt lat="45.86901" lon="4.7577">
        <ele>245.75</ele>
        <time>2015-09-06T09:48:51Z</time>
      </trkpt>
      <trkpt lat="45.86843" lon="4.75784">
        <ele>249.6</ele>
        <time>2015-09-06T09:49:07Z</time>
      </trkpt>
      <trkpt lat="45.86796" lon="4.75808">
        <ele>252.48</ele>
        <time>2015-09-06T09:49:21Z</time>
      </trkpt>
      <trkpt lat="45.8675" lon="4.75838">
        <ele>255.37</ele>
        <time>2015-09-06T09:49:36Z</time>
      </trkpt>
      <trkpt lat="45.8671" lon="4.75869">
        <ele>257.29</ele>
        <time>2015-09-06T09:49:51Z</time>
      </trkpt>
      <trkpt lat="45.86671" lon="4.75899">
        <ele>259.69</ele>
        <time>2015-09-06T09:50:06Z</time>
      </trkpt>
      <trkpt lat="45.86627" lon="4.75916">
        <ele>262.1</ele>
        <time>2015-09-06T09:50:22Z</time>
      </trkpt>
      <trkpt lat="45.86586" lon="4.75932">
        <ele>264.98</ele>
        <time>2015-09-06T09:50:36Z</time>
      </trkpt>
      <trkpt lat="45.86532" lon="4.75962">
        <ele>270.27</ele>
        <time>2015-09-06T09:50:55Z</time>
      </trkpt>
      <trkpt lat="45.86494" lon="4.75977">
        <ele>273.15</ele>
        <time>2015-09-06T09:51:09Z</time>
      </trkpt>
      <trkpt lat="45.86454" lon="4.75991">
        <ele>276.52</ele>
        <time>2015-09-06T09:51:23Z</time>
      </trkpt>
      <trkpt lat="45.86424" lon="4.76001">
        <ele>278.92</ele>
        <time>2015-09-06T09:51:37Z</time>
      </trkpt>
      <trkpt lat="45.86392" lon="4.76009">
        <ele>281.32</ele>
        <time>2015-09-06T09:51:52Z</time>
      </trkpt>
      <trkpt lat="45.86362" lon="4.76014">
        <ele>284.21</ele>
        <time>2015-09-06T09:52:07Z</time>
      </trkpt>
      <trkpt lat="45.86329" lon="4.76016">
        <ele>283.73</ele>
        <time>2015-09-06T09:52:22Z</time>
      </trkpt>
      <trkpt lat="45.86298" lon="4.76018">
        <ele>285.65</ele>
        <time>2015-09-06T09:52:37Z</time>
      </trkpt>
      <trkpt lat="45.86262" lon="4.76024">
        <ele>287.57</ele>
        <time>2015-09-06T09:52:52Z</time>
      </trkpt>
      <trkpt lat="45.86222" lon="4.7603">
        <ele>291.9</ele>
        <time>2015-09-06T09:53:10Z</time>
      </trkpt>
      <trkpt lat="45.86181" lon="4.76027">
        <ele>294.78</ele>
        <time>2015-09-06T09:53:27Z</time>
      </trkpt>
      <trkpt lat="45.86148" lon="4.76021">
        <ele>297.67</ele>
        <time>2015-09-06T09:53:42Z</time>
      </trkpt>
      <trkpt lat="45.86146" lon="4.76023">
        <ele>297.67</ele>
        <time>2015-09-06T09:53:43Z</time>
      </trkpt>
      <trkpt lat="45.86145" lon="4.76024">
        <ele>298.15</ele>
        <time>2015-09-06T09:53:44Z</time>
      </trkpt>
      <trkpt lat="45.86143" lon="4.76026">
        <ele>298.15</ele>
        <time>2015-09-06T09:53:45Z</time>
      </trkpt>
      <trkpt lat="45.86141" lon="4.76028">
        <ele>298.15</ele>
        <time>2015-09-06T09:53:46Z</time>
      </trkpt>
      <trkpt lat="45.86139" lon="4.76029">
        <ele>298.15</ele>
        <time>2015-09-06T09:53:47Z</time>
      </trkpt>
      <trkpt lat="45.86106" lon="4.76059">
        <ele>300.07</ele>
        <time>2015-09-06T09:54:01Z</time>
      </trkpt>
      <trkpt lat="45.86091" lon="4.76071">
        <ele>301.51</ele>
        <time>2015-09-06T09:54:08Z</time>
      </trkpt>
      <trkpt lat="45.8609" lon="4.76073">
        <ele>301.99</ele>
        <time>2015-09-06T09:54:09Z</time>
      </trkpt>
      <trkpt lat="45.8609" lon="4.76075">
        <ele>301.99</ele>
        <time>2015-09-06T09:54:22Z</time>
      </trkpt>
      <trkpt lat="45.86091" lon="4.76076">
        <ele>302.47</ele>
        <time>2015-09-06T09:54:50Z</time>
      </trkpt>
      <trkpt lat="45.86091" lon="4.76075">
        <ele>302.47</ele>
        <time>2015-09-06T09:55:22Z</time>
      </trkpt>
      <trkpt lat="45.86092" lon="4.76076">
        <ele>302.95</ele>
        <time>2015-09-06T09:55:43Z</time>
      </trkpt>
      <trkpt lat="45.86094" lon="4.76076">
        <ele>302.95</ele>
        <time>2015-09-06T09:55:45Z</time>
      </trkpt>
      <trkpt lat="45.86095" lon="4.76078">
        <ele>302.95</ele>
        <time>2015-09-06T09:55:46Z</time>
      </trkpt>
      <trkpt lat="45.86095" lon="4.76081">
        <ele>302.95</ele>
        <time>2015-09-06T09:55:47Z</time>
      </trkpt>
      <trkpt lat="45.86095" lon="4.76086">
        <ele>302.47</ele>
        <time>2015-09-06T09:55:48Z</time>
      </trkpt>
      <trkpt lat="45.86096" lon="4.76092">
        <ele>302.47</ele>
        <time>2015-09-06T09:55:49Z</time>
      </trkpt>
      <trkpt lat="45.86098" lon="4.76099">
        <ele>301.99</ele>
        <time>2015-09-06T09:55:50Z</time>
      </trkpt>
      <trkpt lat="45.861" lon="4.76106">
        <ele>301.51</ele>
        <time>2015-09-06T09:55:51Z</time>
      </trkpt>
      <trkpt lat="45.86102" lon="4.76114">
        <ele>301.51</ele>
        <time>2015-09-06T09:55:52Z</time>
      </trkpt>
      <trkpt lat="45.86103" lon="4.76122">
        <ele>301.03</ele>
        <time>2015-09-06T09:55:53Z</time>
      </trkpt>
      <trkpt lat="45.86115" lon="4.76164">
        <ele>299.59</ele>
        <time>2015-09-06T09:55:59Z</time>
      </trkpt>
      <trkpt lat="45.86118" lon="4.7617">
        <ele>299.59</ele>
        <time>2015-09-06T09:56:00Z</time>
      </trkpt>
      <trkpt lat="45.86136" lon="4.76205">
        <ele>297.18</ele>
        <time>2015-09-06T09:56:05Z</time>
      </trkpt>
      <trkpt lat="45.86141" lon="4.76211">
        <ele>297.18</ele>
        <time>2015-09-06T09:56:06Z</time>
      </trkpt>
      <trkpt lat="45.86145" lon="4.76215">
        <ele>296.7</ele>
        <time>2015-09-06T09:56:07Z</time>
      </trkpt>
      <trkpt lat="45.8615" lon="4.76217">
        <ele>296.22</ele>
        <time>2015-09-06T09:56:08Z</time>
      </trkpt>
      <trkpt lat="45.86155" lon="4.76218">
        <ele>295.74</ele>
        <time>2015-09-06T09:56:09Z</time>
      </trkpt>
      <trkpt lat="45.8616" lon="4.76218">
        <ele>295.26</ele>
        <time>2015-09-06T09:56:10Z</time>
      </trkpt>
      <trkpt lat="45.86166" lon="4.76218">
        <ele>294.78</ele>
        <time>2015-09-06T09:56:11Z</time>
      </trkpt>
      <trkpt lat="45.86203" lon="4.76224">
        <ele>290.94</ele>
        <time>2015-09-06T09:56:18Z</time>
      </trkpt>
      <trkpt lat="45.86214" lon="4.76221">
        <ele>289.97</ele>
        <time>2015-09-06T09:56:20Z</time>
      </trkpt>
      <trkpt lat="45.86235" lon="4.76206">
        <ele>288.53</ele>
        <time>2015-09-06T09:56:24Z</time>
      </trkpt>
      <trkpt lat="45.86256" lon="4.76194">
        <ele>286.61</ele>
        <time>2015-09-06T09:56:27Z</time>
      </trkpt>
      <trkpt lat="45.86263" lon="4.76187">
        <ele>286.13</ele>
        <time>2015-09-06T09:56:28Z</time>
      </trkpt>
      <trkpt lat="45.86275" lon="4.76175">
        <ele>285.17</ele>
        <time>2015-09-06T09:56:30Z</time>
      </trkpt>
      <trkpt lat="45.86281" lon="4.76171">
        <ele>284.21</ele>
        <time>2015-09-06T09:56:31Z</time>
      </trkpt>
      <trkpt lat="45.86287" lon="4.76168">
        <ele>283.73</ele>
        <time>2015-09-06T09:56:32Z</time>
      </trkpt>
      <trkpt lat="45.86293" lon="4.76167">
        <ele>283.25</ele>
        <time>2015-09-06T09:56:33Z</time>
      </trkpt>
      <trkpt lat="45.86299" lon="4.76166">
        <ele>282.77</ele>
        <time>2015-09-06T09:56:34Z</time>
      </trkpt>
      <trkpt lat="45.86371" lon="4.76162">
        <ele>277.48</ele>
        <time>2015-09-06T09:56:44Z</time>
      </trkpt>
      <trkpt lat="45.86379" lon="4.76163">
        <ele>277</ele>
        <time>2015-09-06T09:56:45Z</time>
      </trkpt>
      <trkpt lat="45.86388" lon="4.76166">
        <ele>276.52</ele>
        <time>2015-09-06T09:56:46Z</time>
      </trkpt>
      <trkpt lat="45.86397" lon="4.76169">
        <ele>275.56</ele>
        <time>2015-09-06T09:56:47Z</time>
      </trkpt>
      <trkpt lat="45.86406" lon="4.76173">
        <ele>274.59</ele>
        <time>2015-09-06T09:56:48Z</time>
      </trkpt>
      <trkpt lat="45.86441" lon="4.76188">
        <ele>271.23</ele>
        <time>2015-09-06T09:56:52Z</time>
      </trkpt>
      <trkpt lat="45.86457" lon="4.76191">
        <ele>270.27</ele>
        <time>2015-09-06T09:56:54Z</time>
      </trkpt>
      <trkpt lat="45.86465" lon="4.7619">
        <ele>269.31</ele>
        <time>2015-09-06T09:56:55Z</time>
      </trkpt>
      <trkpt lat="45.86473" lon="4.76188">
        <ele>268.83</ele>
        <time>2015-09-06T09:56:56Z</time>
      </trkpt>
      <trkpt lat="45.8648" lon="4.76184">
        <ele>268.35</ele>
        <time>2015-09-06T09:56:57Z</time>
      </trkpt>
      <trkpt lat="45.86488" lon="4.7618">
        <ele>267.38</ele>
        <time>2015-09-06T09:56:58Z</time>
      </trkpt>
      <trkpt lat="45.86495" lon="4.76175">
        <ele>266.42</ele>
        <time>2015-09-06T09:56:59Z</time>
      </trkpt>
      <trkpt lat="45.86511" lon="4.76165">
        <ele>265.46</ele>
        <time>2015-09-06T09:57:01Z</time>
      </trkpt>
      <trkpt lat="45.86529" lon="4.76158">
        <ele>264.02</ele>
        <time>2015-09-06T09:57:03Z</time>
      </trkpt>
      <trkpt lat="45.86539" lon="4.76156">
        <ele>263.54</ele>
        <time>2015-09-06T09:57:04Z</time>
      </trkpt>
      <trkpt lat="45.86558" lon="4.76155">
        <ele>263.06</ele>
        <time>2015-09-06T09:57:06Z</time>
      </trkpt>
      <trkpt lat="45.86567" lon="4.76155">
        <ele>263.06</ele>
        <time>2015-09-06T09:57:07Z</time>
      </trkpt>
      <trkpt lat="45.86642" lon="4.76174">
        <ele>262.1</ele>
        <time>2015-09-06T09:57:16Z</time>
      </trkpt>
      <trkpt lat="45.8665" lon="4.76175">
        <ele>262.1</ele>
        <time>2015-09-06T09:57:17Z</time>
      </trkpt>
      <trkpt lat="45.86734" lon="4.76178">
        <ele>262.58</ele>
        <time>2015-09-06T09:57:29Z</time>
      </trkpt>
      <trkpt lat="45.86785" lon="4.76183">
        <ele>262.58</ele>
        <time>2015-09-06T09:57:39Z</time>
      </trkpt>
      <trkpt lat="45.86791" lon="4.76185">
        <ele>263.06</ele>
        <time>2015-09-06T09:57:40Z</time>
      </trkpt>
      <trkpt lat="45.86878" lon="4.76201">
        <ele>261.62</ele>
        <time>2015-09-06T09:57:56Z</time>
      </trkpt>
      <trkpt lat="45.86929" lon="4.76218">
        <ele>259.69</ele>
        <time>2015-09-06T09:58:05Z</time>
      </trkpt>
      <trkpt lat="45.86936" lon="4.76218">
        <ele>259.21</ele>
        <time>2015-09-06T09:58:06Z</time>
      </trkpt>
      <trkpt lat="45.86944" lon="4.76216">
        <ele>259.21</ele>
        <time>2015-09-06T09:58:07Z</time>
      </trkpt>
      <trkpt lat="45.86951" lon="4.76213">
        <ele>258.73</ele>
        <time>2015-09-06T09:58:08Z</time>
      </trkpt>
      <trkpt lat="45.86958" lon="4.76208">
        <ele>258.73</ele>
        <time>2015-09-06T09:58:09Z</time>
      </trkpt>
      <trkpt lat="45.86983" lon="4.76197">
        <ele>257.29</ele>
        <time>2015-09-06T09:58:12Z</time>
      </trkpt>
      <trkpt lat="45.86992" lon="4.76196">
        <ele>256.33</ele>
        <time>2015-09-06T09:58:13Z</time>
      </trkpt>
      <trkpt lat="45.87019" lon="4.76195">
        <ele>254.41</ele>
        <time>2015-09-06T09:58:16Z</time>
      </trkpt>
      <trkpt lat="45.87026" lon="4.76193">
        <ele>253.44</ele>
        <time>2015-09-06T09:58:17Z</time>
      </trkpt>
      <trkpt lat="45.87032" lon="4.76187">
        <ele>252.48</ele>
        <time>2015-09-06T09:58:18Z</time>
      </trkpt>
      <trkpt lat="45.87038" lon="4.76181">
        <ele>251.04</ele>
        <time>2015-09-06T09:58:19Z</time>
      </trkpt>
      <trkpt lat="45.87043" lon="4.76174">
        <ele>249.6</ele>
        <time>2015-09-06T09:58:20Z</time>
      </trkpt>
      <trkpt lat="45.87046" lon="4.76165">
        <ele>248.64</ele>
        <time>2015-09-06T09:58:21Z</time>
      </trkpt>
      <trkpt lat="45.87057" lon="4.7615">
        <ele>246.72</ele>
        <time>2015-09-06T09:58:23Z</time>
      </trkpt>
      <trkpt lat="45.87063" lon="4.76144">
        <ele>246.23</ele>
        <time>2015-09-06T09:58:24Z</time>
      </trkpt>
      <trkpt lat="45.87086" lon="4.76136">
        <ele>244.31</ele>
        <time>2015-09-06T09:58:27Z</time>
      </trkpt>
      <trkpt lat="45.87094" lon="4.76136">
        <ele>243.83</ele>
        <time>2015-09-06T09:58:28Z</time>
      </trkpt>
      <trkpt lat="45.87101" lon="4.76138">
        <ele>243.35</ele>
        <time>2015-09-06T09:58:29Z</time>
      </trkpt>
      <trkpt lat="45.87108" lon="4.76143">
        <ele>242.87</ele>
        <time>2015-09-06T09:58:30Z</time>
      </trkpt>
      <trkpt lat="45.87115" lon="4.76151">
        <ele>242.39</ele>
        <time>2015-09-06T09:58:31Z</time>
      </trkpt>
      <trkpt lat="45.8712" lon="4.7616">
        <ele>241.91</ele>
        <time>2015-09-06T09:58:32Z</time>
      </trkpt>
      <trkpt lat="45.87159" lon="4.76241">
        <ele>238.06</ele>
        <time>2015-09-06T09:58:41Z</time>
      </trkpt>
      <trkpt lat="45.87159" lon="4.76251">
        <ele>237.58</ele>
        <time>2015-09-06T09:58:42Z</time>
      </trkpt>
      <trkpt lat="45.87157" lon="4.7626">
        <ele>237.58</ele>
        <time>2015-09-06T09:58:43Z</time>
      </trkpt>
      <trkpt lat="45.87149" lon="4.76283">
        <ele>236.62</ele>
        <time>2015-09-06T09:58:46Z</time>
      </trkpt>
      <trkpt lat="45.87147" lon="4.76289">
        <ele>236.62</ele>
        <time>2015-09-06T09:58:47Z</time>
      </trkpt>
      <trkpt lat="45.87143" lon="4.76303">
        <ele>236.14</ele>
        <time>2015-09-06T09:58:49Z</time>
      </trkpt>
      <trkpt lat="45.87142" lon="4.7631">
        <ele>235.66</ele>
        <time>2015-09-06T09:58:50Z</time>
      </trkpt>
      <trkpt lat="45.87141" lon="4.76345">
        <ele>234.22</ele>
        <time>2015-09-06T09:58:55Z</time>
      </trkpt>
      <trkpt lat="45.87137" lon="4.76389">
        <ele>234.22</ele>
        <time>2015-09-06T09:59:02Z</time>
      </trkpt>
      <trkpt lat="45.87099" lon="4.76409">
        <ele>234.7</ele>
        <time>2015-09-06T09:59:15Z</time>
      </trkpt>
      <trkpt lat="45.8706" lon="4.76413">
        <ele>237.1</ele>
        <time>2015-09-06T09:59:30Z</time>
      </trkpt>
      <trkpt lat="45.87023" lon="4.76404">
        <ele>239.99</ele>
        <time>2015-09-06T09:59:47Z</time>
      </trkpt>
      <trkpt lat="45.86999" lon="4.76383">
        <ele>247.68</ele>
        <time>2015-09-06T10:00:01Z</time>
      </trkpt>
      <trkpt lat="45.86975" lon="4.76358">
        <ele>252</ele>
        <time>2015-09-06T10:00:17Z</time>
      </trkpt>
      <trkpt lat="45.8695" lon="4.76338">
        <ele>256.81</ele>
        <time>2015-09-06T10:00:32Z</time>
      </trkpt>
      <trkpt lat="45.86916" lon="4.76317">
        <ele>259.69</ele>
        <time>2015-09-06T10:00:50Z</time>
      </trkpt>
      <trkpt lat="45.86887" lon="4.76301">
        <ele>262.58</ele>
        <time>2015-09-06T10:01:04Z</time>
      </trkpt>
      <trkpt lat="45.86857" lon="4.76294">
        <ele>265.94</ele>
        <time>2015-09-06T10:01:17Z</time>
      </trkpt>
      <trkpt lat="45.86816" lon="4.76298">
        <ele>268.35</ele>
        <time>2015-09-06T10:01:34Z</time>
      </trkpt>
      <trkpt lat="45.86775" lon="4.76323">
        <ele>268.35</ele>
        <time>2015-09-06T10:01:51Z</time>
      </trkpt>
      <trkpt lat="45.86726" lon="4.76346">
        <ele>271.23</ele>
        <time>2015-09-06T10:02:09Z</time>
      </trkpt>
      <trkpt lat="45.86686" lon="4.76349">
        <ele>275.07</ele>
        <time>2015-09-06T10:02:23Z</time>
      </trkpt>
      <trkpt lat="45.86641" lon="4.76356">
        <ele>278.44</ele>
        <time>2015-09-06T10:02:38Z</time>
      </trkpt>
      <trkpt lat="45.86609" lon="4.76381">
        <ele>282.28</ele>
        <time>2015-09-06T10:02:53Z</time>
      </trkpt>
      <trkpt lat="45.86575" lon="4.76413">
        <ele>286.13</ele>
        <time>2015-09-06T10:03:11Z</time>
      </trkpt>
      <trkpt lat="45.86552" lon="4.76439">
        <ele>288.05</ele>
        <time>2015-09-06T10:03:25Z</time>
      </trkpt>
      <trkpt lat="45.86531" lon="4.76451">
        <ele>290.94</ele>
        <time>2015-09-06T10:03:36Z</time>
      </trkpt>
      <trkpt lat="45.865" lon="4.76472">
        <ele>293.34</ele>
        <time>2015-09-06T10:03:51Z</time>
      </trkpt>
      <trkpt lat="45.86458" lon="4.76504">
        <ele>294.78</ele>
        <time>2015-09-06T10:04:10Z</time>
      </trkpt>
      <trkpt lat="45.8641" lon="4.76536">
        <ele>297.18</ele>
        <time>2015-09-06T10:04:29Z</time>
      </trkpt>
      <trkpt lat="45.86368" lon="4.76584">
        <ele>299.59</ele>
        <time>2015-09-06T10:04:47Z</time>
      </trkpt>
      <trkpt lat="45.86347" lon="4.76633">
        <ele>301.51</ele>
        <time>2015-09-06T10:05:01Z</time>
      </trkpt>
      <trkpt lat="45.86365" lon="4.7665">
        <ele>303.43</ele>
        <time>2015-09-06T10:05:13Z</time>
      </trkpt>
      <trkpt lat="45.86371" lon="4.76653">
        <ele>304.39</ele>
        <time>2015-09-06T10:05:23Z</time>
      </trkpt>
      <trkpt lat="45.86376" lon="4.76654">
        <ele>303.43</ele>
        <time>2015-09-06T10:05:45Z</time>
      </trkpt>
      <trkpt lat="45.86376" lon="4.76654">
        <ele>304.39</ele>
        <time>2015-09-06T10:06:12Z</time>
      </trkpt>
      <trkpt lat="45.86376" lon="4.76654">
        <ele>303.43</ele>
        <time>2015-09-06T10:06:41Z</time>
      </trkpt>
      <trkpt lat="45.86375" lon="4.76655">
        <ele>302.47</ele>
        <time>2015-09-06T10:07:16Z</time>
      </trkpt>
      <trkpt lat="45.86375" lon="4.76656">
        <ele>302.47</ele>
        <time>2015-09-06T10:07:26Z</time>
      </trkpt>
      <trkpt lat="45.86384" lon="4.76664">
        <ele>301.03</ele>
        <time>2015-09-06T10:07:31Z</time>
      </trkpt>
      <trkpt lat="45.86387" lon="4.76669">
        <ele>300.07</ele>
        <time>2015-09-06T10:07:32Z</time>
      </trkpt>
      <trkpt lat="45.86393" lon="4.76674">
        <ele>299.11</ele>
        <time>2015-09-06T10:07:33Z</time>
      </trkpt>
      <trkpt lat="45.86399" lon="4.7668">
        <ele>297.67</ele>
        <time>2015-09-06T10:07:34Z</time>
      </trkpt>
      <trkpt lat="45.86407" lon="4.76684">
        <ele>296.7</ele>
        <time>2015-09-06T10:07:35Z</time>
      </trkpt>
      <trkpt lat="45.86415" lon="4.76687">
        <ele>295.74</ele>
        <time>2015-09-06T10:07:36Z</time>
      </trkpt>
      <trkpt lat="45.86423" lon="4.76688">
        <ele>294.78</ele>
        <time>2015-09-06T10:07:37Z</time>
      </trkpt>
      <trkpt lat="45.86472" lon="4.76692">
        <ele>294.3</ele>
        <time>2015-09-06T10:07:42Z</time>
      </trkpt>
      <trkpt lat="45.86516" lon="4.76699">
        <ele>293.34</ele>
        <time>2015-09-06T10:07:47Z</time>
      </trkpt>
      <trkpt lat="45.86527" lon="4.76695">
        <ele>292.38</ele>
        <time>2015-09-06T10:07:49Z</time>
      </trkpt>
      <trkpt lat="45.86534" lon="4.76695">
        <ele>292.38</ele>
        <time>2015-09-06T10:07:50Z</time>
      </trkpt>
      <trkpt lat="45.8654" lon="4.76697">
        <ele>292.38</ele>
        <time>2015-09-06T10:07:51Z</time>
      </trkpt>
      <trkpt lat="45.86545" lon="4.76701">
        <ele>291.9</ele>
        <time>2015-09-06T10:07:52Z</time>
      </trkpt>
      <trkpt lat="45.86552" lon="4.76704">
        <ele>291.9</ele>
        <time>2015-09-06T10:07:53Z</time>
      </trkpt>
      <trkpt lat="45.86558" lon="4.76708">
        <ele>290.94</ele>
        <time>2015-09-06T10:07:54Z</time>
      </trkpt>
      <trkpt lat="45.86566" lon="4.76709">
        <ele>290.46</ele>
        <time>2015-09-06T10:07:55Z</time>
      </trkpt>
      <trkpt lat="45.86573" lon="4.76708">
        <ele>289.97</ele>
        <time>2015-09-06T10:07:56Z</time>
      </trkpt>
      <trkpt lat="45.86582" lon="4.76704">
        <ele>289.49</ele>
        <time>2015-09-06T10:07:57Z</time>
      </trkpt>
      <trkpt lat="45.8659" lon="4.76701">
        <ele>289.01</ele>
        <time>2015-09-06T10:07:58Z</time>
      </trkpt>
      <trkpt lat="45.86715" lon="4.76645">
        <ele>279.4</ele>
        <time>2015-09-06T10:08:12Z</time>
      </trkpt>
      <trkpt lat="45.86725" lon="4.76643">
        <ele>278.44</ele>
        <time>2015-09-06T10:08:13Z</time>
      </trkpt>
      <trkpt lat="45.86735" lon="4.76642">
        <ele>277.96</ele>
        <time>2015-09-06T10:08:14Z</time>
      </trkpt>
      <trkpt lat="45.868" lon="4.76647">
        <ele>272.67</ele>
        <time>2015-09-06T10:08:23Z</time>
      </trkpt>
      <trkpt lat="45.86809" lon="4.76647">
        <ele>271.71</ele>
        <time>2015-09-06T10:08:25Z</time>
      </trkpt>
      <trkpt lat="45.86815" lon="4.76646">
        <ele>270.75</ele>
        <time>2015-09-06T10:08:26Z</time>
      </trkpt>
      <trkpt lat="45.86858" lon="4.76633">
        <ele>266.9</ele>
        <time>2015-09-06T10:08:32Z</time>
      </trkpt>
      <trkpt lat="45.86935" lon="4.76631">
        <ele>256.81</ele>
        <time>2015-09-06T10:08:40Z</time>
      </trkpt>
      <trkpt lat="45.86941" lon="4.76632">
        <ele>255.85</ele>
        <time>2015-09-06T10:08:41Z</time>
      </trkpt>
      <trkpt lat="45.86945" lon="4.76636">
        <ele>254.89</ele>
        <time>2015-09-06T10:08:42Z</time>
      </trkpt>
      <trkpt lat="45.86948" lon="4.76642">
        <ele>253.93</ele>
        <time>2015-09-06T10:08:43Z</time>
      </trkpt>
      <trkpt lat="45.8695" lon="4.76658">
        <ele>252.48</ele>
        <time>2015-09-06T10:08:45Z</time>
      </trkpt>
      <trkpt lat="45.86953" lon="4.76665">
        <ele>251.52</ele>
        <time>2015-09-06T10:08:46Z</time>
      </trkpt>
      <trkpt lat="45.86958" lon="4.76686">
        <ele>250.56</ele>
        <time>2015-09-06T10:08:49Z</time>
      </trkpt>
      <trkpt lat="45.86959" lon="4.76694">
        <ele>250.08</ele>
        <time>2015-09-06T10:08:50Z</time>
      </trkpt>
      <trkpt lat="45.8696" lon="4.76701">
        <ele>249.6</ele>
        <time>2015-09-06T10:08:51Z</time>
      </trkpt>
      <trkpt lat="45.86982" lon="4.76797">
        <ele>250.56</ele>
        <time>2015-09-06T10:09:02Z</time>
      </trkpt>
      <trkpt lat="45.86984" lon="4.76803">
        <ele>251.04</ele>
        <time>2015-09-06T10:09:03Z</time>
      </trkpt>
      <trkpt lat="45.86987" lon="4.76808">
        <ele>251.04</ele>
        <time>2015-09-06T10:09:04Z</time>
      </trkpt>
      <trkpt lat="45.8699" lon="4.76811">
        <ele>251.04</ele>
        <time>2015-09-06T10:09:05Z</time>
      </trkpt>
      <trkpt lat="45.86994" lon="4.76814">
        <ele>251.52</ele>
        <time>2015-09-06T10:09:06Z</time>
      </trkpt>
      <trkpt lat="45.86999" lon="4.76817">
        <ele>251.04</ele>
        <time>2015-09-06T10:09:07Z</time>
      </trkpt>
      <trkpt lat="45.87009" lon="4.76822">
        <ele>251.04</ele>
        <time>2015-09-06T10:09:09Z</time>
      </trkpt>
      <trkpt lat="45.87031" lon="4.76828">
        <ele>250.56</ele>
        <time>2015-09-06T10:09:12Z</time>
      </trkpt>
      <trkpt lat="45.87064" lon="4.76844">
        <ele>248.16</ele>
        <time>2015-09-06T10:09:16Z</time>
      </trkpt>
      <trkpt lat="45.87073" lon="4.76844">
        <ele>247.2</ele>
        <time>2015-09-06T10:09:17Z</time>
      </trkpt>
      <trkpt lat="45.8709" lon="4.76844">
        <ele>245.75</ele>
        <time>2015-09-06T10:09:19Z</time>
      </trkpt>
      <trkpt lat="45.87098" lon="4.76845">
        <ele>245.27</ele>
        <time>2015-09-06T10:09:20Z</time>
      </trkpt>
      <trkpt lat="45.87122" lon="4.76848">
        <ele>243.35</ele>
        <time>2015-09-06T10:09:23Z</time>
      </trkpt>
      <trkpt lat="45.87128" lon="4.76852">
        <ele>242.87</ele>
        <time>2015-09-06T10:09:24Z</time>
      </trkpt>
      <trkpt lat="45.87134" lon="4.76859">
        <ele>242.87</ele>
        <time>2015-09-06T10:09:25Z</time>
      </trkpt>
      <trkpt lat="45.87138" lon="4.76866">
        <ele>242.39</ele>
        <time>2015-09-06T10:09:26Z</time>
      </trkpt>
      <trkpt lat="45.87143" lon="4.76874">
        <ele>242.39</ele>
        <time>2015-09-06T10:09:27Z</time>
      </trkpt>
      <trkpt lat="45.87147" lon="4.76883">
        <ele>241.91</ele>
        <time>2015-09-06T10:09:28Z</time>
      </trkpt>
      <trkpt lat="45.8715" lon="4.76892">
        <ele>241.91</ele>
        <time>2015-09-06T10:09:29Z</time>
      </trkpt>
      <trkpt lat="45.87152" lon="4.76901">
        <ele>241.43</ele>
        <time>2015-09-06T10:09:30Z</time>
      </trkpt>
      <trkpt lat="45.87153" lon="4.7691">
        <ele>241.43</ele>
        <time>2015-09-06T10:09:31Z</time>
      </trkpt>
      <trkpt lat="45.87153" lon="4.7692">
        <ele>240.95</ele>
        <time>2015-09-06T10:09:32Z</time>
      </trkpt>
      <trkpt lat="45.87155" lon="4.77001">
        <ele>239.99</ele>
        <time>2015-09-06T10:09:40Z</time>
      </trkpt>
      <trkpt lat="45.87155" lon="4.7701">
        <ele>239.51</ele>
        <time>2015-09-06T10:09:41Z</time>
      </trkpt>
      <trkpt lat="45.87155" lon="4.7702">
        <ele>239.51</ele>
        <time>2015-09-06T10:09:42Z</time>
      </trkpt>
      <trkpt lat="45.87155" lon="4.77029">
        <ele>239.51</ele>
        <time>2015-09-06T10:09:43Z</time>
      </trkpt>
      <trkpt lat="45.87156" lon="4.77038">
        <ele>239.51</ele>
        <time>2015-09-06T10:09:44Z</time>
      </trkpt>
      <trkpt lat="45.87158" lon="4.77047">
        <ele>239.99</ele>
        <time>2015-09-06T10:09:45Z</time>
      </trkpt>
      <trkpt lat="45.8716" lon="4.77055">
        <ele>239.99</ele>
        <time>2015-09-06T10:09:46Z</time>
      </trkpt>
      <trkpt lat="45.87162" lon="4.77063">
        <ele>239.99</ele>
        <time>2015-09-06T10:09:47Z</time>
      </trkpt>
      <trkpt lat="45.87166" lon="4.77078">
        <ele>240.47</ele>
        <time>2015-09-06T10:09:49Z</time>
      </trkpt>
      <trkpt lat="45.87175" lon="4.77136">
        <ele>241.91</ele>
        <time>2015-09-06T10:10:00Z</time>
      </trkpt>
      <trkpt lat="45.87176" lon="4.7714">
        <ele>242.39</ele>
        <time>2015-09-06T10:10:03Z</time>
      </trkpt>
      <trkpt lat="45.87178" lon="4.77141">
        <ele>242.39</ele>
        <time>2015-09-06T10:10:04Z</time>
      </trkpt>
      <trkpt lat="45.87192" lon="4.7714">
        <ele>243.35</ele>
        <time>2015-09-06T10:10:10Z</time>
      </trkpt>
      <trkpt lat="45.87198" lon="4.77139">
        <ele>242.87</ele>
        <time>2015-09-06T10:10:11Z</time>
      </trkpt>
      <trkpt lat="45.87242" lon="4.7714">
        <ele>241.43</ele>
        <time>2015-09-06T10:10:18Z</time>
      </trkpt>
      <trkpt lat="45.87247" lon="4.77143">
        <ele>240.95</ele>
        <time>2015-09-06T10:10:19Z</time>
      </trkpt>
      <trkpt lat="45.8725" lon="4.77147">
        <ele>240.95</ele>
        <time>2015-09-06T10:10:20Z</time>
      </trkpt>
      <trkpt lat="45.87251" lon="4.77152">
        <ele>240.47</ele>
        <time>2015-09-06T10:10:21Z</time>
      </trkpt>
      <trkpt lat="45.8725" lon="4.77157">
        <ele>240.47</ele>
        <time>2015-09-06T10:10:22Z</time>
      </trkpt>
      <trkpt lat="45.87249" lon="4.77161">
        <ele>240.47</ele>
        <time>2015-09-06T10:10:23Z</time>
      </trkpt>
      <trkpt lat="45.87247" lon="4.77188">
        <ele>241.91</ele>
        <time>2015-09-06T10:10:33Z</time>
      </trkpt>
      <trkpt lat="45.87247" lon="4.77192">
        <ele>242.39</ele>
        <time>2015-09-06T10:10:35Z</time>
      </trkpt>
      <trkpt lat="45.87247" lon="4.77194">
        <ele>242.39</ele>
        <time>2015-09-06T10:10:36Z</time>
      </trkpt>
      <trkpt lat="45.87244" lon="4.772">
        <ele>242.87</ele>
        <time>2015-09-06T10:10:47Z</time>
      </trkpt>
      <trkpt lat="45.87244" lon="4.77201">
        <ele>244.31</ele>
        <time>2015-09-06T10:11:15Z</time>
      </trkpt>
      <trkpt lat="45.87244" lon="4.77199">
        <ele>245.27</ele>
        <time>2015-09-06T10:11:51Z</time>
      </trkpt>
      <trkpt lat="45.87244" lon="4.77202">
        <ele>245.27</ele>
        <time>2015-09-06T10:12:25Z</time>
      </trkpt>
      <trkpt lat="45.87245" lon="4.77202">
        <ele>246.23</ele>
        <time>2015-09-06T10:12:55Z</time>
      </trkpt>
      <trkpt lat="45.87246" lon="4.77202">
        <ele>247.68</ele>
        <time>2015-09-06T10:13:33Z</time>
      </trkpt>
      <trkpt lat="45.87246" lon="4.77201">
        <ele>249.12</ele>
        <time>2015-09-06T10:14:04Z</time>
      </trkpt>
      <trkpt lat="45.87245" lon="4.77203">
        <ele>249.12</ele>
        <time>2015-09-06T10:14:37Z</time>
      </trkpt>
      <trkpt lat="45.87245" lon="4.77205">
        <ele>249.12</ele>
        <time>2015-09-06T10:15:10Z</time>
      </trkpt>
    </trkseg>
  </trk>
</gpx>